[[{"header":{"parameterUnit":"m.s-1","parameterCategory":1,"la1":30.6,"la2":29.2853,"lo1":-89.7004,"lo2":-87.6739,"dy":0.0162,"dx":0.0183,"nx":112,"ny":82,"refTime":"2026-03-25T12:00:00:Z","depth":0,"parameterNumber":2,"parameterNumberName":"U-component_of_WINDS"},"data":[0.0,0.0,0.0,0.0,0.0,0.0,0.0,0.0,0.0,0.0,0.0,0.0,0.0,0.0,0.0,0.0,0.0,0.0,0.0,0.0,0.0,0.0,0.0,0.0,0.0,0.0,0.0,0.0,0.0,0.0,0.0,0.0,0.0,0.0,0.0,0.0,0.0,0.0,0.0,0.0,0.0,0.0,0.0,0.0,0.0,0.0,0.0,0.0,0.0,0.0,0.0,0.0,0.0,0.0,0.0,0.0,0.0,0.0,0.0,0.0,0.0,0.0,0.0,0.0,0.0,0.0,0.0,0.0,0.0,0.0,0.0,0.0,0.0,0.0,0.0,0.0,0.0,0.0,0.0,0.0,0.0,0.0,0.0,0.0,0.0,0.0,0.0,0.0,0.0,0.0,-2.1093,-2.1366,-2.2418,-2.2955,-2.2637,-2.2217,-2.1416,-2.0098,0.0,0.0,0.0,0.0,0.0,0.0,0.0,0.0,0.0,0.0,0.0,0.0,0.0,0.0,0.0,0.0,0.0,0.0,0.0,0.0,0.0,0.0,0.0,0.0,0.0,0.0,0.0,0.0,0.0,0.0,0.0,0.0,0.0,0.0,0.0,0.0,0.0,0.0,0.0,0.0,0.0,0.0,0.0,0.0,0.0,0.0,0.0,0.0,0.0,0.0,0.0,0.0,0.0,0.0,0.0,0.0,0.0,0.0,0.0,0.0,0.0,0.0,0.0,0.0,0.0,0.0,0.0,0.0,0.0,0.0,0.0,0.0,0.0,0.0,0.0,0.0,0.0,0.0,0.0,0.0,0.0,0.0,0.0,0.0,0.0,0.0,0.0,0.0,0.0,0.0,0.0,0.0,0.0,0.0,0.0,0.0,0.0,0.0,0.0,0.0,0.0,0.0,0.0,0.0,-2.0644,-2.2158,-2.2769,-2.3071,-2.3003,-2.2656,-2.1855,-2.0586,0.0,0.0,0.0,0.0,0.0,0.0,0.0,0.0,0.0,0.0,0.0,0.0,0.0,0.0,0.0,0.0,0.0,0.0,0.0,0.0,0.0,0.0,0.0,0.0,0.0,0.0,0.0,0.0,0.0,0.0,0.0,0.0,0.0,0.0,0.0,0.0,0.0,0.0,0.0,0.0,0.0,0.0,0.0,0.0,0.0,0.0,0.0,0.0,0.0,0.0,0.0,0.0,0.0,0.0,0.0,0.0,0.0,0.0,0.0,0.0,0.0,0.0,0.0,0.0,0.0,0.0,0.0,0.0,0.0,0.0,0.0,0.0,0.0,0.0,0.0,0.0,0.0,0.0,0.0,0.0,0.0,0.0,0.0,0.0,0.0,0.0,0.0,0.0,0.0,0.0,0.0,0.0,0.0,0.0,0.0,0.0,0.0,0.0,0.0,0.0,0.0,0.0,0.0,-2.1123,-2.1465,-2.2672,-2.2984,-2.3091,-2.3091,-2.2711,-2.206,-2.0996,-2.0107,0.0,0.0,0.0,0.0,0.0,0.0,0.0,0.0,0.0,0.0,0.0,0.0,0.0,0.0,0.0,0.0,0.0,0.0,0.0,0.0,0.0,0.0,0.0,0.0,0.0,0.0,0.0,0.0,0.0,0.0,0.0,0.0,0.0,0.0,0.0,0.0,0.0,0.0,0.0,0.0,0.0,0.0,0.0,0.0,0.0,0.0,0.0,0.0,0.0,0.0,0.0,0.0,0.0,0.0,0.0,0.0,0.0,0.0,0.0,0.0,0.0,0.0,0.0,0.0,0.0,0.0,0.0,0.0,0.0,0.0,0.0,0.0,0.0,0.0,0.0,0.0,0.0,0.0,0.0,0.0,0.0,0.0,0.0,0.0,0.0,0.0,0.0,0.0,0.0,0.0,0.0,0.0,0.0,0.0,0.0,0.0,0.0,0.0,0.0,0.0,0.0,0.0,-2.2197,-2.2432,-2.3023,-2.3091,-2.3091,-2.3091,-2.2711,-2.2148,-2.1249,-2.0362,0.0,0.0,0.0,0.0,0.0,0.0,0.0,0.0,0.0,0.0,0.0,0.0,0.0,0.0,0.0,0.0,0.0,0.0,0.0,0.0,0.0,0.0,0.0,0.0,0.0,0.0,0.0,0.0,0.0,0.0,0.0,0.0,0.0,0.0,0.0,0.0,0.0,0.0,0.0,0.0,0.0,0.0,0.0,0.0,0.0,0.0,0.0,0.0,0.0,0.0,0.0,0.0,0.0,0.0,0.0,0.0,0.0,0.0,0.0,0.0,0.0,0.0,0.0,0.0,0.0,0.0,0.0,0.0,0.0,0.0,0.0,0.0,0.0,0.0,0.0,0.0,0.0,0.0,0.0,0.0,0.0,0.0,0.0,0.0,0.0,0.0,0.0,0.0,0.0,0.0,0.0,0.0,0.0,0.0,0.0,0.0,0.0,0.0,0.0,0.0,0.0,0.0,-2.2292,-2.3033,-2.3091,-2.3091,-2.3091,-2.3091,-2.2711,-2.2148,-2.1249,-2.0362,0.0,0.0,0.0,0.0,0.0,0.0,0.0,0.0,0.0,0.0,0.0,0.0,0.0,0.0,0.0,0.0,0.0,0.0,0.0,0.0,0.0,0.0,0.0,0.0,0.0,0.0,0.0,0.0,0.0,0.0,0.0,0.0,0.0,0.0,0.0,0.0,0.0,0.0,0.0,0.0,0.0,0.0,0.0,0.0,0.0,0.0,0.0,0.0,0.0,0.0,0.0,0.0,0.0,0.0,0.0,0.0,0.0,0.0,0.0,0.0,0.0,0.0,0.0,0.0,0.0,0.0,0.0,0.0,0.0,0.0,0.0,0.0,0.0,0.0,0.0,0.0,0.0,0.0,0.0,0.0,0.0,0.0,0.0,0.0,0.0,0.0,0.0,0.0,0.0,0.0,0.0,0.0,0.0,0.0,0.0,0.0,0.0,0.0,0.0,0.0,0.0,0.0,-2.2285,-2.2808,0.0,-2.3091,-2.3091,-2.3091,-2.2955,-2.2496,-2.1699,0.0,0.0,0.0,0.0,0.0,0.0,0.0,0.0,0.0,0.0,0.0,0.0,0.0,0.0,0.0,0.0,0.0,0.0,0.0,0.0,0.0,0.0,0.0,0.0,0.0,0.0,0.0,0.0,0.0,0.0,0.0,0.0,0.0,0.0,0.0,0.0,0.0,0.0,0.0,0.0,0.0,0.0,0.0,0.0,0.0,0.0,0.0,0.0,0.0,0.0,0.0,0.0,0.0,0.0,0.0,0.0,0.0,0.0,0.0,0.0,0.0,0.0,0.0,0.0,0.0,0.0,0.0,0.0,0.0,0.0,0.0,0.0,0.0,0.0,0.0,0.0,0.0,0.0,0.0,0.0,0.0,0.0,0.0,0.0,0.0,0.0,0.0,0.0,0.0,0.0,0.0,0.0,0.0,0.0,0.0,0.0,0.0,0.0,0.0,0.0,0.0,0.0,-2.1787,-2.2373,-2.2828,0.0,-2.3305,-2.3354,-2.3491,-2.3247,-2.2783,-2.1934,0.0,0.0,0.0,0.0,0.0,0.0,0.0,0.0,0.0,0.0,0.0,0.0,0.0,0.0,0.0,0.0,0.0,0.0,0.0,0.0,0.0,0.0,0.0,0.0,0.0,0.0,0.0,0.0,0.0,0.0,0.0,0.0,0.0,0.0,0.0,0.0,0.0,0.0,0.0,0.0,0.0,0.0,0.0,0.0,0.0,0.0,0.0,0.0,0.0,0.0,0.0,0.0,0.0,0.0,0.0,0.0,0.0,0.0,0.0,0.0,0.0,0.0,0.0,0.0,0.0,0.0,0.0,0.0,0.0,0.0,0.0,0.0,0.0,0.0,0.0,0.0,0.0,0.0,0.0,0.0,0.0,0.0,0.0,0.0,0.0,0.0,0.0,0.0,0.0,0.0,0.0,0.0,0.0,0.0,0.0,0.0,0.0,0.0,0.0,0.0,0.0,0.0,-2.1836,-2.2627,-2.3276,-2.375,-2.3799,-2.3965,-2.4385,-2.3588,-2.274,0.0,0.0,0.0,0.0,0.0,0.0,0.0,0.0,0.0,0.0,0.0,0.0,0.0,0.0,0.0,0.0,0.0,0.0,0.0,0.0,0.0,0.0,0.0,0.0,0.0,0.0,0.0,0.0,0.0,0.0,0.0,0.0,0.0,0.0,0.0,0.0,0.0,0.0,0.0,0.0,0.0,0.0,0.0,0.0,0.0,0.0,0.0,0.0,0.0,0.0,0.0,0.0,0.0,0.0,0.0,0.0,0.0,0.0,0.0,0.0,0.0,0.0,0.0,0.0,0.0,0.0,0.0,0.0,0.0,0.0,0.0,0.0,0.0,0.0,0.0,0.0,0.0,0.0,0.0,0.0,0.0,0.0,0.0,0.0,0.0,0.0,0.0,0.0,0.0,0.0,0.0,0.0,0.0,0.0,0.0,0.0,0.0,0.0,0.0,0.0,0.0,0.0,0.0,-2.2275,-2.333,-2.4092,-2.4219,-2.4228,-2.4277,-2.4404,-2.3115,-2.188,-2.0927,0.0,0.0,0.0,0.0,0.0,0.0,0.0,0.0,0.0,0.0,0.0,0.0,0.0,0.0,0.0,0.0,0.0,0.0,0.0,0.0,0.0,0.0,0.0,0.0,0.0,0.0,0.0,0.0,0.0,0.0,0.0,0.0,0.0,0.0,0.0,0.0,0.0,0.0,0.0,0.0,0.0,0.0,0.0,0.0,0.0,0.0,0.0,0.0,0.0,0.0,0.0,0.0,0.0,0.0,0.0,0.0,0.0,0.0,0.0,0.0,0.0,0.0,0.0,0.0,0.0,0.0,0.0,0.0,0.0,0.0,0.0,0.0,0.0,0.0,0.0,0.0,0.0,0.0,0.0,0.0,0.0,0.0,0.0,0.0,0.0,0.0,0.0,0.0,0.0,0.0,0.0,0.0,0.0,0.0,0.0,0.0,0.0,0.0,0.0,0.0,0.0,0.0,-2.2432,-2.3623,-2.4482,-2.4658,-2.4678,-2.4746,-2.4884,-2.3289,-2.178,-2.0692,0.0,0.0,0.0,0.0,0.0,0.0,0.0,0.0,0.0,0.0,0.0,0.0,0.0,0.0,0.0,0.0,0.0,0.0,0.0,0.0,0.0,0.0,0.0,0.0,0.0,0.0,0.0,0.0,0.0,0.0,0.0,0.0,0.0,0.0,0.0,0.0,0.0,0.0,0.0,0.0,0.0,0.0,0.0,0.0,0.0,0.0,0.0,0.0,0.0,0.0,0.0,0.0,0.0,0.0,0.0,0.0,0.0,0.0,0.0,0.0,0.0,0.0,0.0,0.0,0.0,0.0,0.0,0.0,0.0,0.0,0.0,0.0,0.0,0.0,0.0,0.0,0.0,0.0,0.0,0.0,0.0,0.0,0.0,0.0,0.0,0.0,0.0,0.0,0.0,0.0,0.0,0.0,0.0,0.0,0.0,0.0,0.0,0.0,0.0,0.0,0.0,0.0,-2.2306,-2.3426,-2.4294,-2.4736,-2.4775,-2.4938,-2.5294,-2.3448,-2.181,-2.0667,0.0,0.0,0.0,0.0,0.0,0.0,0.0,0.0,0.0,0.0,0.0,0.0,0.0,0.0,0.0,0.0,0.0,0.0,0.0,0.0,0.0,0.0,0.0,0.0,0.0,0.0,0.0,0.0,0.0,0.0,0.0,0.0,0.0,0.0,0.0,0.0,0.0,0.0,0.0,0.0,0.0,0.0,0.0,0.0,0.0,0.0,0.0,0.0,0.0,0.0,0.0,0.0,0.0,0.0,0.0,0.0,0.0,0.0,0.0,0.0,-2.4124,-2.4052,0.0,0.0,0.0,0.0,0.0,0.0,0.0,0.0,0.0,0.0,0.0,0.0,0.0,0.0,0.0,0.0,0.0,0.0,0.0,0.0,0.0,0.0,0.0,0.0,0.0,0.0,0.0,0.0,0.0,0.0,0.0,0.0,0.0,0.0,0.0,0.0,0.0,0.0,0.0,0.0,-2.1852,-2.2166,-2.2302,-2.2429,-2.2438,-2.2472,-2.2558,-2.0964,-1.9538,-1.8594,-1.7067,0.0,0.0,0.0,0.0,0.0,0.0,0.0,0.0,0.0,0.0,0.0,0.0,0.0,0.0,0.0,0.0,0.0,0.0,0.0,0.0,0.0,0.0,0.0,0.0,0.0,0.0,0.0,0.0,0.0,0.0,0.0,0.0,0.0,0.0,0.0,0.0,0.0,0.0,0.0,0.0,0.0,0.0,0.0,0.0,0.0,0.0,0.0,0.0,0.0,0.0,0.0,0.0,0.0,0.0,0.0,0.0,0.0,0.0,0.0,-2.2956,-2.3651,0.0,0.0,0.0,0.0,0.0,0.0,0.0,0.0,0.0,0.0,0.0,0.0,0.0,0.0,0.0,0.0,0.0,0.0,0.0,0.0,0.0,0.0,0.0,0.0,0.0,0.0,0.0,0.0,0.0,0.0,0.0,0.0,0.0,0.0,0.0,0.0,0.0,0.0,0.0,0.0,-2.1687,-2.1724,-2.1702,-2.1702,-2.1702,-2.1702,-2.1702,-2.0183,-1.8957,-1.8336,-1.6637,0.0,0.0,0.0,0.0,0.0,0.0,0.0,0.0,0.0,0.0,0.0,0.0,0.0,0.0,0.0,0.0,0.0,0.0,0.0,0.0,0.0,0.0,0.0,0.0,0.0,0.0,0.0,0.0,0.0,0.0,0.0,0.0,0.0,0.0,0.0,0.0,0.0,0.0,0.0,0.0,0.0,0.0,0.0,0.0,0.0,0.0,0.0,0.0,0.0,0.0,0.0,0.0,0.0,-1.8158,-1.7993,-1.7135,-1.7948,-1.8342,-1.8594,-2.1942,-2.3201,-2.2982,-2.382,0.0,0.0,0.0,0.0,0.0,0.0,0.0,0.0,0.0,0.0,0.0,0.0,0.0,0.0,0.0,0.0,0.0,0.0,0.0,0.0,0.0,0.0,-1.809,-1.8575,-1.8238,-1.7816,-1.7936,0.0,0.0,0.0,0.0,0.0,0.0,0.0,0.0,0.0,0.0,0.0,-2.1275,-2.1213,-2.1059,-2.1123,-2.1067,-2.1035,-2.1035,-1.9717,-1.8787,-1.8464,-1.6614,-1.5284,0.0,0.0,0.0,0.0,0.0,0.0,0.0,0.0,0.0,0.0,0.0,0.0,0.0,0.0,0.0,0.0,0.0,0.0,0.0,0.0,0.0,0.0,0.0,0.0,0.0,0.0,0.0,0.0,0.0,0.0,0.0,0.0,-1.7403,-1.7855,0.0,0.0,0.0,0.0,0.0,0.0,0.0,0.0,0.0,0.0,0.0,0.0,0.0,-1.6353,-1.6716,-1.7374,-1.7361,-1.6603,-1.7938,-1.8351,-1.7982,-1.8987,-1.9711,-2.0091,-2.0639,0.0,-2.1535,-2.3284,0.0,0.0,0.0,0.0,0.0,0.0,0.0,0.0,0.0,0.0,0.0,0.0,0.0,0.0,0.0,0.0,0.0,0.0,0.0,0.0,0.0,0.0,-1.9428,-1.7504,-1.7159,-1.7231,-1.6936,-1.8023,-1.8523,-1.6822,-1.7282,-1.7867,0.0,0.0,0.0,0.0,0.0,0.0,-1.9568,-1.8984,-1.861,-1.8878,-1.8665,-1.8507,-1.8507,-1.8066,-1.7707,-1.7408,-1.6648,-1.5892,-1.5304,-1.4683,0.0,0.0,0.0,0.0,0.0,0.0,0.0,0.0,0.0,0.0,0.0,0.0,0.0,0.0,0.0,0.0,0.0,0.0,0.0,0.0,0.0,0.0,0.0,0.0,0.0,0.0,0.0,0.0,0.0,-1.7107,-1.7022,-1.7255,-1.779,-1.765,0.0,0.0,0.0,0.0,0.0,0.0,0.0,0.0,0.0,-1.4651,-1.4599,-1.4845,-1.5389,-1.5863,-1.613,-1.607,-1.6703,-1.7152,-1.7345,-1.7994,-1.8394,-1.8647,-1.977,-2.0361,-2.0589,-2.1276,-2.1311,-2.0979,0.0,0.0,0.0,0.0,-2.1436,-2.1464,-2.1675,-2.1839,-2.1874,-2.1148,0.0,0.0,0.0,0.0,0.0,0.0,0.0,-1.9339,-1.8927,-1.8839,-1.859,-1.7875,-1.7809,-1.7822,-1.7522,-1.7956,-1.8074,-1.6609,-1.6835,-1.7248,-1.7253,-1.744,0.0,0.0,0.0,-1.8647,-1.9295,-1.8735,-1.8343,-1.8477,-1.837,-1.8175,-1.8009,-1.7869,-1.7716,-1.7467,-1.7052,-1.6623,-1.6152,-1.5571,-1.4983,0.0,0.0,0.0,0.0,0.0,0.0,0.0,0.0,0.0,0.0,0.0,0.0,0.0,0.0,0.0,0.0,0.0,0.0,0.0,0.0,0.0,0.0,0.0,0.0,0.0,0.0,0.0,0.0,-1.6624,-1.6337,-1.6407,-1.7038,-1.6754,0.0,0.0,0.0,0.0,0.0,0.0,-1.4012,-1.3807,-1.387,-1.442,-1.4179,-1.4302,-1.4736,-1.5117,-1.5551,-1.6004,-1.6132,-1.6433,-1.6934,-1.7213,-1.7313,-1.7392,-1.889,-1.9551,-1.9585,-2.0093,-2.024,-2.0208,-1.9811,-1.9674,-1.9691,-1.9933,-1.9976,-2.0095,-2.069,-2.116,-2.1322,-2.056,-2.0233,-1.9946,-1.9097,0.0,0.0,0.0,0.0,-1.8448,-1.9235,-1.8652,-1.7929,-1.8384,-1.849,-1.843,-1.8155,-1.8109,-1.7829,-1.6764,-1.6673,-1.6871,-1.6904,-1.7109,0.0,-1.8704,0.0,-1.8692,-1.9225,-1.8858,-1.8631,-1.8704,-1.8644,-1.851,-1.8235,-1.8149,-1.8029,-1.7722,-1.7502,-1.7208,-1.6834,-1.64,-1.5892,-1.5357,0.0,0.0,0.0,0.0,0.0,0.0,0.0,0.0,0.0,0.0,0.0,0.0,0.0,0.0,0.0,0.0,0.0,0.0,0.0,0.0,0.0,0.0,0.0,0.0,0.0,0.0,0.0,0.0,0.0,-1.536,-1.5235,0.0,0.0,0.0,0.0,-1.3247,-1.3386,-1.3452,-1.327,-1.3769,-1.4177,-1.4486,-1.501,-1.5324,-1.5351,-1.5925,-1.6359,-1.6667,-1.6998,-1.7293,-1.7542,-1.7555,-1.7562,-1.7582,-1.7936,-1.8131,-1.8299,-2.0767,-2.1813,-2.1729,-2.1328,-2.119,-2.1046,-1.9869,-1.9428,-1.9324,-1.8478,-1.907,-2.0065,-1.9257,-1.8616,-1.8151,-1.805,-1.7497,0.0,0.0,-1.7679,-1.7714,-1.8037,-1.8278,-1.8457,-1.8484,-1.849,-1.849,-1.847,-1.847,-1.8196,-1.7333,-1.7166,-1.7072,-1.6794,0.0,-1.6948,-1.761,-1.7686,-1.7983,-1.88,-1.8885,-1.9011,-1.9292,-1.9072,-1.8891,-1.8878,-1.8624,-1.8337,-1.7989,-1.7955,-1.7736,-1.7206,-1.7152,-1.6857,-1.6268,-1.5645,0.0,0.0,0.0,0.0,0.0,0.0,0.0,0.0,0.0,0.0,0.0,0.0,0.0,0.0,0.0,0.0,0.0,0.0,0.0,0.0,0.0,0.0,0.0,0.0,0.0,0.0,0.0,0.0,-1.5,-1.485,0.0,-1.3055,-1.3606,-1.3628,-1.2675,-1.2516,-1.25,-1.2474,-1.2146,-1.2514,-1.3762,-1.4004,-1.4709,-1.5959,-1.6166,-1.6563,-1.7045,-1.7146,-1.7353,-1.7582,-1.7582,-1.7695,-1.7896,-1.8196,-1.843,-1.868,-1.9843,-2.0068,-1.9693,-1.9531,-1.9481,-1.9456,-1.918,-1.9092,-1.9085,-1.8946,-1.9217,-1.9555,-1.9081,-1.8657,-1.8297,-1.809,-1.7943,-1.7896,-1.811,-1.817,-1.8277,-1.8764,-1.8831,-1.8818,-1.9011,-1.9052,-1.9005,-1.8811,-1.8771,-1.8617,-1.811,-1.807,-1.7923,-1.7569,-1.7729,-1.7862,-1.7883,-1.8203,-1.8564,-1.8885,-1.9092,-1.9252,-1.9417,-1.9272,-1.9132,-1.8938,-1.8831,-1.8564,-1.8022,-1.7995,-1.7862,-1.7442,-1.7481,-1.7293,-1.6898,-1.644,-1.5818,0.0,0.0,0.0,0.0,0.0,0.0,0.0,0.0,0.0,0.0,0.0,0.0,0.0,0.0,0.0,0.0,0.0,0.0,0.0,0.0,0.0,0.0,0.0,0.0,0.0,0.0,-1.3164,-1.4106,-1.3719,-1.3006,-1.2081,-1.2487,-1.2499,-1.1646,-1.1416,-1.146,-1.1827,-1.1292,-1.1583,-1.2842,-1.3337,-1.4214,-1.5611,-1.617,-1.6667,-1.7199,-1.73,-1.7447,-1.7582,-1.7582,-1.7756,-1.8009,-1.8364,-1.8657,-1.8945,-1.9245,-1.9138,-1.8784,-1.8784,-1.8784,-1.8811,-1.9005,-1.9072,-1.9098,-1.9299,-1.9424,-1.9332,-1.9138,-1.8945,-1.8744,-1.8537,-1.8551,-1.8657,-1.8758,-1.8711,-1.8751,-1.9296,-1.9219,-1.9125,-1.9377,-1.9424,-1.9312,-1.9118,-1.9072,-1.9018,-1.8824,-1.8624,-1.843,-1.823,-1.8364,-1.8457,-1.8302,-1.8621,-1.8958,-1.9058,-1.9245,-1.9424,-1.9424,-1.9424,-1.9285,-1.9092,-1.8985,-1.8718,-1.8175,-1.8049,-1.7856,-1.7595,-1.7488,-1.7393,-1.7206,-1.666,-1.5979,-1.511,0.0,0.0,0.0,0.0,0.0,0.0,0.0,0.0,0.0,0.0,0.0,0.0,0.0,0.0,0.0,0.0,0.0,0.0,0.0,0.0,0.0,0.0,0.0,-1.2428,-1.1995,-1.178,-1.2502,-1.1721,-1.0979,-1.0605,-1.112,-1.1109,-1.0267,-1.0161,-1.0451,-1.1202,-1.1191,-1.1392,-1.1886,-1.3102,-1.3953,-1.4365,-1.5894,-1.681,-1.7219,-1.7501,-1.7582,-1.7582,-1.7582,-1.7696,-1.7955,-1.8364,-1.8651,-1.8888,-1.9245,-1.9424,-1.9424,-1.9424,-1.9424,-1.9424,-1.9424,-1.9424,-1.9424,-1.9424,-1.9424,-1.9424,-1.9424,-1.9424,-1.9424,-1.9424,-1.9165,-1.8998,-1.9285,-1.9158,-1.9005,-1.9292,-1.9424,-1.9424,-1.9424,-1.9424,-1.9424,-1.9424,-1.9424,-1.9424,-1.9424,-1.8905,-1.8517,-1.8517,-1.8517,-1.8617,-1.8898,-1.8938,0.0,-1.939,-1.9424,-1.9424,-1.9424,-1.9424,-1.9424,-1.9424,-1.9092,-1.8804,-1.851,-1.821,-1.7856,-1.7595,-1.7308,-1.711,-1.7058,-1.6153,-1.5577,-1.5292,0.0,0.0,0.0,0.0,0.0,0.0,0.0,0.0,0.0,0.0,0.0,0.0,0.0,0.0,0.0,0.0,0.0,0.0,0.0,0.0,0.0,-0.9793,-0.9604,-1.0127,-0.9817,-0.9737,-1.02,-1.0095,-0.994,-0.98,-1.0251,-1.0466,-1.024,-0.9629,-0.9433,-0.9826,-0.9072,-0.9617,-1.1838,-1.1361,-1.2664,-1.6013,-1.5582,-1.6068,-1.7514,-1.7542,-1.7582,-1.7582,-1.7582,-1.7197,-1.6545,-1.7903,-1.8071,-1.7475,-1.8821,-1.9424,-1.9424,-1.9424,-1.9424,-1.9424,-1.9424,-1.9424,-1.9424,-1.9424,-1.9424,-1.9424,-1.9424,-1.9424,-1.9424,-1.9424,-1.9312,-1.9265,-1.9345,-1.9305,-1.9265,-1.9403,-1.9424,-1.9424,-1.9424,-1.9424,-1.9424,-1.9424,-1.9424,-1.9424,-1.9424,-1.9296,-1.9125,-1.9125,-1.9125,-1.9158,-1.9232,-1.9245,-1.9279,-1.9417,-1.9424,-1.9424,-1.9424,-1.9424,-1.9424,-1.9424,-1.9092,-1.8804,-1.851,-1.821,-1.7856,-1.7595,-1.6483,-1.5417,-1.4403,-1.3707,-1.3301,0.0,0.0,0.0,0.0,0.0,0.0,0.0,0.0,0.0,0.0,0.0,0.0,0.0,0.0,0.0,0.0,0.0,0.0,0.0,0.0,0.0,0.0,-0.8539,-0.829,-0.7911,-0.817,-0.8613,-0.9288,-0.9188,-0.9028,-0.904,-0.9424,-0.9444,-0.8931,-0.8431,-0.8296,-0.8594,-0.7969,-0.868,-1.1009,-1.0391,-1.1612,-1.4951,-1.485,-1.5427,-1.6717,-1.7312,-1.7582,-1.7582,-1.7582,-1.731,-1.6823,-1.802,-1.819,-1.7754,-1.8748,-1.9185,-1.9192,0.0,0.0,0.0,0.0,-1.9078,-1.9185,-1.9185,-1.9265,-1.9424,-1.9424,-1.9424,-1.9424,-1.9424,-1.9424,-1.9424,-1.9424,-1.9424,-1.9424,-1.9424,-1.9424,-1.9424,-1.9424,-1.9424,-1.9424,-1.9424,-1.9424,-1.9424,-1.9424,-1.9424,0.0,-1.9424,-1.9424,-1.9424,-1.9424,-1.9424,-1.9424,-1.9424,-1.9472,-1.9546,-1.9546,-1.9659,-1.9679,-1.9559,-1.9279,0.0,0.0,0.0,-1.6636,-1.5646,-1.4777,0.0,0.0,0.0,0.0,0.0,-1.1784,0.0,0.0,-1.2311,-1.184,0.0,0.0,0.0,0.0,0.0,0.0,0.0,0.0,0.0,0.0,0.0,0.0,0.0,0.0,0.0,0.0,-0.7092,-0.6682,-0.5782,-0.6688,-0.788,-0.9037,-0.8608,-0.8234,-0.8213,-0.8521,-0.8233,-0.7183,-0.7095,-0.723,-0.7584,-0.76,0.0,0.0,0.0,-1.0666,-1.2592,-1.3925,-1.4854,-1.5417,-1.6876,-1.7582,-1.7582,-1.7582,-1.7623,-1.7733,-1.8255,-1.8492,-1.8645,-1.8791,-1.8945,-1.8991,-1.9192,-1.9105,-1.8844,-1.8624,-1.8704,-1.8925,-1.8958,0.0,0.0,-1.9424,-1.9424,-1.9424,-1.9424,-1.9424,-1.9424,-1.9424,-1.9424,-1.9424,-1.9424,-1.9424,-1.9424,-1.9424,-1.9424,-1.9424,-1.9424,-1.9424,-1.9437,-1.947,-1.9477,-1.9426,-1.9459,-1.947,-1.9437,-1.947,-1.9477,-1.9491,-1.9459,-1.9686,-1.9853,-1.9853,-2.008,0.0,-1.9873,-1.9553,-1.9081,-1.8394,-1.6631,-1.4767,-1.2743,-1.267,-1.2476,-1.2082,-1.2163,-1.2358,-1.2621,-1.1475,-1.1183,-1.1571,-1.181,-1.1563,0.0,0.0,0.0,0.0,0.0,0.0,0.0,0.0,0.0,0.0,0.0,0.0,0.0,0.0,0.0,-0.5978,-0.5352,-0.4731,-0.3789,-0.459,-0.5743,-0.6922,-0.7049,-0.709,-0.7165,-0.736,-0.7356,-0.7095,-0.7095,-0.723,-0.7584,-0.76,-0.8347,-0.994,-0.897,-0.9724,-1.2587,-1.3012,-1.3918,-1.5417,-1.6876,0.0,-1.7582,-1.7582,-1.6961,-1.5999,-1.7443,-1.7611,-1.6905,-1.8296,-1.9065,-1.9239,-1.8824,-1.8624,-1.8597,-1.8778,-1.8878,-1.8958,-1.9199,-1.9377,-1.9424,-1.9424,-1.9424,-1.9424,-1.9424,-1.9424,0.0,-1.9424,-1.9424,-1.9424,-1.9424,-1.9424,-1.9424,-1.9424,-1.9424,-1.9424,-1.9424,-1.9424,-1.9432,-1.9673,-1.972,-1.9786,-2.0027,-1.9679,-1.9446,-1.9679,-1.972,-1.98,-2.0034,-2.0114,-2.0147,-2.0147,-2.0201,-2.0153,-2.0154,-1.9673,-1.8777,-1.7356,-1.5284,-1.3421,-1.1829,-1.1772,-1.1199,-0.9993,-1.0027,-1.0122,-1.0288,-1.0028,-1.0028,-1.0316,-1.0152,-1.0076,0.0,0.0,0.0,0.0,0.0,0.0,0.0,0.0,0.0,0.0,0.0,-0.877,-0.7573,0.0,-0.669,-0.5159,-0.475,-0.4236,-0.3235,-0.3551,-0.4369,-0.5659,-0.6318,-0.679,-0.697,-0.7055,-0.7095,-0.7095,-0.7095,-0.723,-0.7584,-0.76,-0.8347,-0.994,-0.8676,-0.9087,-1.136,-1.162,-1.2196,-1.3146,-1.4714,-1.5476,-1.547,-1.6174,-1.5689,-1.4465,-1.6921,-1.6837,-1.5116,-1.6905,-1.8004,-1.8691,-1.8551,-1.849,-1.849,-1.8484,-1.8577,-1.8744,-1.9045,-1.9239,-1.9424,-1.9424,-1.9424,-1.9424,-1.9424,-1.9424,-1.9424,-1.9424,-1.9424,-1.9424,-1.9424,-1.9424,-1.9424,-1.9424,-1.9479,-1.9586,-1.9586,-1.97,-1.9846,-1.9987,-2.0013,-2.006,-2.0207,-1.9993,-1.9853,-1.9993,-2.0013,-2.0067,-2.0153,-2.0361,-2.0454,-2.0454,-2.0581,-2.0615,-2.0468,-1.9123,-1.7286,-1.4881,-1.3558,-1.2218,-1.0705,-1.065,-1.0299,-0.9602,-0.9676,-0.9754,-0.9829,-0.9907,-1.0056,-1.0266,-1.012,-1.0049,0.0,0.0,0.0,0.0,0.0,0.0,0.0,0.0,-0.8224,-0.7517,-0.7666,-0.7596,-0.6505,-0.6545,-0.6241,-0.4793,-0.4471,-0.4023,-0.2969,-0.2792,-0.3224,-0.4338,-0.5585,-0.6505,-0.676,-0.6962,-0.7095,-0.7095,-0.7095,-0.723,-0.7584,-0.76,-0.8207,-0.9546,-0.8577,-0.8603,-0.9813,-1.0361,-1.0754,-1.0928,-1.2471,-1.3278,-1.3318,-1.4449,-1.4395,-1.3442,-1.6368,-1.626,-1.4277,-1.6025,-1.7289,-1.8182,-1.8417,-1.849,-1.847,-1.8283,-1.837,-1.8617,-1.8905,-1.9165,-1.9424,-1.9424,-1.9424,-1.9424,-1.9424,-1.9424,-1.9424,-1.9424,-1.9424,-1.9424,-1.9424,-1.947,-1.9511,-1.9511,-1.9673,-1.9887,-1.9887,-2.0067,-2.0193,-2.0307,-2.0321,-2.0334,-2.0394,-2.034,-2.0381,-2.0327,-2.0321,-2.0341,-2.0394,-2.0615,-2.0762,-2.0762,-2.0969,-2.0989,-2.0702,-1.8368,-1.5772,-1.3102,-1.2159,-1.1115,-0.9971,-0.991,-0.991,-0.991,-1.0029,-1.0044,-1.0075,-1.0259,-1.0412,-1.0582,-1.0582,-1.0521,-1.1493,-1.0775,-0.985,-0.9164,-0.7922,-0.6725,0.0,0.0,-0.5957,-0.5503,-0.6059,-0.6484,-0.6125,-0.609,-0.5785,-0.4843,-0.3898,-0.2929,-0.1919,-0.176,-0.1882,-0.2131,-0.4002,-0.5348,-0.5567,-0.6517,-0.7095,-0.7095,-0.7095,-0.723,-0.7584,-0.76,-0.7781,-0.8226,-0.8088,-0.8163,-0.8517,-0.9794,-1.0578,-1.0928,-1.237,-1.312,-1.3318,-1.348,-1.3426,-1.3388,-1.5313,-1.5969,-1.5768,-1.7565,-1.845,-1.8804,-1.8577,-1.849,-1.8517,-1.8744,-1.8844,-1.8918,-1.9219,-1.9397,-1.9424,-1.9424,-1.9424,-1.9424,-1.9424,-1.9424,-1.9424,-1.9424,-1.9424,-1.9424,-1.9424,-1.9559,-1.9753,-1.9753,-1.9973,-2.0187,-2.0187,-2.0153,-2.0307,-2.0575,-2.0628,-2.0708,-2.0969,-2.1009,-2.0922,-2.0661,-2.0628,-2.0722,-2.0975,-2.1042,-2.1062,-2.1062,-2.1089,-2.0989,-2.0702,-1.7747,-1.5611,-1.504,-1.2164,-1.0415,-1.0229,-1.0229,-1.0229,-1.0229,-1.0246,-1.0317,-1.0443,-1.046,-1.0616,-1.083,-1.083,-1.0823,-1.0432,-0.9386,0.0,0.0,-0.6276,-0.5284,-0.4659,-0.4227,-0.3896,-0.3635,-0.4511,-0.5248,-0.5164,-0.5717,-0.5835,0.0,-0.4334,-0.3671,-0.2618,-0.1959,-0.1832,-0.2462,-0.3558,-0.4537,-0.5304,-0.6428,-0.7095,-0.7095,-0.7095,-0.723,-0.7584,-0.76,-0.7736,-0.7982,-0.7988,-0.8019,-0.8136,-0.8823,-0.9289,-0.9516,-1.0191,-1.0601,-1.0781,-1.1647,-1.2512,-1.3215,-1.2274,-1.3292,-1.5599,-1.5699,-1.6778,-1.8362,-1.847,-1.849,-1.8524,-1.8818,-1.8818,-1.8738,-1.9205,-1.9424,-1.9424,-1.9424,-1.9424,-1.9424,-1.9424,-1.9424,-1.9424,-1.9424,-1.9424,-1.9464,-1.9579,-1.9713,-1.9846,-2.0013,-2.0274,-2.0494,-2.0494,-2.0621,-2.0782,-2.0902,-2.0929,-2.0969,-2.1089,-2.1109,-2.1069,-2.0949,-2.0929,-2.0969,-2.1096,-2.1109,-2.1109,-2.1109,-2.1109,-2.0214,-1.8099,-1.661,-1.4902,-1.2778,-1.1304,-1.0534,-1.0534,-1.0534,-1.0534,-1.0534,-1.0534,-1.0609,-1.0758,-1.0758,-1.0867,-1.1073,-1.1073,-1.1121,-0.9234,0.0,0.0,-0.5781,-0.4623,-0.3608,-0.3143,-0.2676,-0.2296,-0.227,-0.3462,-0.4525,-0.4556,-0.5749,-0.6367,-0.5312,-0.5112,-0.4756,-0.3709,-0.2674,-0.227,-0.2994,-0.3604,-0.4327,-0.5212,-0.6404,-0.7095,-0.7095,-0.7095,-0.7213,-0.7522,-0.7577,-0.7716,-0.7921,-0.7968,-0.7988,-0.7988,-0.815,-0.8299,-0.8482,-0.8594,-0.875,-0.8937,-1.0025,-1.1055,-1.1973,-1.0241,-1.1324,-1.4191,-1.3764,-1.5085,-1.7453,-1.7715,-1.8026,-1.841,-1.8784,-1.8791,-1.8684,-1.9192,-1.9424,-1.9424,-1.9424,-1.9424,-1.9424,-1.9424,-1.9424,-1.9424,-1.9424,-1.9426,-1.9539,-1.9746,-1.992,-2.0094,-2.0301,-2.0581,-2.0795,-2.0795,-2.0962,-2.1109,-2.1109,-2.1109,-2.1109,-2.1109,-2.1109,-2.1109,-2.1109,-2.1109,-2.1109,-2.1109,-2.1109,-2.1109,-2.1109,-2.0652,-1.9355,-1.6824,-1.5719,-1.4101,-1.1567,-1.0982,-1.0721,-1.0721,-1.0721,-1.0741,-1.0782,-1.0782,-1.0856,-1.1006,-1.1006,-1.1084,-1.1226,-1.1226,-1.1307,0.0,0.0,-0.474,-0.4513,-0.2814,-0.1189,-0.1191,-0.1277,-0.1407,-0.1587,-0.3143,-0.4551,-0.466,-0.6384,-0.7442,-0.6412,-0.6192,-0.579,-0.4802,-0.3746,-0.3075,-0.3115,-0.4134,-0.4905,0.0,-0.6302,-0.7095,-0.7095,-0.7095,-0.721,-0.7415,-0.7519,-0.7665,-0.7814,-0.7914,-0.7988,-0.7988,-0.7995,-0.8194,-0.8482,-0.8486,-0.8648,-0.8885,-0.8937,-0.8992,-0.9099,-1.0457,-1.1105,-1.1324,-1.2733,-1.438,-1.5975,-1.598,-1.6823,-1.8075,-1.8655,-1.8918,-1.8951,-1.9259,-1.9424,-1.9424,-1.9424,-1.9424,-1.9424,-1.9424,-1.9424,-1.9424,-1.9424,-1.9573,-1.9786,-1.98,-2.0221,-2.0648,-2.0661,-2.0882,-2.1096,-2.1096,-2.1102,-2.1109,-2.1109,-2.1109,-2.1109,-2.1109,-2.1109,-2.1109,-2.1109,-2.1109,-2.1109,-2.1109,-2.1109,-2.1109,-2.1109,-1.961,-1.8506,-1.8442,-1.5334,-1.332,-1.3259,-1.1633,-1.0721,-1.0721,-1.0721,-1.0792,-1.087,-1.0873,-1.1012,-1.1155,-1.1155,-1.1236,-1.1385,-1.1385,-1.1467,0.0,0.0,-0.3988,-0.1874,-0.0789,0.0065,0.1183,0.0897,0.0395,0.0326,-0.1762,-0.3596,-0.3626,-0.5384,-0.6679,-0.6338,-0.6289,-0.6167,-0.5825,-0.4839,-0.4427,-0.514,-0.5047,0.0,0.0,0.0,0.0,-0.7088,-0.7095,-0.7207,-0.7409,-0.7516,-0.7665,-0.7807,-0.7911,-0.7988,-0.7988,-0.7988,-0.814,-0.8343,-0.854,-0.874,-0.8885,-0.8885,-0.8885,-0.8937,-0.9427,-1.0186,-1.116,-1.1647,-1.3305,-1.5546,-1.5546,-1.6476,-1.7789,-1.8135,-1.8415,-1.8711,-1.9199,-1.9424,-1.9424,-1.9424,-1.9424,-1.9424,-1.9424,-1.9424,-1.9424,-1.9424,-1.9579,-1.9846,-2.004,-2.0381,-2.0722,-2.0915,-2.1036,-2.1109,-2.1109,-2.1109,-2.1109,-2.1109,-2.1109,-2.1109,-2.1109,-2.1109,-2.1176,-2.1376,-2.1236,-2.1109,-2.1109,-2.0169,-1.9496,-1.9496,-1.8053,-1.6619,-1.5486,-1.4289,-1.3153,-1.195,-1.1349,-1.1012,-1.1012,-1.1012,-1.104,-1.109,-1.109,-1.1165,-1.1314,-1.1314,-1.1392,-1.1541,-1.1541,-1.1569,-0.4808,-0.3846,-0.2743,-0.0382,0.0388,0.0949,0.2366,0.1958,0.1199,0.0835,-0.1274,-0.3161,-0.3546,-0.5275,-0.6561,-0.6246,-0.6481,-0.661,-0.6328,-0.5709,-0.5512,-0.6222,-0.5786,-0.5695,0.0,0.0,0.0,-0.7007,-0.7021,-0.7085,-0.7282,-0.7434,-0.7587,-0.7733,-0.7879,-0.7934,-0.7988,-0.7988,-0.8116,-0.8327,-0.857,-0.876,-0.8804,-0.8858,-0.8885,-0.8885,-0.8885,-0.9427,-1.0292,-1.0292,-1.1701,-1.3906,-1.4449,-1.553,-1.6914,-1.7714,-1.8237,-1.8557,-1.9038,-1.9279,-1.9424,-1.9424,-1.9424,-1.9424,-1.9424,-1.9424,-1.945,-1.9492,-1.9733,-2.002,-2.0314,-2.0615,-2.0882,-2.1069,-2.1109,-2.1109,-2.1109,-2.1109,-2.1109,-2.1109,-2.1109,-2.1109,-2.1109,-2.1196,-2.137,-2.1728,-2.1543,-2.1159,-2.0502,-1.9536,-1.8634,-1.7967,-1.6422,-1.5023,-1.3874,-1.3195,-1.2383,-1.13,-1.1231,-1.1231,-1.1231,-1.1231,-1.1189,-1.1243,-1.1243,-1.1318,-1.147,-1.147,-1.1525,-1.1619,-1.1619,-1.1647,-0.4325,-0.2781,-0.103,0.0065,0.0854,0.1608,0.2544,0.206,0.1087,0.0036,-0.1625,-0.3235,0.0,0.0,-0.6965,-0.6152,-0.6804,-0.7165,-0.6391,-0.63,-0.63,0.0,0.0,0.0,0.0,0.0,0.0,-0.6767,-0.6883,-0.6947,-0.7088,-0.7288,-0.7438,-0.7584,-0.7733,-0.7882,-0.7978,-0.7985,-0.8116,-0.8327,-0.856,-0.8703,-0.8716,-0.8814,-0.8885,-0.8885,-0.8992,-0.8992,-0.8885,-0.8992,-0.986,-1.1269,-1.2729,-1.418,-1.5613,-1.7365,-1.8223,-1.8531,-1.8804,-1.9105,-1.9424,-1.9424,-1.9424,-1.9424,-1.9424,-1.9424,-1.9491,-1.972,-2.0007,-2.0301,-2.0601,-2.0895,-2.1109,-2.1109,-2.1109,-2.1109,-2.1109,-2.1109,-2.1116,-2.1129,-2.1142,-2.1156,-2.1156,-2.139,-2.1735,-2.1964,-2.2004,-2.139,-1.956,-1.9166,-1.8357,-1.6591,-1.4778,-1.3698,-1.3698,-1.2138,-1.1185,-1.1185,-1.1185,-1.1185,-1.1185,-1.1185,-1.1253,-1.1399,-1.1402,-1.1474,-1.1619,-1.1626,-1.163,-1.163,-1.164,-1.1714,-0.2418,-0.1565,-0.0619,0.1517,0.2197,0.2577,0.348,0.2991,0.1902,0.0281,-0.1581,-0.3189,0.0,0.0,0.0,-0.6023,-0.6352,0.0,-0.6331,-0.63,0.0,-0.63,0.0,-0.6313,-0.6351,-0.561,0.0,0.0,-0.6348,-0.6947,-0.7088,-0.7288,-0.7436,-0.7428,-0.7678,-0.7831,-0.7868,-0.7934,-0.8116,-0.8323,-0.8455,-0.8601,-0.8716,-0.8814,-0.8885,-0.8937,-1.0076,-0.9915,-0.8992,-1.008,-1.0781,-1.1269,-1.2729,-1.418,-1.5589,-1.7125,-1.8036,-1.8504,-1.8577,-1.8938,-1.9424,-1.9424,-1.9424,-1.9424,-1.9424,-1.9424,-1.9491,-1.972,-2.0007,-2.0301,-2.0601,-2.0895,-2.1109,-2.1109,-2.1109,-2.1109,-2.1109,-2.1109,-2.1176,-2.1396,-2.1617,-2.1764,-2.1764,-2.1824,-2.1977,-2.2265,-2.2305,-2.2025,-2.1403,-1.9036,-1.7229,-1.675,-1.4002,-1.2133,-1.2133,-1.1785,-1.1504,-1.1504,-1.1504,-1.1504,-1.1504,-1.1504,-1.1521,-1.1558,-1.1562,-1.1582,-1.1619,-1.1725,-1.1775,-1.1779,-1.1894,-1.1969,-0.1429,-0.0584,0.0394,0.2233,0.2978,0.3413,0.3882,0.3005,0.1565,-0.0313,-0.2149,0.0,0.0,0.0,0.0,0.0,0.0,0.0,-0.6279,-0.5906,-0.5589,0.0,-0.5196,0.0,-0.4882,-0.483,-0.4618,0.0,-0.4914,-0.5632,-0.6331,-0.6457,-0.6801,-0.737,-0.7533,-0.7682,-0.7811,-0.7914,-0.8032,-0.817,-0.8319,-0.8465,-0.8615,-0.8767,-0.8821,-0.8937,-0.9754,-0.9644,-0.8992,-1.0511,-1.0726,-1.041,-1.3316,-1.4434,-1.4733,-1.697,-1.8003,-1.831,-1.8444,-1.8791,-1.9192,-1.9325,-1.9424,-1.9424,-1.9424,-1.9459,-1.9619,-1.9907,-2.0201,-2.0494,-2.0788,-2.0989,-2.1109,-2.1109,-2.1109,-2.1109,-2.1109,-2.1216,-2.139,-2.1748,-2.1877,-2.2024,-2.2158,-2.2178,-2.2278,-2.2572,-2.2612,-2.2552,-2.2392,-1.995,-1.7605,-1.5938,-1.4019,-1.2534,-1.1691,-1.1619,-1.1619,-1.1619,-1.1619,-1.1619,-1.1619,-1.1619,-1.1619,-1.1619,-1.1681,-1.1711,-1.1711,-1.186,-1.1932,-1.1935,-1.202,-1.2098,-0.0834,0.023,0.1541,0.2611,0.3347,0.3811,0.3694,0.2366,0.0583,-0.1436,0.0,0.0,-0.5354,-0.5487,-0.5515,-0.5755,0.0,-0.5895,-0.6063,-0.5276,-0.4647,-0.4491,-0.3669,-0.3085,-0.3085,-0.4031,-0.4209,-0.3136,-0.3079,-0.3671,-0.5085,-0.5314,-0.5997,-0.7366,-0.7436,-0.7533,-0.7807,-0.7914,-0.7988,-0.7992,-0.8197,-0.8336,-0.8459,-0.8632,-0.8781,-0.891,-0.9092,-0.921,-0.932,-1.0566,-1.0351,-0.9603,-1.3696,-1.4473,-1.3668,-1.6565,-1.7813,-1.8089,-1.8404,-1.8704,-1.9025,-1.9285,-1.9424,-1.9424,-1.9424,-1.9546,-1.9813,-2.014,-2.0421,-2.0695,-2.1022,-2.1109,-2.1109,-2.1109,-2.1109,-2.1109,-2.1109,-2.1376,-2.1762,-2.1984,-2.2078,-2.2184,-2.2432,-2.2478,-2.2565,-2.2887,-2.2928,-2.2791,-2.2578,-2.1107,-1.8718,-1.5137,-1.457,-1.3662,-1.176,-1.1619,-1.1619,-1.1619,-1.1619,-1.1619,-1.1619,-1.1636,-1.1647,-1.1647,-1.1789,-1.186,-1.186,-1.2016,-1.2166,-1.2094,-1.2111,-1.2193,0.0525,0.1101,0.1708,0.3347,0.3347,0.2758,0.2168,0.1164,0.0,0.0,0.0,-0.41,-0.5013,-0.5396,0.0,-0.5772,0.0,0.0,0.0,0.0,-0.4373,0.0,0.0,0.0,0.0,0.0,0.0,0.0,-0.1883,-0.249,-0.3833,-0.4865,-0.5997,-0.7366,-0.7495,-0.7641,-0.7811,-0.7914,-0.7988,-0.7992,-0.8197,-0.8333,-0.8368,-0.8587,-0.8723,-0.8811,-1.0124,-1.0726,-1.0726,-1.1,-1.0945,-1.0785,-1.1632,-1.2486,-1.3485,-1.5202,-1.693,-1.8424,-1.847,-1.8844,-1.9299,-1.941,-1.9424,-1.9424,-1.9424,-1.9406,-1.9553,-2.0087,-2.0267,-2.0434,-2.0969,-2.1109,-2.1109,-2.1109,-2.1109,-2.1109,-2.1109,-2.153,-2.1997,-2.2291,-2.2539,-2.2726,-2.2779,-2.2786,-2.2806,-2.2921,-2.2928,-2.2366,-2.0756,-2.0265,-1.9217,-1.6972,-1.5349,-1.3662,-1.176,-1.1619,-1.1619,-1.1619,-1.1619,-1.1619,-1.1619,-1.1731,-1.1792,-1.1792,-1.1945,-1.202,-1.2023,-1.2176,-1.225,-1.2254,-1.2372,-1.244,0.0958,0.1641,0.2342,0.368,0.3673,0.3061,0.1856,0.0,0.0,0.0,0.0,-0.4516,-0.4926,0.0,0.0,0.0,0.0,0.0,0.0,0.0,0.0,0.0,0.0,0.0,0.0,0.0,-0.1964,-0.0839,-0.1356,-0.1988,-0.2632,-0.4421,-0.5966,-0.7203,-0.74,-0.7553,-0.7699,-0.7848,-0.7911,-0.7992,-0.8113,-0.8194,-0.833,-0.8492,-0.8635,-0.8774,-0.9574,-0.997,-1.0025,-1.0781,-1.0672,-1.0139,-1.1812,-1.2334,-1.2417,-1.4808,-1.6193,-1.706,-1.8095,-1.8677,-1.8965,-1.933,-1.9424,-1.9424,-1.9424,-1.9579,-1.9873,-2.0154,-2.0454,-2.0755,-2.1036,-2.1109,-2.1109,-2.1109,-2.1109,-2.1196,-2.1496,-2.179,-2.2118,-2.2565,-2.2766,-2.2578,-2.1596,-2.1459,-2.1459,-2.1459,-2.0611,-1.9982,-2.0057,-1.9217,-1.8234,-1.7323,-1.6404,-1.5491,-1.4583,-1.3591,-1.3066,-1.3229,-1.2232,-1.1765,-1.1847,-1.1915,-1.1952,-1.1952,-1.2101,-1.2182,-1.2182,-1.2328,-1.24,-1.2403,-1.2471,-1.2501,0.1558,0.2335,0.3091,0.3976,0.3942,0.3294,0.185,0.0154,0.0,0.0,0.0,-0.4381,-0.4381,0.0,0.0,0.0,0.0,0.0,0.0,0.0,0.0,0.0,0.0,0.0,0.0,0.0,0.0,-0.0083,-0.0884,-0.1544,-0.1775,-0.3831,-0.5536,-0.6694,-0.7153,-0.7444,-0.7597,-0.774,-0.7889,-0.7988,-0.7988,-0.8102,-0.8225,-0.837,-0.852,-0.8669,-0.8821,-0.9071,-0.9427,-1.0296,-1.0131,-0.9607,-1.1859,-1.2091,-1.1455,-1.4335,-1.5458,-1.5779,-1.7724,-1.8477,-1.8657,-1.9125,-1.9319,-1.9424,-1.9424,-1.9686,-2.0074,-2.0194,-2.0568,-2.0955,-2.1076,-2.1109,-2.0982,-2.0652,-2.0526,-2.0682,-2.1319,-2.1714,-2.2158,-2.2746,-2.2928,-2.2297,-2.0409,-2.0126,-1.9987,-1.9565,-1.8164,-1.7599,-1.8718,-1.757,-1.6688,-1.6688,-1.6688,-1.6495,-1.6112,-1.4765,-1.3974,-1.412,-1.2677,-1.1935,-1.2057,-1.2094,-1.2111,-1.2111,-1.2257,-1.2335,-1.2335,-1.2447,-1.2501,-1.2501,-1.2501,-1.2501,0.3129,0.3468,0.3714,0.4587,0.3709,0.2417,0.154,0.0,0.0,0.0,-0.2537,-0.2708,-0.2708,0.0,0.0,0.0,0.0,0.0,0.0,0.0,0.0,0.0,0.0,0.0,0.0,0.0,-0.1152,-0.0081,-0.0085,-0.0651,-0.1739,-0.3049,-0.433,-0.5536,-0.6744,-0.7444,-0.7597,-0.774,-0.7889,-0.7988,-0.7988,-0.7995,-0.8015,-0.8221,-0.8367,-0.8513,-0.8665,-0.9559,-1.0781,-0.9588,-0.9805,-1.0798,-0.9928,-1.0222,-1.1291,-1.3081,-1.4636,-1.6054,-1.7562,-1.8382,-1.8891,-1.8945,-1.9145,-1.9424,-1.9424,-1.9406,-1.9559,-2.0087,-2.0213,-2.0434,-2.0969,-2.1109,-2.0716,-1.9094,-1.8768,-1.8911,-1.9501,-2.0901,-2.2158,-2.2746,-2.2928,-2.2297,-2.0409,-2.0126,-1.9495,-1.7744,-1.7323,-1.662,-1.5132,-1.4943,-1.4911,-1.4911,-1.4911,-1.4257,-1.2667,-1.2388,-1.232,-1.2334,-1.2189,-1.2047,-1.2135,-1.2196,-1.2271,-1.2271,-1.241,-1.2481,-1.2481,-1.2494,-1.2501,-1.2501,-1.2501,-1.2501,0.4002,0.4548,0.4968,0.5449,0.4315,0.2785,0.1579,0.0,0.0,-0.2041,-0.2255,-0.2306,-0.2306,-0.2014,0.0,0.0,0.0,0.0,0.0,0.0,0.0,0.0,0.0,0.0,0.0,0.0,-0.0473,-0.004,0.0,-0.0216,-0.0682,-0.1844,-0.3395,-0.5359,-0.5897,-0.6623,-0.7461,-0.7611,-0.7756,-0.7902,-0.7944,-0.7988,-0.7995,-0.8201,-0.835,-0.8367,-0.8608,-0.9064,-0.9609,-0.9116,-0.9265,-0.9706,-0.922,-0.9314,-1.0088,-1.2498,-1.3782,-1.4673,-1.7146,-1.8262,-1.8691,-1.8865,-1.9125,-1.9424,-1.9424,-1.9492,-1.9713,-2.0114,-2.0361,-2.0595,-2.1002,-2.0329,-1.9094,-1.7339,-1.6953,-1.7407,-1.9031,-1.9954,-2.0927,-2.2603,-2.2928,-2.1947,-1.8863,-1.8374,-1.7739,-1.5769,-1.4578,-1.3984,-1.4521,-1.3665,-1.3066,-1.3193,-1.4219,-1.4979,-1.5424,-1.4404,-1.3788,-1.3893,-1.2867,-1.2237,-1.2322,-1.2386,-1.2416,-1.2416,-1.2474,-1.2501,-1.2501,-1.2501,-1.2501,-1.2501,-1.2501,-1.2501,0.4688,0.5448,0.5943,0.5881,0.4638,0.3125,0.0,0.0,-0.0923,-0.1452,-0.1535,-0.1535,-0.1535,-0.1118,-0.077,0.0,0.0,0.0,0.0,0.0,0.0,0.0,0.0,0.0,0.0,0.0,0.0,0.0,0.0,0.0,0.0,-0.0791,-0.2192,-0.4287,-0.5045,-0.5863,-0.6861,-0.7333,-0.7672,-0.7814,-0.7917,-0.7988,-0.7992,-0.8153,-0.8228,-0.8337,-0.8533,-0.8669,-0.8723,-0.8821,-0.8885,-0.8888,-0.8984,-0.8977,-0.9217,-1.1763,-1.294,-1.3668,-1.63,-1.7775,-1.8524,-1.8731,-1.8759,-1.8765,-1.9249,-1.9207,-1.8956,-1.8818,-1.8989,-1.9305,-1.9497,-1.825,-1.663,-1.5399,-1.5524,-1.6426,-1.8222,-1.9409,-2.072,-2.2534,-2.2928,-2.1878,-1.8653,-1.7599,-1.6545,-1.4712,-1.2854,-1.2218,-1.3623,-1.271,-1.205,-1.2267,-1.342,-1.4703,-1.604,-1.4927,-1.4239,-1.4366,-1.3105,-1.2396,-1.2498,-1.2501,-1.2501,-1.2501,-1.2501,-1.2501,-1.2501,-1.2501,-1.2501,-1.2501,-1.2501,-1.2501,0.5292,0.6041,0.6431,0.5683,0.4402,0.3104,0.0,0.1034,0.0,-0.0028,-0.0028,-0.0028,-0.0028,-0.0028,0.0,0.0,0.0,0.0,0.0,0.0,0.0,0.0,0.0,0.0,0.0,0.0,0.0,0.0,0.0,0.0,0.0,0.0,-0.0584,-0.179,-0.4154,-0.546,-0.5621,-0.6957,-0.7672,-0.7814,-0.7917,-0.7988,-0.7988,-0.7992,-0.8126,-0.833,-0.8421,-0.857,-0.8723,-0.8821,-0.8885,-0.8898,-0.9096,-0.9062,-0.912,-1.0695,-1.2133,-1.348,-1.4936,-1.6767,-1.849,-1.8497,-1.7831,-1.7325,-1.8946,-1.8286,-1.6778,-1.5683,-1.5633,-1.5978,-1.5978,-1.4684,-1.3325,-1.332,-1.4619,-1.61,-1.6681,-1.9542,-2.2158,-2.2746,-2.2928,-2.2297,-2.0403,-1.8444,-1.6545,-1.4712,-1.2948,-1.183,-1.183,-1.2098,-1.2288,-1.2291,-1.2413,-1.2494,-1.2572,-1.2572,-1.2498,-1.2498,-1.2498,-1.2501,-1.2501,-1.2501,-1.2501,-1.2501,-1.2501,-1.2501,-1.2501,-1.2501,-1.2501,-1.2501,-1.2501,-1.2501,0.4676,0.5642,0.6308,0.5062,0.3641,0.2232,0.0971,-0.0446,-0.1507,-0.1507,-0.1507,-0.1507,-0.1507,-0.1507,-0.1575,-0.182,0.0,0.0,0.0,0.0,0.0,0.0,0.0,0.0,0.0,0.0,0.0,0.0,0.0,0.0,0.0,0.0,-0.0575,-0.1745,-0.335,-0.4567,-0.5457,-0.6864,-0.7624,-0.7672,-0.787,-0.7988,-0.7988,-0.7988,-0.8015,-0.8123,-0.8272,-0.8421,-0.8567,-0.872,-0.8845,-0.8888,-0.8988,-0.8977,-0.9106,-1.0622,-1.1426,-1.2132,-1.4556,-1.609,-1.716,-1.8144,-1.7831,-1.6909,-1.6321,-1.579,-1.5347,-1.5314,-1.557,-1.5654,-1.4428,-1.4619,-1.4749,-1.3582,-1.4619,-1.6361,-1.8222,-1.9409,-2.0726,-2.2534,-2.2928,-2.2297,-2.0409,-1.8514,-1.6545,-1.4712,-1.2948,-1.187,-1.1976,-1.2166,-1.2328,-1.2423,-1.2474,-1.2501,-1.2501,-1.2501,-1.2501,-1.2501,-1.2501,-1.2501,-1.2501,-1.2501,-1.2501,-1.2501,-1.2501,-1.2501,-1.2501,-1.2501,-1.2501,-1.2501,-1.2501,-1.2501,0.0,0.4457,0.5058,0.3857,0.2471,0.1043,-0.0139,-0.1335,-0.2202,-0.2202,-0.2202,-0.2202,-0.2202,-0.1981,-0.1851,-0.2055,0.0,0.0,0.0,0.0,0.0,0.0,0.0,0.0,0.0,0.0353,0.0432,0.0039,0.0,0.0,0.0,0.0,-0.0354,-0.1075,-0.2281,-0.3482,-0.4688,-0.6184,-0.7167,-0.7604,-0.785,-0.7988,-0.7988,-0.7988,-0.7988,-0.7998,-0.8204,-0.835,0.0,-0.8648,-0.8801,-0.8885,-0.8885,-0.8885,-0.8992,-0.9915,-1.0621,-1.1378,-1.3156,-1.4872,-1.6472,-1.739,-1.7363,-1.6492,-1.3646,-1.2802,-1.293,-1.3301,-1.3616,-1.3747,-1.3369,-1.4101,-1.4814,-1.4362,-1.5719,-1.7522,-1.9049,-2.0033,-2.0778,-2.1652,-2.1809,-2.1245,-1.9356,-1.7388,-1.5797,-1.4672,-1.3046,-1.1976,-1.2128,-1.2277,-1.2403,-1.2491,-1.2501,-1.2501,-1.2501,-1.2501,-1.2501,-1.2501,-1.2501,-1.2501,-1.2501,-1.2501,-1.2501,-1.2501,-1.2501,-1.2501,-1.2501,-1.2501,-1.2501,-1.2501,-1.2501,-1.2501,0.0,0.2376,0.2889,0.2138,0.0905,-0.0357,-0.1108,-0.1835,0.0,-0.2371,-0.2371,-0.2371,-0.2378,-0.1817,-0.1344,-0.1297,0.0,0.0,0.0,0.0,0.0,0.0,0.0,0.0,0.0196,0.102,0.1138,0.0079,0.0,0.0,0.0,0.0,0.0,0.0,-0.1076,-0.2236,-0.3481,-0.5018,-0.6355,-0.7459,-0.785,-0.7988,-0.7988,-0.7988,-0.7988,-0.7998,-0.8194,-0.834,-0.8492,-0.8635,-0.8791,-0.8885,-0.8885,-0.8885,-0.8885,-0.8885,-0.9754,-1.0945,-1.1051,-1.3211,-1.5939,-1.5974,-1.6379,-1.5956,-1.1253,-0.9988,-1.0204,-1.0299,-1.0382,-1.0911,-1.282,-1.339,-1.3905,-1.5654,-1.7657,-1.9233,-1.9561,-2.0977,-2.1816,-2.0356,-1.9987,-1.9286,-1.7534,-1.5632,-1.4496,-1.469,-1.3207,-1.2118,-1.2271,-1.2413,-1.2501,-1.2501,-1.2501,-1.2501,-1.2501,-1.2501,-1.2501,-1.2501,-1.2501,-1.2501,-1.2501,-1.2501,-1.2501,-1.2501,-1.2501,-1.2501,-1.2501,-1.2501,-1.2501,-1.2501,-1.2501,-1.2501,-0.2893,0.0,0.0605,-0.0138,-0.1021,-0.1879,0.0,-0.3425,0.0,0.0,0.0,0.0,0.0,0.0,0.0,0.0,0.0,0.0,0.0,0.0,0.0,0.0,0.145,0.1489,0.1254,0.145,0.1145,0.0081,0.0,0.0,0.0,0.0,0.0,0.0,-0.0269,-0.0986,-0.2191,-0.4602,-0.5926,-0.6217,-0.7449,-0.7988,-0.7988,-0.7988,-0.7988,-0.7992,-0.8029,-0.8241,-0.8486,-0.852,-0.8696,-0.8885,-0.8885,-0.8885,-0.8885,-0.8885,-0.9099,-0.9588,-1.0731,-1.1747,-1.2665,-1.2919,-1.4015,-1.448,-1.0899,-1.0775,-1.1619,-1.0612,-1.0382,-1.0911,-1.282,-1.4293,-1.5724,-1.7468,-1.9493,-2.1026,-2.1312,-2.0776,-2.0229,-2.0148,-1.8932,-1.7744,-1.7253,-1.5632,-1.4496,-1.469,-1.3207,-1.2118,-1.2271,-1.2413,-1.2501,-1.2501,-1.2501,-1.2501,-1.2501,-1.2501,-1.2501,-1.2501,-1.2501,-1.2501,-1.2501,-1.2501,-1.2501,-1.2501,-1.2501,-1.2501,-1.2501,-1.2501,-1.2501,-1.2501,-1.2501,-1.2501,-0.4816,-0.3504,-0.2124,-0.2514,-0.3179,-0.3737,-0.3868,0.0,0.0,0.0,0.0,0.0,0.0,0.0,0.0,0.0,0.0,0.0,0.0,0.0,0.0,0.0,0.1607,0.1607,0.1607,0.1607,0.1143,0.008,0.0,0.0,0.0,0.0,0.0,0.0,0.0,-0.0584,-0.179,-0.3871,-0.5169,-0.5832,-0.7237,-0.7921,-0.7988,-0.7988,-0.7988,-0.7988,-0.7988,-0.817,-0.8391,-0.8455,-0.8621,-0.8842,-0.8854,-0.8885,-0.8885,-0.8885,-0.8885,-0.8992,-0.9805,-1.0791,-1.1671,-1.1899,-1.2708,-1.3053,-1.0539,-1.0483,-1.1087,-1.0468,-1.0902,-1.2034,-1.396,-1.5784,-1.7532,-1.9285,-2.0773,-2.1797,-2.1951,-2.1501,-2.0654,-1.905,-1.7954,-1.662,-1.4933,-1.3869,-1.3264,-1.3517,-1.2731,-1.222,-1.2369,-1.2454,-1.2501,-1.2501,-1.2501,-1.2501,-1.2501,-1.2501,-1.2501,-1.2501,-1.2501,-1.2501,-1.2501,-1.2501,-1.2501,-1.2501,-1.2501,-1.2501,-1.2501,-1.2501,-1.2501,-1.2501,-1.2501,-1.2501,-0.546,-0.5039,-0.4535,-0.4429,-0.4878,-0.5191,0.0,0.0,0.0,0.0,0.0,0.0,0.0,0.0,0.0,0.0,0.0,0.0,0.0,0.0,0.0,0.1683,0.1685,0.0,0.1607,0.1607,0.1139,0.0079,0.0,0.0,0.0,0.0,0.0,0.0,0.0,-0.0494,-0.1522,-0.2874,-0.4087,-0.524,-0.6789,-0.755,-0.7671,-0.7895,-0.7855,-0.7654,-0.7879,-0.7975,-0.8019,-0.8369,-0.857,-0.8726,-0.8824,-0.8885,-0.8885,-0.8885,-0.8885,-0.8885,-0.8885,-1.019,-1.1808,-1.167,-1.1862,-1.1916,-1.0301,-0.9822,-0.9883,-1.0195,-1.1344,-1.3049,-1.5287,-1.7017,-1.8634,-2.0589,-2.1557,-2.1984,-2.1984,-2.2243,-2.1459,-1.7884,-1.6972,-1.5703,-1.2183,-1.1738,-1.1884,-1.204,-1.2193,-1.2342,-1.2484,-1.2501,-1.2501,-1.2501,-1.2501,-1.2501,-1.2501,-1.2501,-1.2501,-1.2501,-1.2501,-1.2501,-1.2501,-1.2501,-1.2501,-1.2501,-1.2501,-1.2501,-1.2501,-1.2501,-1.2501,-1.2501,-1.2501,-1.2501,-0.5351,-0.5429,-0.5183,-0.4618,-0.4567,-0.4625,0.0,0.0,0.0,0.0,0.0,0.0,0.0,0.0,0.0,0.0,0.0,0.0,0.0,0.0,0.0728,0.265,0.0,0.1607,0.1607,0.1607,0.1147,0.0081,0.0,0.0,0.0,0.0,0.0,0.0,0.0,-0.009,-0.0269,-0.1601,-0.2358,-0.2597,-0.4955,-0.6105,-0.6174,-0.7298,-0.7207,-0.6184,-0.7434,-0.7462,-0.6716,-0.7998,-0.857,-0.8726,-0.8824,-0.8885,-0.8885,-0.8885,-0.8885,-0.8885,-0.8885,-1.019,-1.1561,-1.0269,-1.0886,-1.1916,-1.0301,-0.9822,-0.9883,-1.0195,-1.0467,-1.1479,-1.4964,-1.6113,-1.7082,-2.0329,-2.1557,-2.1984,-2.1984,-2.1205,-1.9843,-1.7604,-1.591,-1.4152,-1.1972,-1.1738,-1.1884,-1.204,-1.2193,-1.2342,-1.2484,-1.2501,-1.2501,-1.2501,-1.2501,-1.2501,-1.2501,-1.2501,-1.2501,-1.2501,-1.2501,-1.2501,-1.2501,-1.2501,-1.2501,-1.2501,-1.2501,-1.2501,-1.2501,-1.2501,-1.2501,-1.2501,-1.2501,-1.2501,-0.3751,-0.3721,-0.3638,-0.3342,-0.4143,-0.4948,0.0,0.0,0.0,0.0,0.0,0.0,0.0,0.0,0.0,0.0,0.0,0.1032,0.1514,0.163,0.2239,0.0,0.3047,0.262,0.3205,0.2737,0.1965,0.0956,0.0877,0.0605,0.0041,0.0,0.0,0.0,0.0,0.0,0.0,-0.0589,-0.1281,-0.2032,-0.3859,-0.4739,-0.4843,-0.547,-0.5421,-0.4842,-0.5527,-0.5952,-0.6217,-0.7073,-0.7883,-0.8611,-0.8794,-0.8885,-0.8885,-0.8885,-0.8885,-0.8885,-0.8885,-0.9578,-1.0355,-0.9668,-1.0107,-1.0781,-1.0001,-0.9822,-1.0066,-1.1372,-1.2402,-1.355,-1.5416,-1.7275,-1.9088,-2.0716,-2.1557,-2.1984,-2.1984,-2.1002,-1.9495,-1.7604,-1.5703,-1.3829,-1.2004,-1.1857,-1.201,-1.2162,-1.2311,-1.2427,-1.2491,-1.2501,-1.2501,-1.2501,-1.2501,-1.2501,-1.2501,-1.2501,-1.2501,-1.2501,-1.2501,-1.2501,-1.2501,-1.2501,-1.2501,-1.2501,-1.2501,-1.2501,-1.2501,-1.2501,-1.2501,-1.2501,-1.2501,-1.2501,-0.2393,-0.219,-0.2208,-0.2199,0.0,0.0,-0.4346,0.0,0.0,0.0,0.0,0.0,0.0,0.0,0.0,0.0,0.1355,0.2017,0.2293,0.2771,0.3515,0.4569,0.3748,0.3435,0.4256,0.3591,0.2773,0.1996,0.1723,0.1225,0.0403,0.0124,0.0,0.0,0.0,0.0,0.0,0.0,-0.0498,-0.156,-0.2746,-0.3367,-0.3515,-0.3794,-0.3788,-0.3502,-0.3829,-0.4418,-0.514,-0.6113,-0.7103,-0.8085,-0.8654,-0.8885,-0.8885,-0.8885,-0.8885,-0.8885,-0.8885,-0.9133,-0.9381,-0.9381,-0.9581,-0.9822,-0.9822,-0.9822,-1.0246,-1.2299,-1.4145,-1.5675,-1.6316,-1.8506,-2.0519,-2.0519,-2.0961,-2.1245,-2.0835,-2.0033,-1.8863,-1.6896,-1.5345,-1.3853,-1.2091,-1.1959,-1.2115,-1.2267,-1.241,-1.2501,-1.2501,-1.2501,-1.2501,-1.2501,-1.2501,-1.2501,-1.2501,-1.2501,-1.2518,-1.2552,-1.2522,-1.2518,-1.2556,-1.2522,-1.2501,-1.2501,-1.2501,-1.2501,-1.2501,-1.2501,-1.2501,-1.2501,-1.2501,-1.2501,-0.2404,-0.2206,-0.2197,-0.2213,0.0,0.0,-0.34,0.0,0.0,0.0,0.0,0.0,0.0,0.0,0.0,0.0,0.2748,0.3185,0.4316,0.0,0.3515,0.4569,0.3748,0.3124,0.3202,0.3163,0.3085,0.3007,0.2113,0.1568,0.1493,0.0523,0.0,0.0,0.0,0.0,0.0,0.0,-0.0045,-0.018,-0.1347,-0.193,-0.198,-0.3227,-0.3141,-0.2054,-0.3412,-0.3366,-0.2521,-0.5328,-0.6571,-0.6809,-0.8323,-0.8885,-0.8885,-0.8885,-0.8885,-0.8885,-0.8885,-0.9133,-0.9381,-0.9381,-0.9581,-0.9822,-0.9822,-0.9822,-1.0246,-1.2299,-1.4145,-1.593,-1.7798,-1.8506,-1.8704,-1.8704,-1.9042,-1.8948,-1.7327,-1.7215,-1.6826,-1.4995,-1.4503,-1.3853,-1.2091,-1.1959,-1.2115,-1.2267,-1.241,-1.2501,-1.2501,-1.2501,-1.2501,-1.2501,-1.2501,-1.2501,-1.2501,-1.2501,-1.2562,-1.2705,-1.2579,-1.2566,-1.2708,-1.2576,-1.2501,-1.2501,-1.2501,-1.2501,-1.2501,-1.2501,-1.2501,-1.2501,-1.2501,-1.2501,-0.1159,-0.0831,-0.0825,-0.0837,0.0,0.0,0.0,0.0,0.0,0.0,0.0,0.0,0.0,0.0,0.0,0.35,0.3743,0.406,0.45,0.4884,0.5237,0.5628,0.5354,0.5079,0.5079,0.5079,0.4805,0.4139,0.3125,0.2268,0.1646,0.0602,0.0,0.0,0.0,0.0,0.0,0.0,0.0,0.0,-0.0449,-0.0673,-0.0719,-0.1215,-0.1142,-0.0716,-0.1288,-0.1711,-0.2119,-0.3295,-0.4878,-0.6648,-0.8266,-0.8885,-0.8885,-0.8885,-0.8885,-0.8885,-0.8885,-0.9133,-0.9381,-0.9381,-0.9581,-0.9822,-0.9822,-0.9822,-1.0246,-1.2299,-1.4145,-1.5992,-1.7989,-1.9285,-1.9871,-1.8768,-1.884,-1.8747,-1.699,-1.5967,-1.5278,-1.4574,-1.3448,-1.2547,-1.2079,-1.2023,-1.2145,-1.2386,-1.2467,-1.2501,-1.2501,-1.2501,-1.2501,-1.2501,-1.2586,-1.2644,-1.2644,-1.2732,-1.2851,-1.2996,-1.2688,-1.2569,-1.2722,-1.2583,-1.2501,-1.2501,-1.2501,-1.2501,-1.2501,-1.2501,-1.2501,-1.2501,-1.2501,-1.2501,-0.0345,0.0,0.0,0.0,0.0,0.0,0.0,0.0,0.0,0.0,0.0,0.0,0.0,0.0,0.0,0.0,0.471,0.4892,0.4947,0.5695,0.6245,0.6293,0.63,0.63,0.63,0.63,0.5983,0.5273,0.4217,0.332,0.2621,0.1551,0.0846,0.0528,0.0506,0.0345,0.0,0.0,0.0,0.0,0.0,0.0,0.0,0.0,0.0,0.0,0.0,-0.0504,-0.1415,-0.1991,-0.39,-0.67,-0.8304,-0.8885,-0.8885,-0.8885,-0.8885,-0.8885,-0.8885,-0.9133,-0.9381,-0.9381,-0.9581,-0.9822,-0.9822,-0.9822,-1.0246,-1.2299,-1.3774,-1.5112,-1.7154,-1.9349,-2.0545,-1.8284,-1.8032,-1.7685,-1.5451,-1.4212,-1.3519,-1.3519,-1.2463,-1.1714,-1.201,-1.2135,-1.2162,-1.2457,-1.2501,-1.2501,-1.2501,-1.2501,-1.2522,-1.2569,-1.2667,-1.2749,-1.28,-1.2901,-1.302,-1.3163,-1.2796,-1.2644,-1.2796,-1.261,-1.2501,-1.2501,-1.2501,-1.2501,-1.2501,-1.2501,-1.2501,-1.2501,-1.2501,-1.2501,-0.0211,0.0,0.0,0.0,0.0,0.0,0.0,0.0,0.0,0.0,0.0,0.0,0.0,0.0,0.0,0.5562,0.5589,0.5691,0.5946,0.599,0.6084,0.6276,0.6296,0.6296,0.6296,0.63,0.63,0.63,0.5315,0.4688,0.4688,0.3671,0.2647,0.1663,0.1616,0.1103,0.0044,0.0,0.0,0.0,0.0,0.0,0.0,0.0,0.0,0.0,0.0,0.0,-0.0101,-0.1625,-0.401,-0.6869,-0.8322,-0.8885,-0.8885,-0.8885,-0.8885,-0.8885,-0.8885,-0.9133,-0.9381,-0.9381,-0.9581,-0.9822,-0.9822,-0.9822,-1.0246,-1.2299,-1.2901,-1.3361,-1.5351,-1.8442,-2.0202,-1.686,-1.6218,-1.5482,-1.212,-1.1511,-1.1619,-1.1619,-1.1619,-1.1714,-1.201,-1.2135,-1.2162,-1.2457,-1.2501,-1.2501,-1.2501,-1.2501,-1.2559,-1.2715,-1.2732,-1.2796,-1.2949,-1.2966,-1.3024,-1.3166,-1.2895,-1.28,-1.2956,-1.2667,-1.2501,-1.2501,-1.2501,-1.2501,-1.2501,-1.2501,-1.2501,-1.2501,-1.2501,-1.2501,-0.0198,0.0377,0.0,0.0,0.0,0.0,0.0,0.0,0.0,0.0,0.0,0.0,0.0,0.0,0.0,0.5453,0.5552,0.562,0.5708,0.5806,0.5884,0.5932,0.6034,0.6098,0.6098,0.6235,0.63,0.63,0.5315,0.4688,0.4688,0.3671,0.2978,0.2646,0.1983,0.145,0.1144,0.0391,0.0,0.0,0.0,0.0,0.0,0.0,0.0,0.0,0.0,0.0,-0.0203,-0.2774,-0.4982,-0.6869,-0.8322,-0.8885,-0.8885,-0.8885,-0.8885,-0.8885,-0.8885,-0.9133,-0.9381,-0.9381,-0.9581,-0.9822,-0.9822,-0.9822,-1.0005,-1.0814,-1.1964,-1.3113,-1.3873,-1.5719,-1.6882,-1.475,-1.4414,-1.3993,-1.1843,-1.1511,-1.1619,-1.1619,-1.1619,-1.1714,-1.201,-1.2135,-1.2162,-1.2457,-1.2501,-1.2501,-1.2501,-1.2501,-1.2559,-1.2715,-1.2827,-1.2952,-1.3098,-1.321,-1.3288,-1.3332,-1.3054,-1.2912,-1.3039,-1.2667,-1.2501,-1.2501,-1.2501,-1.2501,-1.2501,-1.2501,-1.2501,-1.2501,-1.2501,-1.2501,0.0249,0.0,0.0,0.0,0.0,0.0,0.0,0.0,0.0,0.0,0.0,0.0,0.3792,0.4662,0.0,0.5395,0.5474,0.5552,0.5583,0.5664,0.5739,0.5793,0.5881,0.5925,0.5986,0.6115,0.6196,0.6293,0.5709,0.5354,0.5354,0.4727,0.4178,0.3748,0.2721,0.2,0.1614,0.0556,0.0,0.0,0.0,0.0,0.0,0.0,0.0,0.0,0.0,-0.0356,-0.1084,-0.3473,-0.5362,-0.6869,-0.8322,-0.8885,-0.8885,-0.8885,-0.8885,-0.8885,-0.8885,-0.9093,-0.93,-0.9361,-0.9544,-0.9747,-0.9802,-0.9822,-0.9883,-1.0195,-1.1031,-1.192,-1.2196,-1.3062,-1.3761,-1.3561,-1.3675,-1.3384,-1.1773,-1.1511,-1.1619,-1.1619,-1.1619,-1.1714,-1.201,-1.2135,-1.2162,-1.2457,-1.2501,-1.2501,-1.2501,-1.2501,-1.2559,-1.2715,-1.2868,-1.302,-1.3159,-1.3312,-1.34,-1.34,-1.3125,-1.2963,-1.2963,-1.2667,-1.2501,-1.2501,-1.2501,-1.2501,-1.2501,-1.2501,-1.2501,-1.2501,-1.2501,-1.2501,0.0,0.0,0.0,0.0,0.0,0.0,0.0,0.0,0.0,0.0,0.0,0.0,0.3906,0.4711,0.5378,0.5392,0.5395,0.5443,0.5549,0.5569,0.5616,0.5745,0.5772,0.5837,0.5939,0.5963,0.6067,0.6245,0.6255,0.6265,0.6279,0.6279,0.5851,0.4882,0.3788,0.2788,0.1908,0.072,0.013,0.0131,0.0044,0.0,0.0,0.0,0.0,0.0,0.0,-0.0823,-0.2333,-0.3872,-0.5355,-0.6853,-0.8318,-0.8885,-0.8885,-0.8885,-0.8885,-0.8885,-0.8885,-0.9032,-0.9234,-0.9334,-0.9486,-0.9635,-0.9778,-0.9822,-0.9883,-1.0195,-1.028,-1.0348,-1.0643,-1.0721,-1.1147,-1.2814,-1.3396,-1.3178,-1.1703,-1.1511,-1.1619,-1.1619,-1.1619,-1.1714,-1.201,-1.2135,-1.2162,-1.2457,-1.2501,-1.2501,-1.2501,-1.2501,-1.2559,-1.2715,-1.2868,-1.302,-1.3159,-1.3312,-1.3397,-1.338,-1.3115,-1.2956,-1.2939,-1.2657,-1.2501,-1.2501,-1.2501,-1.2501,-1.2501,-1.2501,-1.2501,-1.2501,-1.2501,-1.2501,0.0,0.0,0.0,0.0,0.0,0.0,0.0,0.0,0.0,0.0,0.0,0.4545,0.4657,0.4923,0.522,0.5375,0.5395,0.5405,0.544,0.5443,0.5453,0.5487,0.5562,0.5647,0.5681,0.5786,0.5864,0.5898,0.5901,0.5952,0.6071,0.6078,0.6018,0.5941,0.4909,0.4249,0.4048,0.2171,0.1258,0.1258,0.0393,0.0,0.0,0.0,0.0,0.0,0.0,-0.0817,-0.2344,-0.3851,-0.5371,-0.685,-0.8336,-0.8885,-0.8885,-0.8885,-0.8885,-0.8885,-0.8885,-0.9032,-0.9234,-0.9334,-0.9486,-0.9635,-0.9778,-0.9822,-0.9883,-1.0195,-1.028,-1.0348,-1.0643,-1.0721,-1.0794,-1.122,-1.1571,-1.1684,-1.1425,-1.1511,-1.1619,-1.1619,-1.1619,-1.1714,-1.201,-1.2135,-1.2162,-1.2457,-1.2501,-1.2501,-1.2501,-1.2501,-1.2559,-1.2715,-1.2868,-1.302,-1.3159,-1.3312,-1.3349,-1.3227,-1.3057,-1.2905,-1.2786,-1.26,-1.2501,-1.2501,-1.2501,-1.2501,-1.2501,-1.2501,-1.2501,-1.2501,-1.2501,-1.2501,0.0,0.0,0.0,0.0,0.0,0.0,0.0,0.0,0.0,0.0,0.4833,0.4714,0.4796,0.4897,0.5046,0.5226,0.525,0.5277,0.5385,0.5395,0.5395,0.5395,0.5467,0.5542,0.5583,0.5657,0.5728,0.5796,0.58,0.5867,0.5983,0.5993,0.6101,0.6293,0.5276,0.444,0.3937,0.2379,0.1322,0.0812,0.026,0.0,0.0,0.0,0.0,0.0,0.0,-0.0815,-0.2278,-0.3081,-0.431,-0.5775,-0.7256,-0.7874,-0.7931,-0.8657,-0.8885,-0.8885,-0.8885,-0.8988,-0.9072,-0.9222,-0.9374,-0.9527,-0.9676,-0.9768,-0.9883,-1.0195,-1.028,-1.0348,-1.0643,-1.0721,-1.0721,-1.0721,-1.0948,-1.1255,-1.1263,-1.146,-1.1619,-1.1619,-1.1619,-1.1691,-1.1911,-1.2074,-1.2247,-1.2467,-1.2501,-1.2501,-1.2501,-1.2501,-1.2532,-1.2613,-1.2823,-1.299,-1.3064,-1.3275,-1.3366,-1.3288,-1.3081,-1.2925,-1.2844,-1.262,-1.2501,-1.2501,-1.2501,-1.2501,-1.2501,-1.2501,-1.2501,-1.2501,-1.2501,-1.2501,0.0,0.0,0.0,0.0,0.0,0.0,0.0,0.0,0.0,0.0,0.5061,0.466,0.4684,0.4796,0.4894,0.5039,0.5083,0.5143,0.5337,0.5378,0.5395,0.5395,0.5395,0.5443,0.5538,0.5552,0.5599,0.5718,0.5725,0.5803,0.5942,0.5952,0.6071,0.6293,0.5431,0.4569,0.3669,0.2443,0.1396,0.0547,0.0173,0.0,0.0,0.0,0.0,0.0,0.0,-0.0713,-0.1855,-0.2119,-0.2952,-0.4231,-0.5764,-0.6491,-0.6869,-0.8045,-0.866,-0.8885,-0.8885,-0.8885,-0.8905,-0.9163,-0.9313,-0.9408,-0.9564,-0.9707,-0.988,-1.0161,-1.0259,-1.0341,-1.0612,-1.07,-1.0721,-1.0721,-1.0948,-1.1231,-1.1231,-1.1402,-1.1619,-1.1619,-1.164,-1.1701,-1.1847,-1.2104,-1.2338,-1.2481,-1.2501,-1.2501,-1.2501,-1.2501,-1.2501,-1.2501,-1.2756,-1.2932,-1.3039,-1.3207,-1.3363,-1.3363,-1.3108,-1.2949,-1.2922,-1.2651,-1.2501,-1.2501,-1.2501,-1.2501,-1.2501,-1.2501,-1.2501,-1.2501,-1.2501,-1.2501,0.0,0.0,0.0,0.0,0.0,0.0,0.0,0.0,0.0,0.0,0.4994,0.4559,0.4667,0.4707,0.4772,0.4891,0.5019,0.5106,0.5127,0.5277,0.5395,0.5395,0.5395,0.5402,0.5423,0.5426,0.5433,0.5453,0.5453,0.5576,0.5817,0.583,0.5962,0.6289,0.6141,0.6025,0.5867,0.3878,0.2826,0.2683,0.0876,0.0,0.0,0.0,0.0,0.0,0.0,-0.0101,-0.0406,-0.1698,-0.2304,-0.267,-0.417,-0.5558,-0.6702,-0.6924,-0.7817,-0.8885,-0.8885,-0.8885,-0.8905,-0.9163,-0.9313,-0.9408,-0.9564,-0.9707,-0.9859,-0.997,-1.0178,-1.0317,-1.048,-1.0619,-1.0721,-1.0721,-1.0948,-1.1231,-1.1231,-1.1402,-1.1619,-1.1619,-1.1718,-1.185,-1.2006,-1.2176,-1.2338,-1.2481,-1.2501,-1.2501,-1.2501,-1.2501,-1.2501,-1.2501,-1.2657,-1.2817,-1.2949,-1.3108,-1.3203,-1.3203,-1.3051,-1.2901,-1.2766,-1.2593,-1.2501,-1.2501,-1.2501,-1.2501,-1.2501,-1.2501,-1.2501,-1.2501,-1.2501,-1.2501,0.0,0.0,0.0,0.0,0.0,0.0,0.0,0.0,0.0,0.5351,0.4976,0.4511,0.458,0.459,0.4641,0.4765,0.4843,0.4914,0.4968,0.5138,0.5233,0.5233,0.5341,0.5395,0.5395,0.5395,0.5395,0.5395,0.5395,0.5487,0.5671,0.5684,0.582,0.6122,0.6132,0.5899,0.5392,0.3866,0.2507,0.1344,0.044,0.0,0.0,0.0,0.0,0.0,0.0,0.0,-0.0051,-0.0713,-0.0986,-0.1119,-0.2626,-0.4148,-0.5586,-0.6422,-0.7651,-0.8885,-0.8885,-0.8885,-0.8895,-0.9011,-0.9191,-0.9395,-0.9462,-0.9639,-0.9852,-0.9943,-1.0161,-1.0314,-1.0456,-1.0605,-1.0721,-1.0721,-1.0948,-1.1231,-1.1231,-1.1402,-1.1619,-1.1619,-1.167,-1.1786,-1.202,-1.2118,-1.224,-1.2467,-1.2501,-1.2501,-1.2501,-1.2501,-1.2501,-1.2501,-1.2718,-1.2888,-1.2956,-1.3169,-1.3302,-1.3302,-1.3088,-1.2932,-1.2861,-1.263,-1.2501,-1.2501,-1.2501,-1.2501,-1.2501,-1.2501,-1.2501,-1.2501,-1.2501,-1.2501,0.0,0.0,0.0,0.0,0.0,0.0,0.0,0.0,0.5171,0.0,0.5386,0.5034,0.5034,0.4736,0.4528,0.4641,0.4667,0.4731,0.4847,0.4955,0.5059,0.5096,0.5233,0.5351,0.5392,0.5395,0.5395,0.5395,0.5395,0.5463,0.5583,0.5589,0.5725,0.5983,0.5993,0.572,0.5118,0.3754,0.2194,0.0424,0.0132,0.0,0.0,0.0,0.0,0.0,0.0,0.0,0.0,0.0,0.0,-0.0107,-0.1224,-0.2551,-0.4078,-0.5584,-0.7093,-0.838,-0.8771,-0.8885,-0.8885,-0.8885,-0.914,-0.9381,-0.9381,-0.9588,-0.9846,-0.9899,-1.0131,-1.0304,-1.0412,-1.0578,-1.0721,-1.0721,-1.0948,-1.1255,-1.1263,-1.1457,-1.1619,-1.1619,-1.1619,-1.1714,-1.201,-1.2135,-1.2162,-1.2457,-1.2501,-1.2501,-1.2501,-1.2501,-1.2501,-1.2501,-1.2742,-1.2918,-1.3039,-1.3197,-1.3359,-1.34,-1.3125,-1.2963,-1.2963,-1.2667,-1.2501,-1.2501,-1.2501,-1.2501,-1.2501,-1.2501,-1.2501,-1.2501,-1.2501,-1.2501,0.0,0.0,0.0,0.0,0.0,0.0,0.0,0.0,0.0,0.6534,0.6507,0.648,0.648,0.5391,0.4491,0.4501,0.4624,0.4694,0.4701,0.4833,0.4951,0.5083,0.5106,0.5199,0.5382,0.5395,0.5395,0.5395,0.5395,0.5463,0.5583,0.5589,0.5725,0.5983,0.5993,0.6067,0.6219,0.4164,0.2577,0.1515,0.0488,0.0,0.0,0.0,0.0,0.0,0.0,0.0,0.0,0.0,0.0,0.0,-0.0107,-0.1033,-0.2515,-0.4024,-0.553,-0.7035,-0.8432,-0.8885,-0.8885,-0.8885,-0.914,-0.9381,-0.9381,-0.9588,-0.9822,-0.9829,-1.0049,-1.0283,-1.029,-1.0507,-1.0721,-1.0721,-1.0948,-1.1243,-1.1535,-1.1609,-1.1619,-1.1619,-1.1619,-1.1714,-1.201,-1.2135,-1.2162,-1.2457,-1.2501,-1.2501,-1.2501,-1.2501,-1.2501,-1.2501,-1.2647,-1.28,-1.2949,-1.3098,-1.3247,-1.3393,-1.3125,-1.2963,-1.2963,-1.2667,-1.2501,-1.2501,-1.2501,-1.2501,-1.2501,-1.2501,-1.2501,-1.2501,-1.2501,-1.2501,0.0,0.0,0.0,0.0,0.0,0.0,0.0,0.6939,0.6588,0.6588,0.6588,0.6588,0.6588,0.6182,0.5855,0.5855,0.5885,0.593,0.593,0.607,0.6058,0.5731,0.5751,0.5694,0.5411,0.5395,0.5395,0.5395,0.5395,0.5419,0.5474,0.5477,0.5579,0.5874,0.5884,0.5662,0.5273,0.3846,0.2607,0.157,0.0529,0.0,0.0,0.0,0.0,0.0,0.0,0.0,0.0,0.0,0.0,0.0,0.0,-0.0924,-0.2403,-0.3911,-0.5419,-0.6924,-0.838,-0.8885,-0.8885,-0.8885,-0.914,-0.9381,-0.9381,-0.9588,-0.9842,-0.9879,-1.012,-1.03,-1.0392,-1.0568,-1.0768,-1.0958,-1.1084,-1.1246,-1.1552,-1.1619,-1.1619,-1.1619,-1.1619,-1.1714,-1.201,-1.2135,-1.2132,-1.2335,-1.2444,-1.2467,-1.2379,-1.2444,-1.2501,-1.2501,-1.2729,-1.2901,-1.2956,-1.318,-1.3342,-1.3397,-1.3125,-1.2963,-1.2963,-1.2667,-1.2501,-1.2501,-1.2501,-1.2501,-1.2501,-1.2501,-1.2501,-1.2501,-1.2501,-1.2501,0.5353,0.0,0.0,0.0,0.0,0.0,0.0,0.0,0.7262,0.702,0.7155,0.7343,0.7343,0.7343,0.7182,0.6669,0.6588,0.6588,0.6588,0.6709,0.6573,0.5994,0.6055,0.5927,0.5365,0.5365,0.5395,0.5395,0.5395,0.5395,0.5395,0.5395,0.5532,0.5793,0.5901,0.5748,0.5234,0.3816,0.2784,0.2095,0.0654,0.0,0.0,0.0,0.0,0.0,0.0,0.0,0.0,0.0,0.0,0.0,0.0,-0.0599,-0.1733,-0.3744,-0.5139,-0.6255,-0.8211,-0.8885,-0.8885,-0.8885,-0.914,-0.9381,-0.9381,-0.9588,-0.9852,-0.9943,-1.0161,-1.0314,-1.0456,-1.0605,-1.0795,-1.109,-1.1231,-1.1246,-1.1552,-1.1619,-1.1619,-1.1619,-1.1619,-1.1714,-1.201,-1.2135,-1.2132,-1.2332,-1.244,-1.2467,-1.2372,-1.2444,-1.2501,-1.2501,-1.2776,-1.2963,-1.2963,-1.323,-1.34,-1.34,-1.3125,-1.2963,-1.2963,-1.2667,-1.2501,-1.2501,-1.2501,-1.2501,-1.2501,-1.2501,-1.2501,-1.2501,-1.2501,-1.2501,0.0,0.0,0.0,0.0,0.0,0.0,0.7817,0.0,0.8613,0.7883,0.8315,0.8831,0.8804,0.8804,0.8321,0.6885,0.6669,0.6669,0.6669,0.6669,0.6449,0.5894,0.594,0.5788,0.5146,0.527,0.5395,0.5395,0.5395,0.5395,0.5395,0.5402,0.5539,0.5793,0.6139,0.63,0.63,0.4199,0.3151,0.3138,0.1031,0.0044,0.0045,0.0,0.0,0.0,0.0,0.0,0.0,0.0,0.0,0.0,0.0,0.0,-0.0392,-0.341,-0.4526,-0.4916,-0.7875,-0.8885,-0.8885,-0.8885,-0.914,-0.9381,-0.9381,-0.9588,-0.9852,-0.995,-1.0164,-1.0314,-1.046,-1.0609,-1.0795,-1.109,-1.1231,-1.1246,-1.1552,-1.1619,-1.1619,-1.1619,-1.1619,-1.1714,-1.201,-1.2135,-1.2159,-1.2454,-1.2494,-1.2494,-1.2494,-1.2494,-1.2498,-1.2501,-1.2776,-1.2963,-1.2963,-1.323,-1.34,-1.34,-1.3125,-1.2963,-1.2963,-1.2667,-1.2501,-1.2501,-1.2501,-1.2501,-1.2501,-1.2501,-1.2501,-1.2501,-1.2501,-1.2501,0.4416,0.0,0.0,0.0,0.0,0.0,0.0,0.0,0.9335,0.8639,0.9054,0.9387,0.8883,0.8804,0.8672,0.8262,0.8182,0.8182,0.8182,0.8182,0.779,0.6714,0.6725,0.6363,0.5209,0.527,0.5395,0.5395,0.5395,0.5395,0.5395,0.5597,0.5718,0.58,0.6139,0.63,0.63,0.4959,0.4261,0.4252,0.217,0.1175,0.1139,0.0357,0.0,0.0,0.0,0.0,0.0,0.0,0.0,0.0,0.0,0.0,-0.0386,-0.3396,-0.4526,-0.4916,-0.7875,-0.8885,-0.8885,-0.8885,-0.914,-0.9381,-0.9381,-0.9588,-0.9876,-1.0141,-1.0246,-1.0337,-1.0592,-1.0687,-1.0795,-1.109,-1.1231,-1.1246,-1.1552,-1.1619,-1.1619,-1.1619,-1.1619,-1.1714,-1.201,-1.2135,-1.2128,-1.2322,-1.2349,-1.2349,-1.2349,-1.2349,-1.2386,-1.2491,-1.2776,-1.2963,-1.2963,-1.323,-1.34,-1.34,-1.3125,-1.2963,-1.2963,-1.2667,-1.2501,-1.2501,-1.2501,-1.2501,-1.2501,-1.2501,-1.2501,-1.2501,-1.2501,-1.2501,0.0,0.0,0.0,0.0,0.0,0.0,0.8292,0.9041,0.9555,0.0,0.9762,1.009,0.9718,0.964,0.964,0.964,0.9413,0.9106,0.8831,0.8804,0.8292,0.6925,0.6963,0.6539,0.5154,0.5237,0.5395,0.5395,0.5395,0.5395,0.5395,0.564,0.5776,0.5715,0.6108,0.6269,0.6166,0.5204,0.4689,0.4695,0.3107,0.2104,0.1561,0.1021,0.0494,0.0,0.0,0.0,0.0,0.0,0.0,0.0,0.0,-0.0377,-0.1205,-0.3613,-0.4916,-0.5753,-0.8097,-0.8885,-0.8885,-0.8885,-0.914,-0.9381,-0.9381,-0.9588,-0.9873,-1.0117,-1.0273,-1.0422,-1.066,-1.0721,-1.0778,-1.1016,-1.1121,-1.1229,-1.147,-1.1572,-1.1619,-1.1619,-1.1619,-1.1714,-1.201,-1.2135,-1.2135,-1.2345,-1.2379,-1.2379,-1.2379,-1.2379,-1.241,-1.2491,-1.2776,-1.2935,-1.2871,-1.3136,-1.3278,-1.322,-1.2996,-1.2864,-1.2864,-1.263,-1.2501,-1.2501,-1.2501,-1.2501,-1.2501,-1.2501,-1.2501,-1.2501,-1.2501,-1.2501,0.4105,0.4352,0.0,0.0,0.0,0.0,0.8125,0.8972,0.9583,0.0,1.0416,1.0889,1.0813,1.0788,1.0788,1.0788,1.0287,0.9692,0.9008,0.8884,0.8333,0.6949,0.6981,0.659,0.5213,0.526,0.5395,0.5395,0.5395,0.5395,0.5395,0.5627,0.5728,0.5616,0.6054,0.6176,0.602,0.5257,0.4896,0.4881,0.3973,0.2921,0.1772,0.1771,0.1121,0.0,0.0,0.0,0.0,0.0,0.0,0.0,0.0,-0.0915,-0.2406,-0.3944,-0.5419,-0.6924,-0.838,-0.8885,-0.8885,-0.8885,-0.914,-0.9381,-0.9381,-0.9588,-0.9856,-0.9963,-1.0276,-1.0527,-1.068,-1.0721,-1.0758,-1.0843,-1.1056,-1.1275,-1.1358,-1.1511,-1.1619,-1.1619,-1.1619,-1.1714,-1.201,-1.2135,-1.2162,-1.2457,-1.2488,-1.2484,-1.2501,-1.2488,-1.2484,-1.2501,-1.2762,-1.2878,-1.2742,-1.2986,-1.3095,-1.2969,-1.2817,-1.2729,-1.2729,-1.2583,-1.2501,-1.2501,-1.2501,-1.2501,-1.2501,-1.2501,-1.2501,-1.2501,-1.2501,-1.2501,0.3552,0.3987,0.4596,0.5358,0.0,0.0,0.807,0.9299,1.0189,0.0,1.0912,1.1441,1.0889,1.0788,1.0788,1.0788,1.0686,1.0364,0.9684,0.9321,0.8822,0.7979,0.7626,0.7073,0.6177,0.5672,0.5395,0.5395,0.5395,0.5395,0.5395,0.5569,0.5671,0.5755,0.5966,0.6122,0.6252,0.6086,0.5996,0.5989,0.5053,0.3988,0.2786,0.211,0.1121,0.0,0.0,0.0,0.0,0.0,0.0,0.0,0.0,-0.0915,-0.2406,-0.3944,-0.5419,-0.6924,-0.838,-0.8885,-0.8885,-0.8885,-0.914,-0.9381,-0.9381,-0.9588,-0.988,-1.0158,-1.0358,-1.0527,-1.068,-1.0721,-1.0758,-1.0843,-1.1056,-1.1275,-1.1358,-1.1511,-1.1619,-1.1619,-1.1619,-1.1714,-1.201,-1.2135,-1.2162,-1.2457,-1.2406,-1.2372,-1.2488,-1.2403,-1.2376,-1.2488,-1.2664,-1.2762,-1.2732,-1.2898,-1.299,-1.2963,-1.2817,-1.2729,-1.2729,-1.2583,-1.2501,-1.2501,-1.2501,-1.2501,-1.2501,-1.2501,-1.2501,-1.2501,-1.2501,-1.2501,0.3488,0.3753,0.4136,0.4718,0.0,0.0,0.0,0.86,0.9707,0.9919,1.0936,1.1753,1.1531,1.1681,1.1841,1.1841,1.155,1.1191,1.0838,1.0053,0.9018,0.7717,0.779,0.7379,0.5907,0.5942,0.5881,0.5428,0.5395,0.5395,0.5395,0.5542,0.5623,0.5694,0.5878,0.603,0.6146,0.6259,0.63,0.6303,0.5944,0.515,0.3984,0.3111,0.2057,0.0854,0.0281,0.0,0.0,0.0,-0.041,-0.0999,-0.0266,-0.1345,-0.3441,-0.4221,-0.5919,-0.7931,-0.8657,-0.8885,-0.8885,-0.8885,-0.914,-0.9381,-0.9381,-0.9588,-0.9883,-1.0195,-1.0331,-1.0436,-1.0663,-1.0721,-1.0741,-1.0749,-1.1002,-1.1255,-1.126,-1.1457,-1.1619,-1.1619,-1.1619,-1.1687,-1.1908,-1.201,-1.2138,-1.2362,-1.2396,-1.242,-1.2491,-1.244,-1.2423,-1.2494,-1.2637,-1.2698,-1.2623,-1.2756,-1.2813,-1.2735,-1.2657,-1.2617,-1.2617,-1.2542,-1.2501,-1.2501,-1.2501,-1.2501,-1.2501,-1.2501,-1.2501,-1.2501,-1.2501,-1.2501,0.0,0.0,0.0,0.0,0.0,0.5392,0.0,0.0,0.0,0.0,0.0,0.0,0.0,0.0,0.0,1.2778,1.2346,1.1972,1.1814,1.0762,0.9408,0.7807,0.8125,0.7799,0.6073,0.6471,0.6522,0.5716,0.5595,0.5588,0.5653,0.5579,0.5572,0.563,0.5861,0.5976,0.6074,0.6238,0.63,0.6303,0.6559,0.6073,0.4868,0.3985,0.2948,0.1749,0.0515,0.0,0.0,0.0,-0.0722,-0.1649,-0.048,-0.1993,-0.4879,-0.4614,-0.6366,-0.8885,-0.8885,-0.8885,-0.8885,-0.8885,-0.914,-0.9391,-0.9449,-0.9632,-0.9883,-1.0195,-1.028,-1.0348,-1.0643,-1.0721,-1.0721,-1.0721,-1.0924,-1.1128,-1.1158,-1.1382,-1.1586,-1.1613,-1.1619,-1.1664,-1.1806,-1.1959,-1.2115,-1.2267,-1.241,-1.2501,-1.2501,-1.2501,-1.2501,-1.2501,-1.2613,-1.2634,-1.2511,-1.2617,-1.2634,-1.2508,-1.2501,-1.2501,-1.2501,-1.2501,-1.2501,-1.2501,-1.2501,-1.2501,-1.2501,-1.2501,-1.2501,-1.2501,-1.2501,-1.2501,0.0,0.0,0.0,0.0,0.4584,0.0,0.0,0.0,0.8047,0.9131,0.0,0.0,0.0,0.0,0.0,0.0,0.0,0.0,1.1898,1.1166,1.0575,1.0285,0.9366,0.8761,0.8809,0.7959,0.7175,0.6613,0.6278,0.6225,0.6551,0.5833,0.5542,0.5769,0.581,0.5959,0.6272,0.6289,0.63,0.6303,0.6559,0.6073,0.4868,0.3985,0.2948,0.1749,0.0515,0.0,0.0,0.0,-0.0103,-0.0213,-0.0053,-0.2658,-0.6294,-0.497,-0.6366,-0.8885,-0.8885,-0.8885,-0.8885,-0.8885,-0.914,-0.9432,-0.9693,-0.9795,-0.9883,-1.0195,-1.028,-1.0348,-1.0643,-1.0721,-1.0721,-1.0721,-1.085,-1.1006,-1.1134,-1.1297,-1.1457,-1.1592,-1.1619,-1.1664,-1.1806,-1.1959,-1.2115,-1.2267,-1.241,-1.2501,-1.2501,-1.2501,-1.2501,-1.2501,-1.2518,-1.2522,-1.2505,-1.2518,-1.2522,-1.2505,-1.2501,-1.2501,-1.2501,-1.2501,-1.2501,-1.2501,-1.2501,-1.2501,-1.2501,-1.2501,-1.2501,-1.2501,-1.2501,-1.2501,0.0,0.0,0.0,0.0,0.0,0.0,0.5863,0.0,0.7814,0.0,0.0,0.0,0.0,0.0,0.0,0.0,1.2234,0.0,1.1839,1.0889,1.0102,0.9743,0.9691,0.9659,0.9599,0.8491,0.77,0.746,0.6841,0.6537,0.6682,0.5881,0.5491,0.5674,0.5759,0.5905,0.6125,0.6255,0.63,0.6303,0.6559,0.645,0.5871,0.4332,0.3303,0.2731,0.0842,0.0,0.0,0.0,-0.0513,-0.1207,-0.0319,-0.1685,-0.4132,-0.4413,-0.5808,-0.7762,-0.8602,-0.8885,-0.8912,-0.914,-0.9279,-0.9435,-0.973,-0.9822,-0.9883,-1.0195,-1.028,-1.0348,-1.0643,-1.0721,-1.0721,-1.0721,-1.0769,-1.0989,-1.1131,-1.1284,-1.1436,-1.1589,-1.1619,-1.164,-1.1697,-1.183,-1.1979,-1.2135,-1.2284,-1.241,-1.2491,-1.2501,-1.2501,-1.2501,-1.2501,-1.2501,-1.2501,-1.2501,-1.2501,-1.2501,-1.2501,-1.2501,-1.2501,-1.2501,-1.2501,-1.2501,-1.2501,-1.2501,-1.2501,-1.2501,-1.2501,-1.2501,-1.2501,-1.2501,0.369,0.0,0.0,0.0,0.0,0.0,0.0,0.0,0.0,0.0,0.0,0.0,0.0,0.0,0.0,0.0,0.0,1.174,0.0,1.0542,0.0,0.0,1.01,1.0221,0.9745,0.8724,0.8054,0.7866,0.7062,0.6599,0.6682,0.5881,0.5467,0.5586,0.5728,0.5874,0.599,0.6183,0.63,0.6303,0.6559,0.6702,0.6625,0.455,0.3614,0.3444,0.1029,0.0,0.0,0.0,-0.0612,-0.1505,-0.0423,-0.0651,-0.1779,-0.3292,-0.5083,-0.6869,-0.7931,-0.8546,-0.8932,-0.9286,-0.9381,-0.9435,-0.973,-0.9822,-0.9876,-1.0141,-1.0249,-1.0337,-1.0592,-1.0687,-1.0721,-1.0721,-1.0739,-1.0938,-1.1121,-1.125,-1.1385,-1.1582,-1.1619,-1.1619,-1.1619,-1.1738,-1.1884,-1.204,-1.2193,-1.2342,-1.2484,-1.2501,-1.2501,-1.2501,-1.2501,-1.2501,-1.2501,-1.2501,-1.2501,-1.2501,-1.2501,-1.2501,-1.2501,-1.2501,-1.2501,-1.2501,-1.2501,-1.2501,-1.2501,-1.2501,-1.2501,-1.2501,-1.2501,-1.2501,0.0,0.433,0.0,0.4667,0.0,0.0,0.0,0.0,0.7776,0.0,0.0,0.0,0.0,0.0,0.0,0.0,0.0,0.0,0.0,0.0,0.0,0.0,0.0,0.0,0.9488,0.878,0.8157,0.7561,0.6697,0.6368,0.6678,0.5881,0.5467,0.5586,0.5728,0.5874,0.599,0.6183,0.63,0.6303,0.6559,0.6702,0.6625,0.455,0.3614,0.3444,0.1029,0.0,0.0,0.0,-0.0051,-0.0052,0.0,-0.0054,-0.0274,-0.1724,-0.4131,-0.6702,-0.6758,-0.7706,-0.8932,-0.9286,-0.9381,-0.9435,-0.973,-0.9822,-0.9852,-0.995,-1.0164,-1.0314,-1.0463,-1.0609,-1.0721,-1.0721,-1.0724,-1.0806,-1.1101,-1.1165,-1.126,-1.1562,-1.1619,-1.1619,-1.1619,-1.1738,-1.1884,-1.204,-1.2193,-1.2342,-1.2484,-1.2501,-1.2501,-1.2501,-1.2501,-1.2501,-1.2501,-1.2501,-1.2501,-1.2501,-1.2501,-1.2501,-1.2501,-1.2501,-1.2501,-1.2501,-1.2501,-1.2501,-1.2501,-1.2501,-1.2501,-1.2501,-1.2501,-1.2501,0.471,0.5262,0.5741,0.5433,0.5826,0.6287,0.6212,0.7241,0.0,0.0,0.0,0.0,0.0,0.0,0.0,0.0,0.0,0.0,0.0,0.0,0.0,0.0,0.0,0.0,0.0,0.9149,0.8362,0.7675,0.6962,0.6586,0.6682,0.5881,0.5419,0.547,0.5674,0.5827,0.5878,0.617,0.63,0.6303,0.6559,0.6284,0.5452,0.4202,0.317,0.2331,0.0702,0.0,0.0,0.0,0.0,0.0,0.0,0.0,-0.0162,-0.1661,-0.2849,-0.4019,-0.6031,-0.7035,-0.7636,-0.8992,-0.9381,-0.9435,-0.973,-0.9822,-0.9852,-0.9943,-1.0161,-1.0314,-1.0456,-1.0605,-1.0721,-1.0721,-1.0721,-1.0802,-1.1101,-1.1231,-1.1253,-1.1558,-1.1619,-1.1619,-1.1619,-1.166,-1.1742,-1.1887,-1.204,-1.2193,-1.2342,-1.2444,-1.2501,-1.2501,-1.2501,-1.2501,-1.2501,-1.2501,-1.2501,-1.2501,-1.2501,-1.2501,-1.2501,-1.2501,-1.2501,-1.2501,-1.2501,-1.2501,-1.2501,-1.2501,-1.2501,-1.2501,-1.2501,-1.2501,0.5569,0.6122,0.6627,0.6276,0.6695,0.7185,0.717,0.8208,0.9344,0.9927,0.0,0.0,0.0,0.0,0.0,0.0,0.0,0.0,0.0,1.0012,0.0,0.0,0.0,0.0,0.0,0.0,0.7567,0.713,0.6483,0.6168,0.6231,0.5719,0.5395,0.5395,0.5647,0.58,0.58,0.6146,0.63,0.6303,0.615,0.5654,0.4868,0.3549,0.2547,0.1749,0.0515,0.0,0.0,0.0,0.0,0.0,0.0,0.0,-0.0107,-0.105,-0.1733,-0.2571,-0.5025,-0.6255,-0.6905,-0.8178,-0.8968,-0.9435,-0.973,-0.9822,-0.9842,-0.9879,-1.012,-1.03,-1.0392,-1.0568,-1.0721,-1.0721,-1.0721,-1.0802,-1.1101,-1.1231,-1.1253,-1.1558,-1.1619,-1.1619,-1.1619,-1.1619,-1.1667,-1.1809,-1.1962,-1.2118,-1.2271,-1.2413,-1.2501,-1.2501,-1.2501,-1.2501,-1.2501,-1.2501,-1.2501,-1.2501,-1.2501,-1.2501,-1.2501,-1.2501,-1.2501,-1.2501,-1.2501,-1.2501,-1.2501,-1.2501,-1.2501,-1.2501,-1.2501,-1.2501]},{"header":{"parameterUnit":"m.s-1","parameterCategory":1,"la1":30.6,"la2":29.2853,"lo1":-89.7004,"lo2":-87.6739,"dy":0.0162,"dx":0.0183,"nx":112,"ny":82,"refTime":"2026-03-25T12:00:00:Z","depth":0,"parameterNumber":3,"parameterNumberName":"V-component_of_WINDS"},"data":[0.0,0.0,0.0,0.0,0.0,0.0,0.0,0.0,0.0,0.0,0.0,0.0,0.0,0.0,0.0,0.0,0.0,0.0,0.0,0.0,0.0,0.0,0.0,0.0,0.0,0.0,0.0,0.0,0.0,0.0,0.0,0.0,0.0,0.0,0.0,0.0,0.0,0.0,0.0,0.0,0.0,0.0,0.0,0.0,0.0,0.0,0.0,0.0,0.0,0.0,0.0,0.0,0.0,0.0,0.0,0.0,0.0,0.0,0.0,0.0,0.0,0.0,0.0,0.0,0.0,0.0,0.0,0.0,0.0,0.0,0.0,0.0,0.0,0.0,0.0,0.0,0.0,0.0,0.0,0.0,0.0,0.0,0.0,0.0,0.0,0.0,0.0,0.0,0.0,0.0,3.6626,3.71,3.8928,3.9859,3.9208,3.8481,3.7094,3.481,0.0,0.0,0.0,0.0,0.0,0.0,0.0,0.0,0.0,0.0,0.0,0.0,0.0,0.0,0.0,0.0,0.0,0.0,0.0,0.0,0.0,0.0,0.0,0.0,0.0,0.0,0.0,0.0,0.0,0.0,0.0,0.0,0.0,0.0,0.0,0.0,0.0,0.0,0.0,0.0,0.0,0.0,0.0,0.0,0.0,0.0,0.0,0.0,0.0,0.0,0.0,0.0,0.0,0.0,0.0,0.0,0.0,0.0,0.0,0.0,0.0,0.0,0.0,0.0,0.0,0.0,0.0,0.0,0.0,0.0,0.0,0.0,0.0,0.0,0.0,0.0,0.0,0.0,0.0,0.0,0.0,0.0,0.0,0.0,0.0,0.0,0.0,0.0,0.0,0.0,0.0,0.0,0.0,0.0,0.0,0.0,0.0,0.0,0.0,0.0,0.0,0.0,0.0,0.0,3.5847,3.8379,3.9537,4.0062,3.9943,3.9242,3.7855,3.5566,0.0,0.0,0.0,0.0,0.0,0.0,0.0,0.0,0.0,0.0,0.0,0.0,0.0,0.0,0.0,0.0,0.0,0.0,0.0,0.0,0.0,0.0,0.0,0.0,0.0,0.0,0.0,0.0,0.0,0.0,0.0,0.0,0.0,0.0,0.0,0.0,0.0,0.0,0.0,0.0,0.0,0.0,0.0,0.0,0.0,0.0,0.0,0.0,0.0,0.0,0.0,0.0,0.0,0.0,0.0,0.0,0.0,0.0,0.0,0.0,0.0,0.0,0.0,0.0,0.0,0.0,0.0,0.0,0.0,0.0,0.0,0.0,0.0,0.0,0.0,0.0,0.0,0.0,0.0,0.0,0.0,0.0,0.0,0.0,0.0,0.0,0.0,0.0,0.0,0.0,0.0,0.0,0.0,0.0,0.0,0.0,0.0,0.0,0.0,0.0,0.0,0.0,0.0,3.6586,3.7178,3.9368,3.991,4.0096,4.0096,3.9436,3.821,3.6366,3.4827,0.0,0.0,0.0,0.0,0.0,0.0,0.0,0.0,0.0,0.0,0.0,0.0,0.0,0.0,0.0,0.0,0.0,0.0,0.0,0.0,0.0,0.0,0.0,0.0,0.0,0.0,0.0,0.0,0.0,0.0,0.0,0.0,0.0,0.0,0.0,0.0,0.0,0.0,0.0,0.0,0.0,0.0,0.0,0.0,0.0,0.0,0.0,0.0,0.0,0.0,0.0,0.0,0.0,0.0,0.0,0.0,0.0,0.0,0.0,0.0,0.0,0.0,0.0,0.0,0.0,0.0,0.0,0.0,0.0,0.0,0.0,0.0,0.0,0.0,0.0,0.0,0.0,0.0,0.0,0.0,0.0,0.0,0.0,0.0,0.0,0.0,0.0,0.0,0.0,0.0,0.0,0.0,0.0,0.0,0.0,0.0,0.0,0.0,0.0,0.0,0.0,0.0,3.8447,3.8853,3.9977,4.0096,4.0096,4.0096,3.9436,3.8362,3.6897,3.5357,0.0,0.0,0.0,0.0,0.0,0.0,0.0,0.0,0.0,0.0,0.0,0.0,0.0,0.0,0.0,0.0,0.0,0.0,0.0,0.0,0.0,0.0,0.0,0.0,0.0,0.0,0.0,0.0,0.0,0.0,0.0,0.0,0.0,0.0,0.0,0.0,0.0,0.0,0.0,0.0,0.0,0.0,0.0,0.0,0.0,0.0,0.0,0.0,0.0,0.0,0.0,0.0,0.0,0.0,0.0,0.0,0.0,0.0,0.0,0.0,0.0,0.0,0.0,0.0,0.0,0.0,0.0,0.0,0.0,0.0,0.0,0.0,0.0,0.0,0.0,0.0,0.0,0.0,0.0,0.0,0.0,0.0,0.0,0.0,0.0,0.0,0.0,0.0,0.0,0.0,0.0,0.0,0.0,0.0,0.0,0.0,0.0,0.0,0.0,0.0,0.0,0.0,3.8708,3.9994,4.0096,4.0096,4.0096,4.0096,3.9436,3.8362,3.6897,3.5357,0.0,0.0,0.0,0.0,0.0,0.0,0.0,0.0,0.0,0.0,0.0,0.0,0.0,0.0,0.0,0.0,0.0,0.0,0.0,0.0,0.0,0.0,0.0,0.0,0.0,0.0,0.0,0.0,0.0,0.0,0.0,0.0,0.0,0.0,0.0,0.0,0.0,0.0,0.0,0.0,0.0,0.0,0.0,0.0,0.0,0.0,0.0,0.0,0.0,0.0,0.0,0.0,0.0,0.0,0.0,0.0,0.0,0.0,0.0,0.0,0.0,0.0,0.0,0.0,0.0,0.0,0.0,0.0,0.0,0.0,0.0,0.0,0.0,0.0,0.0,0.0,0.0,0.0,0.0,0.0,0.0,0.0,0.0,0.0,0.0,0.0,0.0,0.0,0.0,0.0,0.0,0.0,0.0,0.0,0.0,0.0,0.0,0.0,0.0,0.0,0.0,0.0,3.8599,3.9605,0.0,4.0096,4.0096,4.0096,3.9859,3.9063,3.7584,0.0,0.0,0.0,0.0,0.0,0.0,0.0,0.0,0.0,0.0,0.0,0.0,0.0,0.0,0.0,0.0,0.0,0.0,0.0,0.0,0.0,0.0,0.0,0.0,0.0,0.0,0.0,0.0,0.0,0.0,0.0,0.0,0.0,0.0,0.0,0.0,0.0,0.0,0.0,0.0,0.0,0.0,0.0,0.0,0.0,0.0,0.0,0.0,0.0,0.0,0.0,0.0,0.0,0.0,0.0,0.0,0.0,0.0,0.0,0.0,0.0,0.0,0.0,0.0,0.0,0.0,0.0,0.0,0.0,0.0,0.0,0.0,0.0,0.0,0.0,0.0,0.0,0.0,0.0,0.0,0.0,0.0,0.0,0.0,0.0,0.0,0.0,0.0,0.0,0.0,0.0,0.0,0.0,0.0,0.0,0.0,0.0,0.0,0.0,0.0,0.0,0.0,3.7736,3.8751,3.9639,0.0,4.0468,4.0553,4.079,4.0367,3.9462,3.799,0.0,0.0,0.0,0.0,0.0,0.0,0.0,0.0,0.0,0.0,0.0,0.0,0.0,0.0,0.0,0.0,0.0,0.0,0.0,0.0,0.0,0.0,0.0,0.0,0.0,0.0,0.0,0.0,0.0,0.0,0.0,0.0,0.0,0.0,0.0,0.0,0.0,0.0,0.0,0.0,0.0,0.0,0.0,0.0,0.0,0.0,0.0,0.0,0.0,0.0,0.0,0.0,0.0,0.0,0.0,0.0,0.0,0.0,0.0,0.0,0.0,0.0,0.0,0.0,0.0,0.0,0.0,0.0,0.0,0.0,0.0,0.0,0.0,0.0,0.0,0.0,0.0,0.0,0.0,0.0,0.0,0.0,0.0,0.0,0.0,0.0,0.0,0.0,0.0,0.0,0.0,0.0,0.0,0.0,0.0,0.0,0.0,0.0,0.0,0.0,0.0,0.0,3.7821,3.9191,4.0417,4.1136,4.1221,4.1508,4.2236,4.0959,3.9486,0.0,0.0,0.0,0.0,0.0,0.0,0.0,0.0,0.0,0.0,0.0,0.0,0.0,0.0,0.0,0.0,0.0,0.0,0.0,0.0,0.0,0.0,0.0,0.0,0.0,0.0,0.0,0.0,0.0,0.0,0.0,0.0,0.0,0.0,0.0,0.0,0.0,0.0,0.0,0.0,0.0,0.0,0.0,0.0,0.0,0.0,0.0,0.0,0.0,0.0,0.0,0.0,0.0,0.0,0.0,0.0,0.0,0.0,0.0,0.0,0.0,0.0,0.0,0.0,0.0,0.0,0.0,0.0,0.0,0.0,0.0,0.0,0.0,0.0,0.0,0.0,0.0,0.0,0.0,0.0,0.0,0.0,0.0,0.0,0.0,0.0,0.0,0.0,0.0,0.0,0.0,0.0,0.0,0.0,0.0,0.0,0.0,0.0,0.0,0.0,0.0,0.0,0.0,3.8582,4.0409,4.1728,4.1948,4.1965,4.2049,4.2269,4.1809,4.0614,3.8443,0.0,0.0,0.0,0.0,0.0,0.0,0.0,0.0,0.0,0.0,0.0,0.0,0.0,0.0,0.0,0.0,0.0,0.0,0.0,0.0,0.0,0.0,0.0,0.0,0.0,0.0,0.0,0.0,0.0,0.0,0.0,0.0,0.0,0.0,0.0,0.0,0.0,0.0,0.0,0.0,0.0,0.0,0.0,0.0,0.0,0.0,0.0,0.0,0.0,0.0,0.0,0.0,0.0,0.0,0.0,0.0,0.0,0.0,0.0,0.0,0.0,0.0,0.0,0.0,0.0,0.0,0.0,0.0,0.0,0.0,0.0,0.0,0.0,0.0,0.0,0.0,0.0,0.0,0.0,0.0,0.0,0.0,0.0,0.0,0.0,0.0,0.0,0.0,0.0,0.0,0.0,0.0,0.0,0.0,0.0,0.0,0.0,0.0,0.0,0.0,0.0,0.0,3.8853,4.0916,4.2405,4.2709,4.2743,4.2861,4.321,4.2783,4.1507,3.9122,0.0,0.0,0.0,0.0,0.0,0.0,0.0,0.0,0.0,0.0,0.0,0.0,0.0,0.0,0.0,0.0,0.0,0.0,0.0,0.0,0.0,0.0,0.0,0.0,0.0,0.0,0.0,0.0,0.0,0.0,0.0,0.0,0.0,0.0,0.0,0.0,0.0,0.0,0.0,0.0,0.0,0.0,0.0,0.0,0.0,0.0,0.0,0.0,0.0,0.0,0.0,0.0,0.0,0.0,0.0,0.0,0.0,0.0,0.0,0.0,0.0,0.0,0.0,0.0,0.0,0.0,0.0,0.0,0.0,0.0,0.0,0.0,0.0,0.0,0.0,0.0,0.0,0.0,0.0,0.0,0.0,0.0,0.0,0.0,0.0,0.0,0.0,0.0,0.0,0.0,0.0,0.0,0.0,0.0,0.0,0.0,0.0,0.0,0.0,0.0,0.0,0.0,3.9127,4.1299,4.294,4.361,4.3678,4.3966,4.4708,4.3984,4.246,4.0127,0.0,0.0,0.0,0.0,0.0,0.0,0.0,0.0,0.0,0.0,0.0,0.0,0.0,0.0,0.0,0.0,0.0,0.0,0.0,0.0,0.0,0.0,0.0,0.0,0.0,0.0,0.0,0.0,0.0,0.0,0.0,0.0,0.0,0.0,0.0,0.0,0.0,0.0,0.0,0.0,0.0,0.0,0.0,0.0,0.0,0.0,0.0,0.0,0.0,0.0,0.0,0.0,0.0,0.0,0.0,0.0,0.0,0.0,0.0,0.0,2.9395,2.9177,0.0,0.0,0.0,0.0,0.0,0.0,0.0,0.0,0.0,0.0,0.0,0.0,0.0,0.0,0.0,0.0,0.0,0.0,0.0,0.0,0.0,0.0,0.0,0.0,0.0,0.0,0.0,0.0,0.0,0.0,0.0,0.0,0.0,0.0,0.0,0.0,0.0,0.0,0.0,0.0,4.1315,4.3857,4.56,4.5733,4.5751,4.5821,4.5996,4.5737,4.4535,4.2134,3.9965,0.0,0.0,0.0,0.0,0.0,0.0,0.0,0.0,0.0,0.0,0.0,0.0,0.0,0.0,0.0,0.0,0.0,0.0,0.0,0.0,0.0,0.0,0.0,0.0,0.0,0.0,0.0,0.0,0.0,0.0,0.0,0.0,0.0,0.0,0.0,0.0,0.0,0.0,0.0,0.0,0.0,0.0,0.0,0.0,0.0,0.0,0.0,0.0,0.0,0.0,0.0,0.0,0.0,0.0,0.0,0.0,0.0,0.0,0.0,3.309,3.2404,0.0,0.0,0.0,0.0,0.0,0.0,0.0,0.0,0.0,0.0,0.0,0.0,0.0,0.0,0.0,0.0,0.0,0.0,0.0,0.0,0.0,0.0,0.0,0.0,0.0,0.0,0.0,0.0,0.0,0.0,0.0,0.0,0.0,0.0,0.0,0.0,0.0,0.0,0.0,0.0,4.1996,4.4665,4.6407,4.6407,4.6407,4.6407,4.6407,4.6279,4.5485,4.386,4.1833,0.0,0.0,0.0,0.0,0.0,0.0,0.0,0.0,0.0,0.0,0.0,0.0,0.0,0.0,0.0,0.0,0.0,0.0,0.0,0.0,0.0,0.0,0.0,0.0,0.0,0.0,0.0,0.0,0.0,0.0,0.0,0.0,0.0,0.0,0.0,0.0,0.0,0.0,0.0,0.0,0.0,0.0,0.0,0.0,0.0,0.0,0.0,0.0,0.0,0.0,0.0,0.0,0.0,3.6821,3.7617,3.8487,3.9727,4.0364,4.0334,3.7624,3.6861,3.7411,3.5903,0.0,0.0,0.0,0.0,0.0,0.0,0.0,0.0,0.0,0.0,0.0,0.0,0.0,0.0,0.0,0.0,0.0,0.0,0.0,0.0,0.0,0.0,4.354,4.2846,4.3626,4.3821,4.125,0.0,0.0,0.0,0.0,0.0,0.0,0.0,0.0,0.0,0.0,0.0,4.2905,4.5363,4.7023,4.7166,4.7041,4.697,4.697,4.6733,4.621,4.5413,4.3707,4.1992,0.0,0.0,0.0,0.0,0.0,0.0,0.0,0.0,0.0,0.0,0.0,0.0,0.0,0.0,0.0,0.0,0.0,0.0,0.0,0.0,0.0,0.0,0.0,0.0,0.0,0.0,0.0,0.0,0.0,0.0,0.0,0.0,2.1065,2.2956,0.0,0.0,0.0,0.0,0.0,0.0,0.0,0.0,0.0,0.0,0.0,0.0,0.0,3.4871,3.5543,3.7046,3.8428,3.9716,4.0053,4.1217,4.3014,4.2772,4.3002,4.358,4.315,0.0,4.0289,3.8371,0.0,0.0,0.0,0.0,0.0,0.0,0.0,0.0,0.0,0.0,0.0,0.0,0.0,0.0,0.0,0.0,0.0,0.0,0.0,0.0,0.0,0.0,4.734,4.575,4.6047,4.6396,4.5297,4.3377,4.1482,4.0238,3.9745,3.9206,0.0,0.0,0.0,0.0,0.0,0.0,4.6521,4.8193,4.9446,5.0159,4.9592,4.9172,4.9172,4.8481,4.7677,4.6872,4.5278,4.3663,4.2047,4.0341,0.0,0.0,0.0,0.0,0.0,0.0,0.0,0.0,0.0,0.0,0.0,0.0,0.0,0.0,0.0,0.0,0.0,0.0,0.0,0.0,0.0,0.0,0.0,0.0,0.0,0.0,0.0,0.0,0.0,2.1506,2.2951,2.3749,2.4543,2.5266,0.0,0.0,0.0,0.0,0.0,0.0,0.0,0.0,0.0,3.4307,3.5684,3.6975,3.8209,3.9386,4.0689,4.2137,4.2268,4.3267,4.5037,4.5245,4.5526,4.5866,4.6435,4.6137,4.5049,4.2097,4.1047,4.1174,0.0,0.0,0.0,0.0,4.096,4.1232,4.312,4.3803,4.3873,4.3967,0.0,0.0,0.0,0.0,0.0,0.0,0.0,4.4878,4.5836,4.722,4.8429,4.8615,4.893,4.8967,4.8141,4.7083,4.5591,4.3269,4.3014,4.2556,4.0523,4.0592,0.0,0.0,0.0,4.5866,4.731,4.9127,5.0398,5.0765,5.0472,5.0106,4.9647,4.9262,4.8673,4.7828,4.6691,4.5517,4.4378,4.2782,4.1167,0.0,0.0,0.0,0.0,0.0,0.0,0.0,0.0,0.0,0.0,0.0,0.0,0.0,0.0,0.0,0.0,0.0,0.0,0.0,0.0,0.0,0.0,0.0,0.0,0.0,0.0,0.0,0.0,2.336,2.4858,2.4789,2.6173,2.714,0.0,0.0,0.0,0.0,0.0,0.0,3.2711,3.3961,3.5324,3.6724,3.8049,3.9294,4.0487,4.1534,4.2727,4.4121,4.4323,4.5149,4.6526,4.7131,4.7406,4.7461,4.8418,4.885,4.8626,4.5529,4.4285,4.4214,4.3472,4.317,4.3333,4.4638,4.5132,4.54,4.7442,4.8089,4.789,4.7286,4.6811,4.6147,4.445,0.0,0.0,0.0,0.0,4.6388,4.8366,4.8908,4.926,5.0508,5.0802,5.0637,5.0051,4.9922,4.8985,4.5902,4.581,4.5425,4.305,4.3158,0.0,4.3535,0.0,4.73,4.8496,5.0104,5.1187,5.1389,5.1224,5.0857,5.0271,5.0033,4.9536,4.8691,4.8086,4.7278,4.625,4.5057,4.3663,4.2049,0.0,0.0,0.0,0.0,0.0,0.0,0.0,0.0,0.0,0.0,0.0,0.0,0.0,0.0,0.0,0.0,0.0,0.0,0.0,0.0,0.0,0.0,0.0,0.0,0.0,0.0,0.0,0.0,0.0,2.6404,2.8132,0.0,0.0,0.0,0.0,3.1784,3.2719,3.404,3.597,3.7576,3.882,3.9664,4.124,4.2103,4.2176,4.3754,4.4947,4.5792,4.6544,4.7351,4.8196,4.8233,4.8251,4.8306,4.9112,4.9478,4.9437,4.8048,4.7453,4.7406,4.6665,4.6363,4.645,4.7093,4.734,4.753,4.8932,4.904,4.8894,5.0997,5.0631,4.9366,4.9258,4.7588,0.0,0.0,4.8083,4.8341,4.9221,5.0048,5.071,5.0784,5.0802,5.0802,5.0747,5.0747,4.9994,4.7461,4.7003,4.6746,4.5828,0.0,4.625,4.7734,4.8102,4.9074,5.1479,5.1885,5.2234,5.3004,5.2399,5.1903,5.1867,5.1169,5.038,4.9592,4.95,4.8728,4.7113,4.6966,4.6159,4.4544,4.2983,0.0,0.0,0.0,0.0,0.0,0.0,0.0,0.0,0.0,0.0,0.0,0.0,0.0,0.0,0.0,0.0,0.0,0.0,0.0,0.0,0.0,0.0,0.0,0.0,0.0,0.0,0.0,0.0,2.8435,2.9784,0.0,3.0295,3.1291,3.2301,3.3127,3.5101,3.6823,3.8108,3.9421,4.0616,4.1735,4.2313,4.3024,4.3846,4.4415,4.5351,4.6672,4.6947,4.7516,4.8306,4.8306,4.8618,4.9169,4.9994,5.0637,5.1149,5.1191,5.062,4.9676,4.9425,4.9298,4.9392,5.0128,5.0391,5.054,5.1529,5.1742,5.1615,5.1896,5.1261,5.027,4.9701,4.9297,4.9169,4.9756,4.9921,5.0215,5.1555,5.1738,5.1701,5.2234,5.2344,5.2215,5.1683,5.1573,5.1151,4.9756,4.9479,4.9242,4.8435,4.871,4.9077,4.9132,5.0013,5.1004,5.1885,5.2454,5.2894,5.3167,5.2949,5.2564,5.2032,5.1738,5.1004,4.9684,4.961,4.9077,4.7921,4.7865,4.7351,4.6269,4.5168,4.3461,0.0,0.0,0.0,0.0,0.0,0.0,0.0,0.0,0.0,0.0,0.0,0.0,0.0,0.0,0.0,0.0,0.0,0.0,0.0,0.0,0.0,0.0,0.0,0.0,0.0,0.0,3.0184,2.9993,3.1646,3.2599,3.2099,3.3511,3.4692,3.5317,3.7051,3.869,4.0088,4.0891,4.1946,4.3353,4.3285,4.3745,4.4861,4.5037,4.5792,4.7094,4.7369,4.7773,4.8306,4.8306,4.8783,4.9647,5.0453,5.1261,5.205,5.2876,5.2582,5.161,5.161,5.161,5.1683,5.2215,5.2399,5.2472,5.3023,5.3185,5.3115,5.2582,5.205,5.1499,5.093,5.0967,5.1261,5.1536,5.1408,5.1518,5.2837,5.2803,5.2546,5.3057,5.3185,5.3059,5.2527,5.2399,5.2252,5.172,5.1169,5.0637,5.0086,5.0453,5.071,5.0455,5.1336,5.2087,5.2362,5.2876,5.3185,5.3185,5.3185,5.2986,5.2454,5.216,5.1426,5.0106,4.9757,4.9225,4.8343,4.8049,4.7626,4.7113,4.5773,4.3901,4.1515,0.0,0.0,0.0,0.0,0.0,0.0,0.0,0.0,0.0,0.0,0.0,0.0,0.0,0.0,0.0,0.0,0.0,0.0,0.0,0.0,0.0,0.0,0.0,2.8161,3.0646,3.2148,3.1139,3.3683,3.5223,3.4419,3.5813,3.7205,3.8316,3.8425,3.952,4.1988,4.2133,4.2888,4.4555,4.4233,4.4423,4.5214,4.5673,4.6342,4.7149,4.792,4.8306,4.8306,4.8306,4.8784,4.9667,5.0453,5.1242,5.2071,5.2876,5.3185,5.3185,5.3185,5.3185,5.3185,5.3185,5.3185,5.3185,5.3185,5.3185,5.3185,5.3185,5.3185,5.3185,5.3185,5.2656,5.2197,5.2986,5.2637,5.2215,5.3004,5.3185,5.3185,5.3185,5.3185,5.3185,5.3185,5.3185,5.3185,5.3185,5.194,5.0875,5.0875,5.0875,5.1151,5.1922,5.2032,0.0,5.3093,5.3185,5.3185,5.3185,5.3185,5.3185,5.3185,5.2454,5.1665,5.0857,5.0031,4.9225,4.8343,4.7553,4.7168,4.7187,4.4835,4.3237,4.2446,0.0,0.0,0.0,0.0,0.0,0.0,0.0,0.0,0.0,0.0,0.0,0.0,0.0,0.0,0.0,0.0,0.0,0.0,0.0,0.0,0.0,2.8542,3.0004,2.9832,3.1739,3.3272,3.3624,3.4918,3.5692,3.5488,3.6964,3.806,3.8384,3.9166,4.0458,4.2351,4.2679,4.338,4.4568,4.4732,4.5091,4.5693,4.6069,4.6832,4.7957,4.8196,4.8306,4.8306,4.8306,4.89,4.9989,5.0556,5.1388,5.2418,5.2966,5.3185,5.3185,5.3185,5.3185,5.3185,5.3185,5.3185,5.3185,5.3185,5.3185,5.3185,5.3185,5.3185,5.3185,5.3185,5.3059,5.2931,5.3151,5.3041,5.2931,5.313,5.3185,5.3185,5.3185,5.3185,5.3185,5.3185,5.3185,5.3185,5.3185,5.2837,5.2546,5.2546,5.2546,5.2637,5.2839,5.2876,5.2968,5.3167,5.3185,5.3185,5.3185,5.3185,5.3185,5.3185,5.2454,5.1665,5.0857,5.0031,4.9225,4.8343,4.8383,4.8528,4.8818,4.7027,4.6006,0.0,0.0,0.0,0.0,0.0,0.0,0.0,0.0,0.0,0.0,0.0,0.0,0.0,0.0,0.0,0.0,0.0,0.0,0.0,0.0,0.0,0.0,3.0406,3.191,3.2026,3.3229,3.4387,3.5121,3.6014,3.6719,3.7118,3.8331,3.915,3.9271,3.988,4.1005,4.2718,4.2998,4.3637,4.478,4.5007,4.5515,4.6359,4.6392,4.7129,4.855,4.8383,4.8306,4.8306,4.8306,4.8881,4.9917,5.0536,5.1366,5.2303,5.2578,5.2711,5.2729,0.0,0.0,0.0,0.0,5.2417,5.2711,5.2711,5.2931,5.3185,5.3185,5.3185,5.3185,5.3185,5.3185,5.3185,5.3185,5.3185,5.3185,5.3185,5.3185,5.3185,5.3185,5.3185,5.3185,5.3185,5.3185,5.3185,5.3185,5.3185,0.0,5.3185,5.3185,5.3185,5.3185,5.3185,5.3185,5.3185,5.35,5.3702,5.3702,5.4014,5.4069,5.3739,5.2968,0.0,0.0,0.0,4.9362,4.8331,4.8522,0.0,0.0,0.0,0.0,0.0,4.7707,0.0,0.0,4.6968,4.7049,0.0,0.0,0.0,0.0,0.0,0.0,0.0,0.0,0.0,0.0,0.0,0.0,0.0,0.0,0.0,0.0,3.2157,3.3978,3.4321,3.4813,3.5363,3.5912,3.692,3.7925,3.8848,3.9661,4.0241,4.0481,4.0496,4.1266,4.3008,4.3104,0.0,0.0,0.0,4.5745,4.6994,4.6637,4.7292,4.8897,4.8495,4.8306,4.8306,4.8306,4.8748,4.956,5.0326,5.1154,5.193,5.1981,5.205,5.2179,5.2729,5.2491,5.1775,5.1169,5.1389,5.1995,5.2087,0.0,0.0,5.3185,5.3185,5.3185,5.3185,5.3185,5.3185,5.3185,5.3185,5.3185,5.3185,5.3185,5.3185,5.3185,5.3185,5.3185,5.3185,5.3185,5.3222,5.3314,5.3332,5.3371,5.3463,5.3314,5.3222,5.3314,5.3332,5.3369,5.3463,5.4087,5.4546,5.4546,5.517,0.0,5.4601,5.372,5.2603,5.1231,5.0619,4.9851,4.8833,4.8772,4.8459,4.7793,4.8558,4.9335,5.0155,5.1231,5.2614,5.4148,4.9911,4.9347,0.0,0.0,0.0,0.0,0.0,0.0,0.0,0.0,0.0,0.0,0.0,0.0,0.0,0.0,0.0,3.1866,3.3323,3.4482,3.5305,3.5466,3.5753,3.6458,3.7348,3.8255,3.9135,3.9953,4.043,4.0496,4.0496,4.1266,4.3008,4.3104,4.3702,4.5069,4.5352,4.5995,4.6976,4.692,4.7556,4.8897,4.8495,0.0,4.8306,4.8306,4.8569,4.9058,4.96,5.0431,5.1454,5.1847,5.238,5.2858,5.172,5.1169,5.1096,5.1591,5.1867,5.2087,5.2747,5.3057,5.3185,5.3185,5.3185,5.3185,5.3185,5.3185,0.0,5.3185,5.3185,5.3185,5.3185,5.3185,5.3185,5.3185,5.3185,5.3185,5.3185,5.3185,5.339,5.4051,5.4179,5.4363,5.5023,5.4069,5.3427,5.4069,5.4179,5.4399,5.5042,5.5262,5.5354,5.5354,5.55,5.5559,5.5372,5.4051,5.321,5.3218,5.2223,5.1664,5.1751,5.1764,5.1851,5.2017,5.219,5.2689,5.3552,5.378,5.4773,5.6348,5.4114,5.3711,0.0,0.0,0.0,0.0,0.0,0.0,0.0,0.0,0.0,0.0,0.0,2.699,2.8766,0.0,3.1644,3.3274,3.4341,3.5136,3.5635,3.6056,3.6576,3.7308,3.7756,3.8507,3.9785,4.0265,4.0496,4.0496,4.0496,4.1266,4.3008,4.3104,4.3702,4.5069,4.5429,4.5946,4.6644,4.7043,4.7805,4.8848,4.8888,4.8898,4.888,4.8692,4.883,4.9227,4.9492,5.0139,5.1031,5.1454,5.1556,5.1353,5.0967,5.0802,5.0802,5.0784,5.1041,5.1499,5.2325,5.2858,5.3185,5.3185,5.3185,5.3185,5.3185,5.3185,5.3185,5.3185,5.3185,5.3185,5.3185,5.3185,5.3185,5.3185,5.3518,5.3812,5.3812,5.4124,5.4528,5.4913,5.4987,5.5115,5.5519,5.4932,5.4546,5.4932,5.4987,5.5133,5.5559,5.5941,5.6198,5.6198,5.6547,5.6638,5.6235,5.4951,5.441,5.5055,5.4128,5.3726,5.4127,5.4158,5.4246,5.4453,5.4876,5.5318,5.5742,5.6184,5.703,5.8223,5.7396,5.6992,0.0,0.0,0.0,0.0,0.0,0.0,0.0,0.0,2.6487,2.6432,2.7527,2.8982,3.0605,3.1993,3.3267,3.4374,3.5146,3.5653,3.5736,3.6495,3.7322,3.8074,3.8227,3.8873,4.0395,4.0519,4.0496,4.0496,4.0496,4.1266,4.3008,4.3104,4.3748,4.5154,4.5448,4.586,4.6415,4.6976,4.7769,4.8791,4.9105,4.9338,4.9489,4.9171,4.9187,4.9516,4.9637,5.0042,5.0623,5.1019,5.0749,5.0124,5.06,5.0802,5.0747,5.0233,5.0472,5.1151,5.194,5.2656,5.3185,5.3185,5.3185,5.3185,5.3185,5.3185,5.3185,5.3185,5.3185,5.3185,5.3185,5.3314,5.3424,5.3424,5.4051,5.4638,5.4638,5.5133,5.5669,5.5794,5.5831,5.5868,5.6033,5.6073,5.5996,5.5849,5.5831,5.5886,5.6033,5.6638,5.7042,5.7042,5.7611,5.7666,5.6877,5.6113,5.5924,5.6469,5.6,5.5878,5.6192,5.6203,5.6203,5.6203,5.6876,5.733,5.7503,5.8184,5.905,6.0012,6.0012,5.9665,2.4164,2.3851,2.3635,2.3951,2.4842,2.5657,0.0,0.0,2.7727,2.9332,2.978,3.067,3.3249,3.3891,3.434,3.5294,3.5588,3.572,3.5867,3.6637,3.7472,3.8261,3.8896,3.9621,4.0577,4.0574,4.0496,4.0496,4.0496,4.1266,4.3008,4.3104,4.3846,4.5493,4.5577,4.6,4.6809,4.6579,4.7228,4.8791,4.8486,4.8754,4.9489,4.9445,4.946,4.9531,4.989,5.0074,5.0199,5.0654,5.1211,5.1665,5.1041,5.0802,5.0875,5.1499,5.1775,5.1977,5.2803,5.3112,5.3185,5.3185,5.3185,5.3185,5.3185,5.3185,5.3185,5.3185,5.3185,5.3185,5.3185,5.3739,5.4271,5.4271,5.4876,5.5464,5.5464,5.5559,5.5794,5.6528,5.6675,5.6895,5.7611,5.7721,5.7483,5.6767,5.6675,5.6932,5.7629,5.7813,5.7868,5.7868,5.7941,5.7666,5.6877,5.7376,5.7508,5.6873,5.7537,5.7958,5.8011,5.8011,5.8011,5.8011,5.8107,5.8511,5.9223,5.9319,6.0204,6.1812,6.1812,6.1774,2.4725,2.4452,0.0,0.0,2.6393,2.7027,2.7657,2.8931,3.01,3.0428,3.1594,3.2904,3.4044,3.4629,3.5104,0.0,3.5616,3.5671,3.5764,3.6608,3.7299,3.7556,3.8723,3.982,4.0632,4.0588,4.0496,4.0496,4.0496,4.1266,4.3008,4.3104,4.3874,4.5556,4.5594,4.5768,4.6144,4.6474,4.724,4.839,4.8731,4.9343,5.0183,4.9949,4.9719,4.9537,5.0161,5.0042,4.9474,5.0364,5.0694,5.062,5.0747,5.0802,5.0894,5.1701,5.1701,5.1481,5.2766,5.3185,5.3185,5.3185,5.3185,5.3185,5.3185,5.3185,5.3185,5.3185,5.3185,5.3295,5.3794,5.4161,5.4528,5.4987,5.5702,5.6308,5.6308,5.6657,5.7097,5.7428,5.7501,5.7611,5.7941,5.7997,5.7886,5.7556,5.7501,5.7611,5.796,5.7997,5.7997,5.7997,5.7997,5.8087,5.829,5.865,5.8946,5.9163,5.9542,5.9742,5.9742,5.9742,5.9742,5.9742,5.9742,6.0165,6.1012,6.1012,6.1627,6.2801,6.2801,6.307,2.4947,0.0,0.0,2.6766,2.7624,2.8365,2.899,3.0586,3.1831,3.1481,3.2943,3.4371,3.4604,3.5059,3.5429,3.5543,3.5532,3.5523,3.5667,3.6523,3.7118,3.7008,3.8307,3.951,4.0269,4.0433,4.0496,4.0496,4.0496,4.117,4.2662,4.297,4.3758,4.521,4.5479,4.5594,4.5594,4.622,4.7067,4.8105,4.874,4.9625,5.0683,5.0399,5.0123,4.9872,5.0336,5.0043,4.9287,5.0056,5.0123,4.9804,5.0374,5.0554,5.0582,5.161,5.1628,5.1334,5.2729,5.3185,5.3185,5.3185,5.3185,5.3185,5.3185,5.3185,5.3185,5.3185,5.3371,5.3683,5.4252,5.473,5.5207,5.5776,5.6547,5.7134,5.7134,5.7593,5.7997,5.7997,5.7997,5.7997,5.7997,5.7997,5.7997,5.7997,5.7997,5.7997,5.7997,5.7997,5.7997,5.7997,5.8119,5.8482,5.9158,5.9441,5.9885,6.0565,6.0734,6.08,6.08,6.08,6.0916,6.1146,6.1146,6.157,6.2416,6.2416,6.2858,6.3666,6.3666,6.4128,0.0,0.0,2.7406,2.6612,2.7945,2.9449,2.9488,3.0794,3.2235,3.3048,3.3799,3.4565,3.5398,3.5306,3.5198,3.546,3.5341,3.531,3.5576,3.6409,3.7001,3.6998,3.7743,3.8556,0.0,4.0074,4.0496,4.0496,4.0496,4.0893,4.1788,4.2643,4.347,4.4316,4.5171,4.5594,4.5594,4.5633,4.6471,4.8105,4.8125,4.9048,5.0712,5.0683,5.0673,5.0634,5.0272,5.0092,5.0043,4.9683,4.974,5.0093,5.0111,4.9917,4.9831,5.1428,5.1977,5.2068,5.2913,5.3185,5.3185,5.3185,5.3185,5.3185,5.3185,5.3185,5.3185,5.3185,5.3775,5.4363,5.4399,5.5556,5.673,5.6767,5.7373,5.796,5.796,5.7978,5.7997,5.7997,5.7997,5.7997,5.7997,5.7997,5.7997,5.7997,5.7997,5.7997,5.7997,5.7997,5.7997,5.7997,5.8397,5.8694,5.8715,5.9561,6.0084,6.0118,6.0553,6.08,6.08,6.08,6.1204,6.2043,6.2062,6.2454,6.3262,6.3262,6.3724,6.457,6.457,6.5032,0.0,0.0,2.7091,2.8121,2.8915,2.957,3.0113,3.1608,3.2947,3.3241,3.433,3.5325,3.5617,3.5492,3.5391,3.5493,3.5442,3.5424,3.5522,3.5847,3.6057,3.6002,3.6784,0.0,0.0,0.0,0.0,4.0458,4.0496,4.0873,4.175,4.2624,4.347,4.4278,4.5152,4.5594,4.5594,4.5594,4.6163,4.7317,4.8432,4.9567,5.0712,5.0712,5.0712,5.0683,5.0554,5.0347,5.008,4.9949,4.9655,4.9306,4.9306,4.9065,4.8875,4.9996,5.0767,5.1408,5.2747,5.3185,5.3185,5.3185,5.3185,5.3185,5.3185,5.3185,5.3185,5.3185,5.3794,5.4528,5.506,5.5996,5.6932,5.7464,5.7795,5.7997,5.7997,5.7997,5.7997,5.7997,5.7997,5.7997,5.7997,5.7997,5.818,5.8731,5.8345,5.7997,5.7997,5.8784,5.934,5.934,6.0223,6.0959,6.1256,6.1587,6.1879,6.2202,6.2374,6.2454,6.2454,6.2454,6.2608,6.2897,6.2897,6.332,6.4166,6.4166,6.4609,6.5455,6.5455,6.5609,2.6263,2.7151,2.8167,2.9158,2.9626,2.9985,3.0494,3.201,3.3299,3.3271,3.4332,3.5249,3.5212,3.4778,3.4558,3.4974,3.4971,3.5026,3.5435,3.554,3.5552,3.5514,3.6023,3.6472,0.0,0.0,0.0,3.9996,4.0073,4.0439,4.1296,4.2162,4.3028,4.3855,4.4682,4.5287,4.5594,4.5594,4.6028,4.6923,4.8606,4.9683,5.025,5.0558,5.0712,5.0712,5.0712,5.0554,5.0306,5.0306,4.9936,4.9307,4.9171,4.8881,4.8606,4.9338,5.0105,5.0986,5.2307,5.2968,5.3185,5.3185,5.3185,5.3185,5.3185,5.3185,5.3259,5.3555,5.4216,5.5005,5.5812,5.6638,5.7373,5.7886,5.7997,5.7997,5.7997,5.7997,5.7997,5.7997,5.7997,5.7997,5.7997,5.8235,5.8712,5.9496,5.9189,5.8934,5.9124,5.9903,6.0476,6.0656,6.1558,6.2276,6.2582,6.2749,6.2974,6.3276,6.3288,6.3288,6.3288,6.3288,6.3455,6.3762,6.3762,6.4185,6.5051,6.5051,6.5359,6.5897,6.5897,6.6051,2.6742,2.8556,3.0451,2.9668,3.0085,3.068,3.0617,3.1965,3.3205,3.3144,3.3828,3.4379,0.0,0.0,3.2944,3.4019,3.4014,3.4259,3.5345,3.55,3.55,0.0,0.0,0.0,0.0,0.0,0.0,3.9126,3.9284,3.965,4.0458,4.1335,4.2181,4.3008,4.3855,4.4701,4.5537,4.5575,4.6028,4.6923,4.8548,4.9356,4.9433,5.0308,5.0712,5.0712,5.0673,5.0673,5.0712,5.0673,5.0432,5.0056,4.9664,4.9249,4.8957,4.9379,5.0068,5.0912,5.1665,5.2491,5.3185,5.3185,5.3185,5.3185,5.3185,5.3185,5.3369,5.4179,5.4968,5.5776,5.6602,5.7409,5.7997,5.7997,5.7997,5.7997,5.7997,5.7997,5.8015,5.8052,5.8088,5.8125,5.8125,5.8767,5.9515,6.0346,6.0456,6.0614,6.1106,6.1251,6.1478,6.1917,6.2455,6.2761,6.2761,6.318,6.3435,6.3435,6.3435,6.3435,6.3435,6.3435,6.382,6.4647,6.4666,6.507,6.5897,6.5936,6.5955,6.5955,6.6013,6.6436,2.8354,2.9255,2.9876,3.0216,3.0468,3.0614,3.0545,3.142,3.2249,3.2225,3.2911,3.3501,0.0,0.0,0.0,3.416,3.4697,0.0,3.5455,3.55,0.0,3.55,0.0,3.5577,3.5788,3.6446,0.0,0.0,3.8979,3.965,4.0458,4.1335,4.1904,4.2124,4.3547,4.4412,4.4624,4.5287,4.6028,4.6904,4.7952,4.8779,4.9433,5.0308,5.0712,5.0683,5.0369,5.0421,5.0673,5.0388,5.0183,5.0056,4.9664,4.9249,4.8883,4.8698,4.9554,5.0839,5.1041,5.2032,5.3185,5.3185,5.3185,5.3185,5.3185,5.3185,5.3369,5.4179,5.4968,5.5776,5.6602,5.7409,5.7997,5.7997,5.7997,5.7997,5.7997,5.7997,5.818,5.8786,5.9391,5.9795,5.9795,5.996,6.0382,6.1172,6.1282,6.1134,6.0651,6.1782,6.2655,6.2784,6.4154,6.507,6.507,6.5173,6.5243,6.5243,6.5243,6.5243,6.5243,6.5243,6.534,6.5551,6.557,6.5686,6.5897,6.6494,6.6782,6.6801,6.7455,6.7878,2.9086,2.976,3.0115,3.0504,3.0578,3.0552,3.0516,3.1203,3.1856,3.1854,3.2253,0.0,0.0,0.0,0.0,0.0,0.0,0.0,3.5385,3.5528,3.554,0.0,3.556,0.0,3.5585,3.638,3.7274,0.0,3.8969,3.9759,4.0544,4.1058,4.1477,4.1797,4.272,4.3566,4.4297,4.5171,4.5845,4.6336,4.7182,4.8009,4.8856,4.9721,5.0346,5.0683,5.0472,5.0493,5.0673,5.026,5.0195,5.0321,4.9914,4.9521,4.9148,4.8938,4.9462,5.0306,5.0674,5.1628,5.2729,5.3096,5.3185,5.3185,5.3185,5.3463,5.3904,5.4693,5.55,5.6308,5.7116,5.7666,5.7997,5.7997,5.7997,5.7997,5.7997,5.829,5.8767,5.9551,6.0107,6.0511,6.0878,6.0933,6.1208,6.2016,6.2126,6.1961,6.152,6.256,6.3483,6.3922,6.4909,6.563,6.5885,6.5897,6.5897,6.5897,6.5897,6.5897,6.5897,6.5897,6.5897,6.5897,6.6244,6.6417,6.6417,6.7263,6.7667,6.7686,6.8167,6.8609,2.9383,3.0175,3.0684,3.0611,3.0559,3.0485,3.0362,3.0925,3.1459,3.1315,0.0,0.0,3.1363,3.0923,3.1077,3.2641,0.0,3.3648,3.5284,3.5568,3.5596,3.5616,3.5652,3.5707,3.5707,3.6438,3.7302,3.825,3.9117,3.9949,4.0679,4.0709,4.1048,4.1777,4.1904,4.272,4.4278,4.5171,4.5594,4.5614,4.649,4.7278,4.7971,4.8952,4.9798,5.0529,5.0596,5.0614,5.0594,5.0249,5.0313,5.0581,5.0237,4.9856,4.9495,4.9509,4.9614,4.9867,5.0563,5.1389,5.227,5.2986,5.3185,5.3185,5.3185,5.3702,5.4436,5.5335,5.6106,5.6859,5.7758,5.7997,5.7997,5.7997,5.7997,5.7997,5.7997,5.8731,5.9588,6.0401,6.0658,6.0951,6.163,6.1759,6.1998,6.267,6.278,6.283,6.2886,6.3312,6.3958,6.4919,6.5048,6.5325,6.5853,6.5897,6.5897,6.5897,6.5897,6.5897,6.5897,6.5994,6.6051,6.6051,6.6859,6.7263,6.7263,6.8148,6.8558,6.859,6.8686,6.9148,3.0073,3.0586,3.0675,3.0559,3.0559,3.0383,2.9608,2.9626,0.0,0.0,0.0,2.964,2.9558,3.0602,0.0,3.2737,0.0,0.0,0.0,0.0,3.5611,0.0,0.0,0.0,0.0,0.0,0.0,0.0,3.9193,4.0001,4.0738,4.0726,4.1048,4.1777,4.2508,4.3335,4.4297,4.5171,4.5594,4.5614,4.649,4.6962,4.7154,4.8702,4.9471,4.9654,5.0041,5.0195,5.0195,5.0135,5.0147,5.0202,5.0133,4.9847,4.9464,4.9148,4.9695,5.0618,5.0747,5.1775,5.3023,5.3148,5.3185,5.3185,5.3185,5.3316,5.372,5.5188,5.5684,5.6143,5.7611,5.7997,5.7997,5.7997,5.7997,5.7997,5.7997,5.9153,6.0438,6.1245,6.1924,6.2438,6.2585,6.2603,6.2658,6.2762,6.278,6.2941,6.3408,6.3546,6.385,6.4463,6.4869,6.5325,6.5853,6.5897,6.5897,6.5897,6.5897,6.5897,6.5897,6.6532,6.6878,6.6878,6.7744,6.8167,6.8186,6.9052,6.9475,6.9494,7.0167,7.0552,3.0258,3.0679,3.0614,3.0521,3.0187,2.9745,2.9297,0.0,0.0,0.0,0.0,2.8512,2.8483,0.0,0.0,0.0,0.0,0.0,0.0,0.0,0.0,0.0,0.0,0.0,0.0,0.0,3.7468,3.8428,3.8824,3.9579,4.0833,4.0777,4.0836,4.1112,4.197,4.2835,4.3662,4.4509,4.5152,4.5614,4.6009,4.6471,4.6942,4.8163,4.8971,4.9442,5.0129,5.041,5.0399,5.0183,5.0206,5.0396,5.0412,5.0166,4.9803,4.9594,4.9653,4.9899,5.0571,5.1316,5.2105,5.2928,5.3185,5.3185,5.3185,5.3794,5.4601,5.5372,5.6198,5.7024,5.7795,5.7997,5.7997,5.7997,5.7997,5.8235,5.9061,5.9869,6.0768,6.1998,6.2548,6.2886,6.3168,6.3215,6.3215,6.3215,6.3435,6.3615,6.3612,6.385,6.4118,6.437,6.459,6.4835,6.5105,6.534,6.5686,6.6131,6.6402,6.6724,6.7186,6.7571,6.7782,6.7782,6.8629,6.909,6.909,6.9917,7.0321,7.0341,7.0725,7.0898,2.9725,3.0085,3.0037,2.9952,2.9444,2.8914,2.871,2.8203,0.0,0.0,0.0,2.7663,2.7663,0.0,0.0,0.0,0.0,0.0,0.0,0.0,0.0,0.0,0.0,0.0,0.0,0.0,0.0,3.8242,3.8564,3.9306,4.0645,4.0719,4.068,4.0545,4.1359,4.222,4.3085,4.3893,4.4739,4.5594,4.5594,4.5951,4.6644,4.7471,4.8317,4.9163,5.0029,5.048,5.0554,5.0325,5.0358,5.06,5.0862,5.0607,5.0114,5.02,4.9784,4.9294,5.0226,5.0765,5.1261,5.2546,5.3078,5.3185,5.3185,5.4087,5.5152,5.5482,5.651,5.7574,5.7905,5.7997,5.8042,5.8119,5.8164,5.8606,6.0204,6.0478,6.0878,6.2493,6.278,6.2965,6.352,6.359,6.3634,6.3745,6.4137,6.4275,6.3958,6.4445,6.482,6.482,6.482,6.495,6.5227,6.5585,6.6097,6.6785,6.7173,6.7686,6.8379,6.859,6.8686,6.8686,6.9513,6.9956,6.9956,7.0591,7.0898,7.0898,7.0898,7.0898,2.8009,2.8245,2.8214,2.8164,2.8175,2.7982,2.7124,0.0,0.0,0.0,2.6343,2.6895,2.6895,0.0,0.0,0.0,0.0,0.0,0.0,0.0,0.0,0.0,0.0,0.0,0.0,0.0,3.6407,3.7344,3.8867,3.978,3.9825,4.0432,4.0767,4.068,4.1407,4.222,4.3085,4.3893,4.4739,4.5594,4.5594,4.5633,4.5748,4.6624,4.7451,4.8279,4.9144,4.9754,5.0183,5.0504,5.0442,5.0259,5.1374,5.1097,5.0151,5.0582,5.0418,4.9965,4.9766,5.0675,5.1903,5.205,5.2601,5.3185,5.3185,5.3316,5.3739,5.5188,5.5724,5.6143,5.7611,5.7997,5.8097,5.8547,5.8632,5.9078,6.0694,6.0701,6.0878,6.2493,6.278,6.2965,6.352,6.359,6.3766,6.4255,6.437,6.4555,6.49,6.5705,6.6233,6.6233,6.6233,6.6716,6.7931,6.8081,6.8133,6.821,6.8256,6.8321,6.8385,6.9167,6.959,6.959,7.0379,7.0783,7.0783,7.086,7.0898,7.0898,7.0898,7.0898,2.7602,2.7735,2.7643,2.7711,2.7436,2.7064,2.677,0.0,0.0,2.5583,2.578,2.6031,2.6031,2.6329,0.0,0.0,0.0,0.0,0.0,0.0,0.0,0.0,0.0,0.0,0.0,0.0,3.611,3.6484,3.8613,3.9648,3.9076,4.0231,4.0855,4.0703,4.0984,4.1526,4.2316,4.3162,4.3989,4.4816,4.5344,4.5594,4.5633,4.6509,4.7058,4.7451,4.8817,4.9509,4.9724,5.0413,5.0604,5.0521,5.0989,5.0873,5.0427,5.0126,4.9909,4.9736,4.9621,5.0345,5.1353,5.183,5.2546,5.3185,5.3185,5.3555,5.4161,5.5262,5.5941,5.6583,5.7703,5.8213,5.8547,5.9009,5.9121,5.9478,6.0822,6.0958,6.1209,6.2524,6.278,6.3068,6.3936,6.4078,6.4236,6.4748,6.5086,6.5436,6.5839,6.6421,6.7218,6.8268,6.7623,6.7218,6.7478,6.7763,6.815,6.8667,6.9006,6.9398,6.9879,7.0244,7.0417,7.0417,7.0744,7.0898,7.0898,7.0898,7.0898,7.0898,7.0898,7.0898,2.676,2.6776,2.667,2.6804,2.6472,2.6162,0.0,0.0,2.5628,2.5564,2.5559,2.5559,2.5559,2.5601,2.6121,0.0,0.0,0.0,0.0,0.0,0.0,0.0,0.0,0.0,0.0,3.5996,3.6113,3.6367,3.832,3.9355,3.9004,4.0305,4.0976,4.0791,4.0724,4.1068,4.1843,4.2675,4.3508,4.4316,4.519,4.5594,4.5614,4.624,4.6663,4.6981,4.8394,4.9163,4.9471,5.0346,5.0712,5.0731,5.0952,5.0914,5.0653,5.0203,4.9811,4.9495,4.9432,5.0022,5.0894,5.1463,5.2428,5.3359,5.3248,5.3679,5.4472,5.5634,5.6751,5.7696,5.827,5.8775,5.9213,5.9545,5.9492,5.9736,6.1029,6.1092,6.1259,6.2549,6.278,6.3091,6.3997,6.4275,6.4554,6.5016,6.5747,6.6325,6.6589,6.7346,6.834,6.9571,6.904,6.8438,6.8117,6.839,6.8835,6.9447,6.9855,7.0302,7.0879,7.0898,7.0898,7.0898,7.0898,7.0898,7.0898,7.0898,7.0898,7.0898,7.0898,7.0898,2.5033,2.4923,2.4865,2.4987,2.5125,2.5279,0.0,2.5604,2.5703,2.5703,2.5703,2.5703,2.5703,2.5703,2.5996,0.0,0.0,0.0,0.0,0.0,0.0,0.0,0.0,0.0,3.5996,3.5996,3.6367,3.7226,3.8105,3.8984,3.9844,4.0723,4.1148,4.0996,4.0805,4.1123,4.1989,4.2718,4.3508,4.4316,4.519,4.5594,4.5594,4.5614,4.6086,4.6942,4.7759,4.8606,4.9471,5.0346,5.0712,5.0789,5.1587,5.1395,5.0749,5.114,5.0537,4.9445,4.9046,4.975,5.0802,5.082,5.2153,5.372,5.3316,5.3484,5.4242,5.6314,5.8089,5.9372,5.9372,5.9725,6.0103,6.0084,5.9741,5.9824,6.1448,6.105,6.0878,6.2493,6.278,6.2965,6.3502,6.4058,6.4554,6.5016,6.6226,6.709,6.709,6.8609,6.9687,6.9706,7.0398,7.086,7.0846,7.0846,7.0879,7.0879,7.0879,7.0898,7.0898,7.0898,7.0898,7.0898,7.0898,7.0898,7.0898,7.0898,7.0898,7.0898,7.0898,7.0898,2.5076,2.4936,2.4836,2.502,2.5108,2.5194,2.5431,2.5523,2.5561,2.5561,2.5561,2.5561,2.5561,2.5561,2.6222,2.8242,0.0,0.0,0.0,0.0,0.0,0.0,0.0,0.0,0.0,0.0,3.6113,3.6387,3.7226,3.8086,3.8965,3.9844,4.0523,4.0998,4.0859,4.0878,4.1104,4.2437,4.3239,4.3508,4.4921,4.5594,4.5594,4.5594,4.5748,4.6067,4.6913,4.7759,4.8586,4.9452,5.0164,5.0731,5.0971,5.0914,5.0673,5.0516,5.024,4.9813,4.9139,4.9891,5.1102,5.0885,5.2153,5.3833,5.4014,5.4171,5.4643,5.6415,5.8106,5.9458,5.9808,5.9741,5.9709,6.0025,5.9741,5.9754,6.1029,6.1092,6.1277,6.2549,6.278,6.2965,6.352,6.4037,6.4554,6.5016,6.6226,6.7321,6.7917,6.8994,6.9917,7.0456,7.0744,7.0898,7.0898,7.0898,7.0898,7.0898,7.0898,7.0898,7.0898,7.0898,7.0898,7.0898,7.0898,7.0898,7.0898,7.0898,7.0898,7.0898,7.0898,7.0898,0.0,2.4957,2.4862,2.5056,2.5093,2.5154,2.541,2.5473,2.5491,2.5491,2.5491,2.5491,2.5491,2.5529,2.6067,2.7658,0.0,0.0,0.0,0.0,0.0,0.0,0.0,0.0,0.0,3.5975,3.5974,3.5996,3.7109,3.8027,3.8574,3.9746,4.0604,4.106,4.0952,4.0828,4.0747,4.2324,4.3119,4.3124,4.4806,4.5594,4.5594,4.5594,4.5594,4.5652,4.6528,4.7355,0.0,4.9048,4.9913,5.0712,5.0712,5.0712,5.0673,5.0421,5.0237,5.0031,4.9532,5.0207,5.1266,5.1045,5.227,5.3941,5.4731,5.5175,5.5727,5.7044,5.8394,5.9547,5.9993,5.9885,5.9693,5.9823,5.9704,5.9871,6.0878,6.1199,6.1651,6.2881,6.3115,6.3266,6.3808,6.4332,6.4862,6.5506,6.6725,6.7917,6.8783,6.9629,7.0341,7.0841,7.0898,7.0898,7.0898,7.0898,7.0898,7.0898,7.0898,7.0898,7.0898,7.0898,7.0898,7.0898,7.0898,7.0898,7.0898,7.0898,7.0898,7.0898,7.0898,7.0898,0.0,2.4965,2.4872,2.5065,2.512,2.5154,2.5366,2.5442,0.0,2.5495,2.5495,2.5495,2.5573,2.558,2.5648,2.5827,0.0,0.0,0.0,0.0,0.0,0.0,0.0,0.0,3.5995,3.5942,3.5958,3.6074,3.7598,3.8555,3.8691,4.0234,4.1133,4.1191,4.108,4.0955,4.0809,4.2399,4.3167,4.3129,4.4806,4.5594,4.5594,4.5594,4.5594,4.5652,4.6471,4.7298,4.8163,4.8971,4.9856,5.0712,5.0712,5.0712,5.0712,5.0712,5.0472,5.0147,5.0104,5.0629,5.1332,5.1444,5.2545,5.4082,5.5312,5.6288,5.7143,5.8038,5.8877,5.9595,5.9993,6.0089,5.9931,5.9458,5.9608,6.0083,6.088,6.1357,6.2037,6.3353,6.3634,6.3829,6.4313,6.4801,6.5385,6.6262,6.7549,6.8725,6.959,7.0398,7.0898,7.0898,7.0898,7.0898,7.0898,7.0898,7.0898,7.0898,7.0898,7.0898,7.0898,7.0898,7.0898,7.0898,7.0898,7.0898,7.0898,7.0898,7.0898,7.0898,7.0898,7.0898,2.5147,0.0,2.5208,2.5293,2.5292,2.5282,0.0,2.5375,0.0,0.0,0.0,0.0,0.0,0.0,0.0,0.0,0.0,0.0,0.0,0.0,0.0,0.0,3.5908,3.5907,3.5916,3.5908,3.6193,3.6933,3.7363,3.8184,3.9512,3.998,4.0508,4.1172,4.1171,4.1082,4.0957,4.2446,4.3189,4.3207,4.4815,4.5594,4.5594,4.5594,4.5594,4.5614,4.5825,4.674,4.8125,4.8317,4.9317,5.0712,5.0712,5.0712,5.0712,5.0712,5.0634,5.0504,5.0214,5.0628,5.1513,5.2798,5.3709,5.4516,5.5423,5.6084,5.6792,5.7962,5.8877,5.9595,5.9993,5.982,5.946,5.8971,5.9115,5.9582,6.0393,6.1425,6.2491,6.3419,6.3915,6.4255,6.4389,6.4801,6.5385,6.6262,6.7549,6.8725,6.959,7.0398,7.0898,7.0898,7.0898,7.0898,7.0898,7.0898,7.0898,7.0898,7.0898,7.0898,7.0898,7.0898,7.0898,7.0898,7.0898,7.0898,7.0898,7.0898,7.0898,7.0898,7.0898,7.0898,2.5069,2.5128,2.5223,2.5246,2.521,2.5193,2.5312,0.0,0.0,0.0,0.0,0.0,0.0,0.0,0.0,0.0,0.0,0.0,0.0,0.0,0.0,0.0,3.5901,3.5901,3.5901,3.5901,3.6115,3.666,3.707,3.7891,3.9238,3.9687,4.0293,4.1172,4.1191,4.1148,4.0996,4.2127,4.2873,4.3202,4.4434,4.521,4.5594,4.5594,4.5594,4.5594,4.5594,4.6336,4.7586,4.7952,4.8894,5.0144,5.0539,5.0712,5.0712,5.0712,5.0712,5.0673,5.0442,5.104,5.2107,5.3397,5.4234,5.4895,5.5512,5.5881,5.6381,5.7889,5.8465,5.8821,5.9578,5.9424,5.8952,5.8484,5.9071,5.9887,6.0309,6.1568,6.2866,6.3799,6.4197,6.4555,6.5006,6.5601,6.6303,6.7189,6.8276,6.9302,7.0148,7.0629,7.0898,7.0898,7.0898,7.0898,7.0898,7.0898,7.0898,7.0898,7.0898,7.0898,7.0898,7.0898,7.0898,7.0898,7.0898,7.0898,7.0898,7.0898,7.0898,7.0898,7.0898,7.0898,2.5016,2.5045,2.5081,2.512,2.5097,2.5094,0.0,0.0,0.0,0.0,0.0,0.0,0.0,0.0,0.0,0.0,0.0,0.0,0.0,0.0,0.0,3.5859,3.5898,0.0,3.5901,3.5901,3.5978,3.6172,3.6875,3.7676,3.8555,3.9434,4.0234,4.0976,4.1133,4.1149,4.1026,4.1757,4.244,4.3061,4.3793,4.452,4.5233,4.5353,4.5419,4.5434,4.5554,4.6112,4.6977,4.7768,4.8606,4.949,5.0366,5.0712,5.0712,5.0712,5.0712,5.0712,5.0712,5.1521,5.2717,5.3468,5.4345,5.5173,5.5577,5.5703,5.6049,5.7819,5.8022,5.7963,5.911,5.9103,5.8654,5.8142,5.9226,6.0401,6.0401,6.174,6.3215,6.4216,6.4463,6.4784,6.5736,6.6571,6.7398,6.8282,6.9148,6.9994,7.0802,7.0898,7.0898,7.0898,7.0898,7.0898,7.0898,7.0898,7.0898,7.0898,7.0898,7.0898,7.0898,7.0898,7.0898,7.0898,7.0898,7.0898,7.0898,7.0898,7.0898,7.0898,7.0898,7.0898,2.504,2.5003,2.5055,2.5225,2.5254,2.5264,0.0,0.0,0.0,0.0,0.0,0.0,0.0,0.0,0.0,0.0,0.0,0.0,0.0,0.0,3.511,3.5663,0.0,3.5901,3.5901,3.5901,3.6232,3.7031,3.7226,3.7676,3.8555,3.9434,3.9961,4.0098,4.082,4.1191,4.1171,4.1903,4.2337,4.246,4.3075,4.344,4.3588,4.4206,4.4558,4.4711,4.5332,4.6139,4.7042,4.7792,4.8606,4.949,5.0366,5.0712,5.0712,5.0712,5.0712,5.0712,5.0712,5.1521,5.2692,5.3138,5.4111,5.5173,5.5577,5.5703,5.6049,5.7819,5.8247,5.8374,5.9192,5.9356,5.9084,5.8213,5.9226,6.0401,6.0401,6.2022,6.3659,6.4294,6.4713,6.518,6.5795,6.6571,6.7398,6.8282,6.9148,6.9994,7.0802,7.0898,7.0898,7.0898,7.0898,7.0898,7.0898,7.0898,7.0898,7.0898,7.0898,7.0898,7.0898,7.0898,7.0898,7.0898,7.0898,7.0898,7.0898,7.0898,7.0898,7.0898,7.0898,7.0898,2.529,2.5274,2.5286,2.5386,2.5268,2.5163,0.0,0.0,0.0,0.0,0.0,0.0,0.0,0.0,0.0,0.0,0.0,3.262,3.3833,3.4727,3.5339,0.0,3.573,3.5783,3.5735,3.5774,3.6001,3.6511,3.6532,3.6948,3.7851,3.8711,3.9414,3.9883,4.0742,4.1191,4.1191,4.1539,4.1914,4.2295,4.2501,4.2844,4.3343,4.4155,4.4554,4.466,4.5427,4.5984,4.6441,4.7681,4.8405,4.8836,5.0192,5.0712,5.0712,5.0712,5.0712,5.0712,5.0712,5.1678,5.2962,5.3131,5.4202,5.5466,5.5651,5.5703,5.6017,5.7499,5.7726,5.7828,5.9076,5.9028,5.8528,5.8097,5.9226,6.0401,6.0401,6.2091,6.3766,6.4294,6.4784,6.5409,6.6384,6.7244,6.8109,6.8975,6.9821,7.0475,7.0841,7.0898,7.0898,7.0898,7.0898,7.0898,7.0898,7.0898,7.0898,7.0898,7.0898,7.0898,7.0898,7.0898,7.0898,7.0898,7.0898,7.0898,7.0898,7.0898,7.0898,7.0898,7.0898,7.0898,2.5434,2.5355,2.5236,2.5452,0.0,0.0,2.5293,0.0,0.0,0.0,0.0,0.0,0.0,0.0,0.0,0.0,3.2667,3.3572,3.4416,3.5204,3.5687,3.5606,3.5663,3.5675,3.5626,3.5659,3.5732,3.5843,3.5877,3.621,3.6931,3.7812,3.8691,3.957,4.0449,4.0996,4.1191,4.1191,4.1481,4.2041,4.1902,4.219,4.2864,4.3918,4.4409,4.4491,4.5484,4.5881,4.6003,4.7637,4.8249,4.8312,5.0038,5.0712,5.0712,5.0712,5.0712,5.0712,5.0712,5.1798,5.3203,5.3203,5.4337,5.5703,5.5703,5.5703,5.5964,5.7248,5.7263,5.7248,5.8834,5.8694,5.8146,5.8146,5.9398,6.0623,6.0724,6.2349,6.3936,6.4463,6.485,6.5524,6.6865,6.7821,6.8706,6.9571,7.0379,7.0898,7.0898,7.0898,7.0898,7.0898,7.0898,7.0898,7.0898,7.0898,7.0994,7.1187,7.1014,7.0994,7.1206,7.1014,7.0898,7.0898,7.0898,7.0898,7.0898,7.0898,7.0898,7.0898,7.0898,7.0898,2.5257,2.4902,2.4491,2.5294,0.0,0.0,2.5398,0.0,0.0,0.0,0.0,0.0,0.0,0.0,0.0,0.0,3.2638,3.3462,3.4221,0.0,3.5687,3.5606,3.5663,3.5703,3.5696,3.57,3.5707,3.5713,3.5836,3.5923,3.6004,3.6891,3.7793,3.8672,3.9531,4.0371,4.1191,4.1191,4.123,4.1289,4.115,4.1107,4.1222,4.2789,4.3559,4.376,4.5243,4.5971,4.6181,4.7691,4.8285,4.845,5.0075,5.0712,5.0712,5.0712,5.0712,5.0712,5.0712,5.1798,5.3203,5.3203,5.4337,5.5703,5.5703,5.5703,5.5964,5.7248,5.7263,5.7198,5.8444,5.8694,5.8652,5.8652,5.9938,6.1257,6.1695,6.3144,6.4481,6.4952,6.5083,6.5524,6.6865,6.7821,6.8706,6.9571,7.0379,7.0898,7.0898,7.0898,7.0898,7.0898,7.0898,7.0898,7.0898,7.0898,7.1245,7.2052,7.1341,7.1264,7.2072,7.1321,7.0898,7.0898,7.0898,7.0898,7.0898,7.0898,7.0898,7.0898,7.0898,7.0898,2.4699,2.4576,2.44,2.4732,0.0,0.0,0.0,0.0,0.0,0.0,0.0,0.0,0.0,0.0,0.0,3.1643,3.2539,3.3367,3.4178,3.5032,3.5574,3.5534,3.5556,3.5577,3.5577,3.5577,3.5595,3.5639,3.5723,3.5807,3.59,3.6792,3.7441,3.7773,3.916,4.0059,4.0391,4.0937,4.1191,4.1191,4.115,4.1127,4.1185,4.2834,4.3618,4.3764,4.5411,4.612,4.6221,4.7875,4.8446,4.8452,5.0064,5.0712,5.0712,5.0712,5.0712,5.0712,5.0712,5.1798,5.3203,5.3203,5.4337,5.5703,5.5703,5.5703,5.5964,5.7248,5.7263,5.7181,5.8385,5.8484,5.8329,5.8632,5.9982,6.1319,6.1788,6.3451,6.4885,6.5067,6.5369,6.6085,6.7641,6.8186,6.8879,7.0244,7.0706,7.0898,7.0898,7.0898,7.0898,7.0898,7.1379,7.1706,7.1706,7.2206,7.2879,7.3707,7.1956,7.1283,7.2149,7.136,7.0898,7.0898,7.0898,7.0898,7.0898,7.0898,7.0898,7.0898,7.0898,7.0898,2.4294,2.4394,2.4473,0.0,0.0,0.0,0.0,0.0,0.0,0.0,0.0,0.0,0.0,0.0,0.0,0.0,3.2236,3.2979,3.4116,3.4731,3.5192,3.5462,3.55,3.55,3.55,3.55,3.5515,3.5548,3.563,3.5705,3.5803,3.6432,3.6943,3.7262,3.8668,3.9588,3.9902,4.0762,4.1191,4.1191,4.1191,4.1191,4.1269,4.2949,4.3691,4.3808,4.5547,4.6247,4.6306,4.8005,4.8868,4.9234,5.0296,5.0712,5.0712,5.0712,5.0712,5.0712,5.0712,5.1798,5.3203,5.3203,5.4337,5.5703,5.5703,5.5703,5.5964,5.7248,5.7373,5.7399,5.8615,5.8463,5.8219,5.9112,6.0393,6.1675,6.2553,6.4107,6.5354,6.5354,6.5644,6.6436,6.8109,6.8385,6.8975,7.0648,7.0898,7.0898,7.0898,7.0898,7.1014,7.1283,7.1841,7.2302,7.2591,7.3168,7.3841,7.4649,7.2572,7.1706,7.2572,7.1514,7.0898,7.0898,7.0898,7.0898,7.0898,7.0898,7.0898,7.0898,7.0898,7.0898,2.414,2.4375,0.0,0.0,0.0,0.0,0.0,0.0,0.0,0.0,0.0,0.0,0.0,0.0,0.0,3.1545,3.1698,3.2275,3.3936,3.4186,3.4507,3.5365,3.5481,3.5481,3.5481,3.55,3.55,3.55,3.5562,3.5611,3.5611,3.5671,3.6153,3.715,3.7973,3.8871,3.9883,4.0742,4.1191,4.1191,4.1191,4.1191,4.1269,4.2949,4.3691,4.3808,4.5547,4.6308,4.6426,4.8039,4.9565,5.0886,5.0748,5.0712,5.0712,5.0712,5.0712,5.0712,5.0712,5.1798,5.3203,5.3203,5.4337,5.5703,5.5703,5.5703,5.5964,5.7248,5.7596,5.7872,5.9093,5.8715,5.8463,6.0284,6.1329,6.2385,6.4218,6.5282,6.5897,6.5897,6.5897,6.6436,6.8109,6.8385,6.8975,7.0648,7.0898,7.0898,7.0898,7.0898,7.1225,7.211,7.2206,7.2572,7.3437,7.3533,7.386,7.4668,7.3129,7.2591,7.3476,7.1841,7.0898,7.0898,7.0898,7.0898,7.0898,7.0898,7.0898,7.0898,7.0898,7.0898,2.2733,2.3044,0.0,0.0,0.0,0.0,0.0,0.0,0.0,0.0,0.0,0.0,0.0,0.0,0.0,3.0731,3.1288,3.1872,3.2372,3.2929,3.3372,3.3641,3.4218,3.4584,3.4584,3.5135,3.55,3.55,3.5562,3.5611,3.5611,3.5671,3.5833,3.6134,3.7056,3.7961,3.8831,3.9803,4.0586,4.1191,4.1191,4.1191,4.1269,4.2949,4.3691,4.3808,4.5547,4.6308,4.6425,4.7927,4.9476,5.0886,5.0748,5.0712,5.0712,5.0712,5.0712,5.0712,5.0712,5.1798,5.3203,5.3203,5.4337,5.5703,5.5703,5.5703,5.6028,5.7647,5.7838,5.7949,5.9498,5.9441,5.9365,6.0855,6.1818,6.2796,6.4289,6.5282,6.5897,6.5897,6.5897,6.6436,6.8109,6.8385,6.8975,7.0648,7.0898,7.0898,7.0898,7.0898,7.1225,7.211,7.2745,7.3456,7.4284,7.4918,7.5361,7.5611,7.4034,7.3226,7.3481,7.1841,7.0898,7.0898,7.0898,7.0898,7.0898,7.0898,7.0898,7.0898,7.0898,7.0898,2.2811,0.0,0.0,0.0,0.0,0.0,0.0,0.0,0.0,0.0,0.0,0.0,2.905,2.9853,0.0,3.0404,3.0846,3.1288,3.166,3.2122,3.2545,3.2852,3.3353,3.3821,3.4167,3.468,3.5141,3.5462,3.554,3.5556,3.5556,3.5605,3.5635,3.5663,3.6618,3.7388,3.7915,3.9234,4.0156,4.0684,4.1035,4.1191,4.125,4.2578,4.3379,4.3808,4.5547,4.6659,4.7312,4.8156,4.9456,5.0886,5.0748,5.0712,5.0712,5.0712,5.0712,5.0712,5.0712,5.1568,5.2741,5.3087,5.4126,5.528,5.5588,5.5703,5.6049,5.7819,5.8103,5.8266,5.9944,6.0161,6.0205,6.1171,6.2006,6.2968,6.4302,6.5282,6.5897,6.5897,6.5897,6.6436,6.8109,6.8385,6.8975,7.0648,7.0898,7.0898,7.0898,7.0898,7.1225,7.211,7.2976,7.3841,7.463,7.5495,7.5995,7.5995,7.4437,7.3514,7.3514,7.1841,7.0898,7.0898,7.0898,7.0898,7.0898,7.0898,7.0898,7.0898,7.0898,7.0898,0.0,0.0,0.0,0.0,0.0,0.0,0.0,0.0,0.0,0.0,0.0,0.0,2.8937,2.9746,3.0308,3.0385,3.0404,3.0673,3.1468,3.1583,3.1852,3.2583,3.2737,3.3103,3.3898,3.4032,3.441,3.5192,3.525,3.5308,3.5385,3.5385,3.5438,3.5585,3.6425,3.6965,3.7178,3.8821,3.9726,3.9883,4.0703,4.1113,4.123,4.2031,4.293,4.3906,4.5586,4.7161,4.8577,4.8518,4.9398,5.077,5.0729,5.0712,5.0712,5.0712,5.0712,5.0712,5.0712,5.1221,5.2038,5.2933,5.3799,5.4645,5.5453,5.5703,5.6049,5.7819,5.83,5.8684,6.0358,6.08,6.0882,6.1272,6.2027,6.3012,6.4315,6.5282,6.5897,6.5897,6.5897,6.6436,6.8109,6.8385,6.8975,7.0648,7.0898,7.0898,7.0898,7.0898,7.1225,7.211,7.2976,7.3841,7.463,7.5495,7.5976,7.588,7.438,7.3476,7.338,7.1783,7.0898,7.0898,7.0898,7.0898,7.0898,7.0898,7.0898,7.0898,7.0898,7.0898,0.0,0.0,0.0,0.0,0.0,0.0,0.0,0.0,0.0,0.0,0.0,2.7161,2.8014,2.8841,2.9602,3.0288,3.0404,3.0462,3.0654,3.0673,3.0731,3.0923,3.1545,3.2025,3.2218,3.2814,3.3256,3.3449,3.3468,3.3757,3.443,3.4468,3.4796,3.5502,3.5778,3.6236,3.6966,3.7515,3.8436,3.9746,4.0037,4.0547,4.123,4.2031,4.3242,4.4785,4.584,4.6829,4.7716,4.8264,4.9043,4.9923,5.0488,5.0712,5.0712,5.0712,5.0712,5.0712,5.0712,5.1221,5.2038,5.2933,5.3799,5.4645,5.5453,5.5703,5.6049,5.7819,5.83,5.8684,6.0358,6.08,6.0827,6.0909,6.2055,6.3425,6.4385,6.5282,6.5897,6.5897,6.5897,6.6436,6.8109,6.8385,6.8975,7.0648,7.0898,7.0898,7.0898,7.0898,7.1225,7.211,7.2976,7.3841,7.463,7.5495,7.5707,7.5014,7.4053,7.3187,7.2514,7.1456,7.0898,7.0898,7.0898,7.0898,7.0898,7.0898,7.0898,7.0898,7.0898,7.0898,0.0,0.0,0.0,0.0,0.0,0.0,0.0,0.0,0.0,0.0,2.592,2.6736,2.7198,2.7953,2.88,2.964,2.9775,2.9929,3.0346,3.0404,3.0404,3.0404,3.0808,3.1231,3.166,3.2083,3.2487,3.2872,3.2891,3.3276,3.4148,3.4205,3.4603,3.5462,3.5568,3.5839,3.6311,3.6916,3.7867,3.9171,3.9667,4.0351,4.123,4.2461,4.3516,4.4453,4.5742,4.6712,4.7426,4.7811,4.8657,4.9724,5.0043,5.0424,5.0791,5.0712,5.0712,5.0712,5.0712,5.0971,5.1452,5.2299,5.3164,5.403,5.4876,5.5395,5.6049,5.7819,5.83,5.8684,6.0358,6.08,6.08,6.08,6.2089,6.3423,6.3878,6.4993,6.5897,6.5897,6.5897,6.6301,6.7552,6.8475,6.9456,7.0706,7.0898,7.0898,7.0898,7.0898,7.1071,7.1533,7.2726,7.3668,7.4091,7.5284,7.5803,7.5361,7.4187,7.3303,7.2841,7.1572,7.0898,7.0898,7.0898,7.0898,7.0898,7.0898,7.0898,7.0898,7.0898,7.0898,0.0,0.0,0.0,0.0,0.0,0.0,0.0,0.0,0.0,0.0,2.5738,2.6428,2.6563,2.7198,2.7934,2.8761,2.9011,2.9357,3.0077,3.0308,3.0404,3.0404,3.0404,3.0673,3.141,3.1487,3.1756,3.2429,3.2468,3.291,3.3917,3.3975,3.443,3.5462,3.5544,3.5606,3.5652,3.6657,3.763,3.8551,3.9628,4.0508,4.1269,4.2949,4.3691,4.3808,4.5547,4.6655,4.721,4.7355,4.8269,4.9605,4.9627,5.0148,5.0886,5.0793,5.0731,5.0712,5.0712,5.0712,5.0827,5.1635,5.2481,5.3356,5.4241,5.5049,5.603,5.7627,5.8184,5.8646,6.0185,6.0685,6.08,6.08,6.2089,6.3288,6.3288,6.4666,6.5897,6.5897,6.6013,6.6359,6.7186,6.8648,6.9975,7.0783,7.0898,7.0898,7.0898,7.0898,7.0898,7.0898,7.2341,7.3341,7.3481,7.4899,7.5784,7.5784,7.4341,7.3437,7.3283,7.1745,7.0898,7.0898,7.0898,7.0898,7.0898,7.0898,7.0898,7.0898,7.0898,7.0898,0.0,0.0,0.0,0.0,0.0,0.0,0.0,0.0,0.0,0.0,2.5253,2.5692,2.6467,2.6697,2.7063,2.7915,2.8646,2.9146,2.9261,2.9929,3.0404,3.0404,3.0404,3.0442,3.0558,3.0577,3.0615,3.0731,3.0731,3.1423,3.2987,3.3064,3.3814,3.5442,3.5508,3.5528,3.5534,3.6513,3.7472,3.8363,4.0166,4.1094,4.1269,4.2949,4.3691,4.3808,4.5547,4.6367,4.6502,4.7137,4.7972,4.8911,4.9532,5.024,5.0908,5.0879,5.0789,5.0712,5.0712,5.0712,5.0827,5.1635,5.2481,5.3356,5.4241,5.5049,5.5915,5.6907,5.7723,5.8511,5.9435,6.0223,6.08,6.08,6.2089,6.3288,6.3288,6.4666,6.5897,6.5897,6.6455,6.7205,6.809,6.9052,6.9975,7.0783,7.0898,7.0898,7.0898,7.0898,7.0898,7.0898,7.1783,7.2687,7.3437,7.4341,7.488,7.488,7.4014,7.3168,7.2399,7.1418,7.0898,7.0898,7.0898,7.0898,7.0898,7.0898,7.0898,7.0898,7.0898,7.0898,0.0,0.0,0.0,0.0,0.0,0.0,0.0,0.0,0.0,2.504,2.5157,2.5423,2.5808,2.5865,2.6154,2.7024,2.7467,2.7871,2.8357,2.914,2.9679,2.9679,3.0096,3.0404,3.0404,3.0404,3.0404,3.0404,3.0404,3.0923,3.216,3.2237,3.3006,3.4718,3.4776,3.5014,3.555,3.6024,3.7005,3.8492,4.033,4.1191,4.123,4.2422,4.3242,4.3808,4.5547,4.6308,4.6328,4.6655,4.7587,4.8835,4.909,4.9925,5.1004,5.0925,5.0814,5.0712,5.0712,5.0712,5.077,5.1106,5.2125,5.328,5.3664,5.4664,5.5876,5.6753,5.7627,5.8492,5.93,6.0146,6.08,6.08,6.2089,6.3288,6.3288,6.4666,6.5897,6.5897,6.6186,6.684,6.8167,6.8725,6.9417,7.0706,7.0898,7.0898,7.0898,7.0898,7.0898,7.0898,7.2129,7.3091,7.3476,7.4687,7.5438,7.5438,7.4226,7.3341,7.2937,7.1629,7.0898,7.0898,7.0898,7.0898,7.0898,7.0898,7.0898,7.0898,7.0898,7.0898,0.0,0.0,0.0,0.0,0.0,0.0,0.0,0.0,2.5138,0.0,2.5072,2.5165,2.5165,2.5243,2.5519,2.6154,2.6467,2.6832,2.7486,2.828,2.8876,2.9088,2.9679,3.0154,3.0385,3.0404,3.0404,3.0404,3.0404,3.0788,3.166,3.1698,3.2468,3.4148,3.4205,3.4648,3.5571,3.6094,3.7201,3.8904,4.0468,4.1191,4.123,4.2031,4.2871,4.3789,4.5312,4.6094,4.6308,4.6308,4.7324,4.8886,4.8793,4.972,5.1107,5.0984,5.0875,5.0758,5.0712,5.0712,5.0712,5.0712,5.1837,5.3203,5.3203,5.4376,5.5838,5.6503,5.7453,5.8434,5.905,5.9992,6.08,6.08,6.2089,6.3423,6.3878,6.4974,6.5897,6.5897,6.5897,6.6436,6.8109,6.8385,6.8975,7.0648,7.0898,7.0898,7.0898,7.0898,7.0898,7.0898,7.2264,7.3264,7.3481,7.4841,7.5765,7.5995,7.4437,7.3514,7.3514,7.1841,7.0898,7.0898,7.0898,7.0898,7.0898,7.0898,7.0898,7.0898,7.0898,7.0898,0.0,0.0,0.0,0.0,0.0,0.0,0.0,0.0,0.0,2.4818,2.4825,2.4832,2.4832,2.5091,2.5308,2.5365,2.6058,2.6621,2.6659,2.7409,2.8261,2.9011,2.9146,2.9486,3.0327,3.0404,3.0404,3.0404,3.0404,3.0788,3.166,3.1698,3.2468,3.4148,3.4205,3.4629,3.5494,3.7268,3.8664,3.9658,4.07,4.1191,4.123,4.2031,4.2871,4.375,4.4668,4.5547,4.6308,4.6308,4.7324,4.8906,4.8886,4.9833,5.1188,5.1131,5.101,5.0863,5.073,5.0712,5.0712,5.0712,5.1837,5.3203,5.3203,5.4376,5.5703,5.5742,5.6992,5.8319,5.8357,5.9588,6.08,6.08,6.2089,6.3762,6.5416,6.584,6.5897,6.5897,6.5897,6.6436,6.8109,6.8385,6.8975,7.0648,7.0898,7.0898,7.0898,7.0898,7.0898,7.0898,7.1725,7.2591,7.3437,7.4284,7.513,7.5957,7.4437,7.3514,7.3514,7.1841,7.0898,7.0898,7.0898,7.0898,7.0898,7.0898,7.0898,7.0898,7.0898,7.0898,0.0,0.0,0.0,0.0,0.0,0.0,0.0,2.4708,2.4804,2.4804,2.4804,2.4804,2.4804,2.4908,2.4987,2.4987,2.5241,2.5431,2.5431,2.616,2.7045,2.8013,2.8587,2.9295,3.0302,3.0404,3.0404,3.0404,3.0404,3.0538,3.0846,3.0865,3.1641,3.3314,3.3372,3.4064,3.5548,3.7381,3.8486,3.8874,4.0446,4.1191,4.1211,4.1504,4.207,4.291,4.3789,4.498,4.6308,4.6308,4.7324,4.8906,4.8906,4.9835,5.1194,5.112,5.1022,5.0879,5.0758,5.0712,5.0712,5.0712,5.1837,5.3203,5.3203,5.4376,5.5818,5.6387,5.7396,5.8415,5.8934,5.9935,6.1069,6.2147,6.2858,6.3782,6.5513,6.5897,6.5897,6.5897,6.5897,6.6436,6.8109,6.8385,6.8802,6.9956,7.0571,7.0706,7.0206,7.0571,7.0898,7.0898,7.2187,7.3168,7.3476,7.4745,7.5668,7.5976,7.4437,7.3514,7.3514,7.1841,7.0898,7.0898,7.0898,7.0898,7.0898,7.0898,7.0898,7.0898,7.0898,7.0898,2.0423,0.0,0.0,0.0,0.0,0.0,0.0,0.0,2.4615,2.4685,2.4647,2.4591,2.4591,2.4591,2.4639,2.4782,2.4804,2.4804,2.4804,2.5257,2.5998,2.7039,2.7885,2.8811,2.9854,3.0231,3.0404,3.0404,3.0404,3.0404,3.0404,3.0404,3.1173,3.2852,3.3468,3.4347,3.5554,3.7089,3.8023,3.838,3.9995,4.0918,4.1191,4.1191,4.1641,4.2441,4.332,4.4512,4.5898,4.6172,4.7324,4.8906,4.8906,4.9879,5.124,5.1133,5.1031,5.0945,5.0766,5.0712,5.0712,5.0712,5.1837,5.3203,5.3203,5.4376,5.5876,5.6753,5.7627,5.8492,5.93,6.0146,6.1223,6.2897,6.3288,6.3782,6.5513,6.5897,6.5897,6.5897,6.5897,6.6436,6.8109,6.8385,6.8802,6.9937,7.0552,7.0706,7.0167,7.0571,7.0898,7.0898,7.2456,7.3514,7.3514,7.5034,7.5995,7.5995,7.4437,7.3514,7.3514,7.1841,7.0898,7.0898,7.0898,7.0898,7.0898,7.0898,7.0898,7.0898,7.0898,7.0898,0.0,0.0,0.0,0.0,0.0,0.0,2.4239,0.0,2.4238,2.4444,2.4321,2.418,2.419,2.419,2.4339,2.4723,2.4782,2.4782,2.4782,2.4782,2.5163,2.6181,2.7071,2.7982,2.9,2.989,3.0404,3.0404,3.0404,3.0404,3.0404,3.0442,3.1212,3.2852,3.4596,3.55,3.55,3.6497,3.7426,3.827,3.9361,4.0332,4.1152,4.1191,4.1621,4.2402,4.3301,4.418,4.5039,4.5937,4.7305,4.8867,4.8887,4.9902,5.1346,5.1175,5.1089,5.1053,5.0799,5.0712,5.0712,5.0712,5.1837,5.3203,5.3203,5.4376,5.5876,5.6791,5.7646,5.8492,5.9319,6.0165,6.1223,6.2897,6.3288,6.3782,6.5513,6.5897,6.5897,6.5897,6.5897,6.6436,6.8109,6.8385,6.8956,7.0629,7.086,7.086,7.086,7.086,7.0879,7.0898,7.2456,7.3514,7.3514,7.5034,7.5995,7.5995,7.4437,7.3514,7.3514,7.1841,7.0898,7.0898,7.0898,7.0898,7.0898,7.0898,7.0898,7.0898,7.0898,7.0898,1.8845,0.0,0.0,0.0,0.0,0.0,0.0,0.0,2.3927,2.4228,2.4056,2.3907,2.4161,2.419,2.4237,2.4339,2.4366,2.4366,2.4366,2.4366,2.4801,2.5962,2.6846,2.7837,2.8989,2.989,3.0404,3.0404,3.0404,3.0404,3.0404,3.1538,3.2429,3.2891,3.4596,3.55,3.55,3.6441,3.7041,3.7317,3.8963,3.9885,4.014,4.0877,4.1328,4.1601,4.3066,4.3848,4.418,4.5683,4.6953,4.8027,4.8652,4.957,5.0584,5.0961,5.1089,5.1053,5.0799,5.0712,5.0712,5.0712,5.1837,5.3203,5.3203,5.4376,5.6011,5.7511,5.8107,5.8627,6.0069,6.0608,6.1223,6.2897,6.3288,6.3782,6.5513,6.5897,6.5897,6.5897,6.5897,6.6436,6.8109,6.8385,6.8783,6.9879,7.0033,7.0033,7.0033,7.0033,7.0244,7.0841,7.2456,7.3514,7.3514,7.5034,7.5995,7.5995,7.4437,7.3514,7.3514,7.1841,7.0898,7.0898,7.0898,7.0898,7.0898,7.0898,7.0898,7.0898,7.0898,7.0898,0.0,0.0,0.0,0.0,0.0,0.0,2.2859,2.3098,2.3355,0.0,2.3714,2.3555,2.3753,2.3785,2.3785,2.3785,2.3896,2.4036,2.418,2.419,2.4515,2.5401,2.6564,2.7635,2.8503,2.9698,3.0404,3.0404,3.0404,3.0404,3.0404,3.1987,3.2756,3.241,3.4423,3.5327,3.4968,3.5894,3.6536,3.6909,3.841,3.9319,3.9735,4.0671,4.1149,4.1289,4.2969,4.3691,4.3848,4.5586,4.6816,4.7695,4.8555,4.9393,5.02,5.0868,5.1053,5.0985,5.0764,5.0712,5.0712,5.0712,5.1837,5.3203,5.3203,5.4376,5.5992,5.7376,5.8261,5.9108,6.0454,6.08,6.1127,6.2474,6.307,6.3685,6.5051,6.5628,6.5897,6.5897,6.5897,6.6436,6.8109,6.8385,6.8821,7.0014,7.0206,7.0206,7.0206,7.0206,7.0379,7.0841,7.2456,7.336,7.2995,7.4495,7.5303,7.4976,7.3707,7.2956,7.2956,7.1629,7.0898,7.0898,7.0898,7.0898,7.0898,7.0898,7.0898,7.0898,7.0898,7.0898,1.9734,1.9941,0.0,0.0,0.0,0.0,2.24,2.2559,2.2645,0.0,2.3327,2.3153,2.3189,2.32,2.32,2.32,2.3448,2.3764,2.4094,2.4244,2.4459,2.4847,2.6397,2.7583,2.7956,2.9456,3.0404,3.0404,3.0404,3.0404,3.0404,3.191,3.2487,3.1852,3.4115,3.5026,3.4359,3.5176,3.5977,3.6767,3.78,3.8738,3.9589,4.0567,4.1078,4.1289,4.2969,4.3691,4.3848,4.5586,4.6816,4.7695,4.8555,4.9347,5.0098,5.0824,5.1022,5.0879,5.0758,5.0712,5.0712,5.0712,5.1837,5.3203,5.3203,5.4376,5.5895,5.6868,5.828,5.9704,6.0569,6.08,6.1012,6.1889,6.2704,6.3538,6.4416,6.5282,6.5897,6.5897,6.5897,6.6436,6.8109,6.8385,6.8975,7.0648,7.0821,7.0802,7.0898,7.0821,7.0802,7.0898,7.2379,7.3033,7.2264,7.3649,7.4264,7.3553,7.2687,7.2187,7.2187,7.136,7.0898,7.0898,7.0898,7.0898,7.0898,7.0898,7.0898,7.0898,7.0898,7.0898,1.9166,1.9598,2.0006,1.9998,0.0,0.0,2.0752,2.145,2.2165,0.0,2.2623,2.2885,2.3153,2.32,2.32,2.32,2.3247,2.3414,2.3746,2.4602,2.5262,2.55,2.7153,2.837,2.8598,2.9698,3.0404,3.0404,3.0404,3.0404,3.0404,3.1385,3.216,3.2641,3.3833,3.4718,3.5231,3.5418,3.5592,3.5791,3.7434,3.8348,3.863,4.0257,4.1078,4.1289,4.2969,4.3691,4.3848,4.5586,4.6816,4.7695,4.8555,4.9347,5.0098,5.0824,5.1022,5.0879,5.0758,5.0712,5.0712,5.0712,5.1837,5.3203,5.3203,5.4376,5.603,5.7607,5.8742,5.9704,6.0569,6.08,6.1012,6.1889,6.2704,6.3538,6.4416,6.5282,6.5897,6.5897,6.5897,6.6436,6.8109,6.8385,6.8975,7.0648,7.036,7.0167,7.0821,7.0341,7.0187,7.0821,7.1822,7.2379,7.2206,7.3149,7.3668,7.3514,7.2687,7.2187,7.2187,7.136,7.0898,7.0898,7.0898,7.0898,7.0898,7.0898,7.0898,7.0898,7.0898,7.0898,1.9654,1.9883,2.0106,1.9938,0.0,0.0,0.0,2.1087,2.1611,2.1515,2.2177,2.2638,2.227,2.25,2.2747,2.2747,2.2853,2.3009,2.3177,2.3974,2.486,2.5743,2.6943,2.8029,2.8874,2.9704,3.0254,3.0398,3.0404,3.0404,3.0404,3.1231,3.1891,3.2295,3.3551,3.4417,3.4853,3.5269,3.55,3.5519,3.7263,3.815,3.8309,4.0094,4.0964,4.1202,4.2948,4.3691,4.3848,4.5586,4.7029,4.8193,4.8691,4.9317,4.9999,5.0801,5.0966,5.0791,5.0712,5.0712,5.0712,5.0712,5.1837,5.3203,5.3203,5.4376,5.6049,5.7819,5.8588,5.9184,6.0473,6.08,6.0916,6.1351,6.2397,6.3423,6.3858,6.4974,6.5897,6.5897,6.5897,6.6282,6.7532,6.8109,6.884,7.011,7.0302,7.0437,7.0841,7.0552,7.0456,7.086,7.1668,7.2014,7.1591,7.2341,7.2668,7.2225,7.1783,7.1552,7.1552,7.1129,7.0898,7.0898,7.0898,7.0898,7.0898,7.0898,7.0898,7.0898,7.0898,7.0898,0.0,0.0,0.0,0.0,0.0,1.9948,0.0,0.0,0.0,0.0,0.0,0.0,0.0,0.0,0.0,2.2076,2.2388,2.2634,2.2695,2.3212,2.4192,2.5838,2.6681,2.7652,2.904,2.9494,2.9882,3.0286,3.0189,3.0151,3.0317,3.1046,3.1602,3.1929,3.3237,3.4109,3.4449,3.5154,3.55,3.5519,3.7199,3.8073,3.8266,4.0017,4.087,4.1095,4.2907,4.3691,4.3848,4.5586,4.726,4.8742,4.8865,4.9354,5.0095,5.0826,5.0932,5.0712,5.0712,5.0712,5.0712,5.0712,5.1837,5.326,5.3587,5.4626,5.6049,5.7819,5.83,5.8684,6.0358,6.08,6.08,6.08,6.1954,6.3108,6.3281,6.4551,6.5705,6.5859,6.5897,6.6147,6.6955,6.7821,6.8706,6.9571,7.0379,7.0898,7.0898,7.0898,7.0898,7.0898,7.1533,7.1648,7.0956,7.1552,7.1648,7.0937,7.0898,7.0898,7.0898,7.0898,7.0898,7.0898,7.0898,7.0898,7.0898,7.0898,7.0898,7.0898,7.0898,7.0898,0.0,0.0,0.0,0.0,2.057,0.0,0.0,0.0,2.0299,1.9921,0.0,0.0,0.0,0.0,0.0,0.0,0.0,0.0,2.2673,2.3021,2.3962,2.5862,2.7202,2.8324,2.9269,2.8945,2.9049,2.9982,2.9376,2.9287,3.0016,3.0363,3.1231,3.2718,3.2949,3.3795,3.5346,3.5442,3.55,3.5519,3.7199,3.8073,3.8266,4.0017,4.087,4.1095,4.2907,4.3691,4.3848,4.5586,4.7324,4.8886,4.8887,4.9675,5.0803,5.1028,5.0932,5.0712,5.0712,5.0712,5.0712,5.0712,5.1837,5.3491,5.4972,5.5549,5.6049,5.7819,5.83,5.8684,6.0358,6.08,6.08,6.08,6.1531,6.2416,6.3147,6.407,6.4974,6.5743,6.5897,6.6147,6.6955,6.7821,6.8706,6.9571,7.0379,7.0898,7.0898,7.0898,7.0898,7.0898,7.0994,7.1014,7.0918,7.0994,7.1014,7.0918,7.0898,7.0898,7.0898,7.0898,7.0898,7.0898,7.0898,7.0898,7.0898,7.0898,7.0898,7.0898,7.0898,7.0898,0.0,0.0,0.0,0.0,0.0,0.0,1.9713,0.0,2.016,0.0,0.0,0.0,0.0,0.0,0.0,0.0,2.1958,0.0,2.2682,2.3153,2.4017,2.5465,2.6007,2.6809,2.8278,2.8895,2.9379,2.9783,2.9631,2.9639,2.9987,3.0254,3.0942,3.2179,3.266,3.3487,3.4737,3.525,3.55,3.5519,3.7199,3.8031,3.8144,3.9961,4.0824,4.0983,4.2882,4.3691,4.3848,4.5586,4.6989,4.809,4.8671,4.9796,5.1083,5.1079,5.0979,5.0797,5.0721,5.0712,5.0866,5.1837,5.2626,5.351,5.5184,5.5703,5.6049,5.7819,5.83,5.8684,6.0358,6.08,6.08,6.08,6.1466,6.232,6.3128,6.3993,6.4859,6.5724,6.5897,6.6013,6.634,6.709,6.7936,6.8821,6.9667,7.0379,7.0841,7.0898,7.0898,7.0898,7.0898,7.0898,7.0898,7.0898,7.0898,7.0898,7.0898,7.0898,7.0898,7.0898,7.0898,7.0898,7.0898,7.0898,7.0898,7.0898,7.0898,7.0898,7.0898,7.0898,2.0927,0.0,0.0,0.0,0.0,0.0,0.0,0.0,0.0,0.0,0.0,0.0,0.0,0.0,0.0,0.0,0.0,2.2733,0.0,2.3335,0.0,0.0,2.5157,2.5782,2.7235,2.8315,2.9041,2.9355,2.9559,2.9766,2.9987,3.0254,3.0808,3.1679,3.2487,3.3314,3.4186,3.5064,3.55,3.5519,3.7199,3.8007,3.806,3.9937,4.0797,4.091,4.2859,4.3691,4.3848,4.5586,4.6754,4.7554,4.8514,4.9722,5.0945,5.1085,5.1036,5.0886,5.0791,5.073,5.0981,5.2664,5.3203,5.351,5.5184,5.5703,5.6011,5.7511,5.8127,5.8627,6.0069,6.0608,6.08,6.08,6.1293,6.2031,6.307,6.3801,6.457,6.5686,6.5897,6.5897,6.5897,6.6571,6.7398,6.8282,6.9148,6.9994,7.0802,7.0898,7.0898,7.0898,7.0898,7.0898,7.0898,7.0898,7.0898,7.0898,7.0898,7.0898,7.0898,7.0898,7.0898,7.0898,7.0898,7.0898,7.0898,7.0898,7.0898,7.0898,7.0898,7.0898,0.0,2.202,0.0,2.1271,0.0,0.0,0.0,0.0,2.0258,0.0,0.0,0.0,0.0,0.0,0.0,0.0,0.0,0.0,0.0,0.0,0.0,0.0,0.0,0.0,2.6518,2.6822,2.7426,2.8466,2.8722,2.9176,2.9968,3.0254,3.0808,3.1679,3.2487,3.3314,3.4186,3.5064,3.55,3.5519,3.7199,3.8007,3.806,3.9937,4.0797,4.091,4.2859,4.3691,4.3848,4.5586,4.6816,4.7676,4.8555,4.9453,5.0312,5.0967,5.1064,5.0908,5.0901,5.0805,5.0981,5.2664,5.3203,5.351,5.5184,5.5703,5.5876,5.6791,5.7646,5.8492,5.9338,6.0165,6.08,6.08,6.0819,6.1281,6.2954,6.332,6.3858,6.557,6.5897,6.5897,6.5897,6.6571,6.7398,6.8282,6.9148,6.9994,7.0802,7.0898,7.0898,7.0898,7.0898,7.0898,7.0898,7.0898,7.0898,7.0898,7.0898,7.0898,7.0898,7.0898,7.0898,7.0898,7.0898,7.0898,7.0898,7.0898,7.0898,7.0898,7.0898,7.0898,2.2521,2.2679,2.2502,2.1391,2.1186,2.0972,1.9852,1.9895,0.0,0.0,0.0,0.0,0.0,0.0,0.0,0.0,0.0,0.0,0.0,0.0,0.0,0.0,0.0,0.0,0.0,2.676,2.7895,2.8395,2.9141,2.9708,2.9987,3.0254,3.0538,3.0827,3.2179,3.3045,3.3333,3.4769,3.55,3.5519,3.7199,3.8059,3.8187,3.9975,4.0854,4.1047,4.2885,4.3691,4.3848,4.5586,4.6465,4.6875,4.832,4.9082,4.9492,5.0734,5.1151,5.1072,5.0953,5.0863,5.1093,5.2675,5.3203,5.351,5.5184,5.5703,5.5876,5.6753,5.7627,5.8492,5.93,6.0146,6.08,6.08,6.08,6.1262,6.2954,6.3288,6.382,6.5551,6.5897,6.5897,6.5897,6.6128,6.659,6.7417,6.8282,6.9148,6.9994,7.0571,7.0898,7.0898,7.0898,7.0898,7.0898,7.0898,7.0898,7.0898,7.0898,7.0898,7.0898,7.0898,7.0898,7.0898,7.0898,7.0898,7.0898,7.0898,7.0898,7.0898,7.0898,7.0898,2.2867,2.3149,2.3112,2.1709,2.1644,2.1631,2.046,2.0508,2.0682,2.0409,0.0,0.0,0.0,0.0,0.0,0.0,0.0,0.0,0.0,2.3588,0.0,0.0,0.0,0.0,0.0,0.0,2.7635,2.8074,2.9091,2.9818,3.0124,3.0305,3.0404,3.0404,3.2025,3.2891,3.2891,3.4635,3.55,3.5519,3.725,3.8118,3.8266,4.0058,4.0917,4.1095,4.2907,4.3691,4.3848,4.5586,4.6308,4.6465,4.8223,4.8906,4.9082,5.0673,5.124,5.1185,5.1023,5.0945,5.1157,5.2749,5.3234,5.351,5.5184,5.5703,5.5818,5.6387,5.7396,5.8415,5.8934,5.9935,6.08,6.08,6.08,6.1262,6.2954,6.3288,6.382,6.5551,6.5897,6.5897,6.5897,6.5897,6.6167,6.6974,6.784,6.8725,6.959,7.0398,7.0898,7.0898,7.0898,7.0898,7.0898,7.0898,7.0898,7.0898,7.0898,7.0898,7.0898,7.0898,7.0898,7.0898,7.0898,7.0898,7.0898,7.0898,7.0898,7.0898,7.0898,7.0898]}]]